Wetterdaten: Montag, 06.06.2016
Datum Zeit Temp. A. Feuchte A. Luftdruck Regen Wind Richtung Richtung Sonnenschein ET UV Solar Taupunkt Windchill Windben Empfang
06.06.2016 00:00 16,0 C 93 % 1016,5 hPa 0,0 l/m 1,9 km/h (1 Bft) S-SW 192 0 min 0,000 mm 0,0 UV-I 0 W/m 14,9 C 16,0 C 3,2 km/h (1 Bft) 100,00 %
06.06.2016 00:02 15,9 C 93 % 1016,5 hPa 0,0 l/m 2,3 km/h (1 Bft) S-SW 192 0 min 0,000 mm 0,0 UV-I 0 W/m 14,8 C 15,9 C 3,2 km/h (1 Bft) 100,00 %
06.06.2016 00:03 15,9 C 93 % 1016,5 hPa 0,2 l/m 1,5 km/h (1 Bft) S-SW 192 0 min 0,000 mm 0,0 UV-I 0 W/m 14,8 C 15,9 C 1,6 km/h (1 Bft) 100,00 %
06.06.2016 00:04 15,8 C 93 % 1016,6 hPa 0,0 l/m 0,4 km/h (0 Bft) S-SW 192 0 min 0,000 mm 0,0 UV-I 0 W/m 14,7 C 15,8 C 1,6 km/h (1 Bft) 100,00 %
06.06.2016 00:05 15,8 C 93 % 1016,6 hPa 0,0 l/m 0,1 km/h (0 Bft) S-SW 192 0 min 0,000 mm 0,0 UV-I 0 W/m 14,7 C 15,8 C 1,6 km/h (1 Bft) 100,00 %
06.06.2016 00:06 15,8 C 93 % 1016,6 hPa 0,0 l/m 0,1 km/h (0 Bft) S-SW 192 0 min 0,000 mm 0,0 UV-I 0 W/m 14,7 C 15,8 C 1,6 km/h (1 Bft) 100,00 %
06.06.2016 00:07 15,8 C 93 % 1016,6 hPa 0,0 l/m 0,6 km/h (0 Bft) S-SW 194 0 min 0,000 mm 0,0 UV-I 0 W/m 14,7 C 15,8 C 1,6 km/h (1 Bft) 100,00 %
06.06.2016 00:08 15,7 C 94 % 1016,7 hPa 0,0 l/m 0,3 km/h (0 Bft) S-SW 194 0 min 0,000 mm 0,0 UV-I 0 W/m 14,7 C 15,7 C 1,6 km/h (1 Bft) 100,00 %
06.06.2016 00:09 15,7 C 94 % 1016,7 hPa 0,2 l/m 0,0 km/h (0 Bft) S-SW 194 0 min 0,000 mm 0,0 UV-I 0 W/m 14,7 C 15,7 C 0,0 km/h (0 Bft) 100,00 %
06.06.2016 00:10 15,7 C 94 % 1016,7 hPa 0,0 l/m 1,2 km/h (1 Bft) S-SW 194 0 min 0,000 mm 0,0 UV-I 0 W/m 14,7 C 15,7 C 3,2 km/h (1 Bft) 100,00 %
06.06.2016 00:11 15,7 C 94 % 1016,7 hPa 0,0 l/m 1,3 km/h (1 Bft) S-SW 194 0 min 0,000 mm 0,0 UV-I 0 W/m 14,7 C 15,7 C 3,2 km/h (1 Bft) 100,00 %
06.06.2016 00:12 15,6 C 94 % 1016,6 hPa 0,0 l/m 1,2 km/h (1 Bft) S-SW 194 0 min 0,000 mm 0,0 UV-I 0 W/m 14,6 C 15,6 C 3,2 km/h (1 Bft) 100,00 %
06.06.2016 00:13 15,6 C 94 % 1016,6 hPa 0,0 l/m 0,9 km/h (0 Bft) S-SW 194 0 min 0,000 mm 0,0 UV-I 0 W/m 14,6 C 15,6 C 1,6 km/h (1 Bft) 100,00 %
06.06.2016 00:14 15,6 C 94 % 1016,5 hPa 0,0 l/m 1,4 km/h (1 Bft) S 190 0 min 0,000 mm 0,0 UV-I 0 W/m 14,6 C 15,6 C 3,2 km/h (1 Bft) 95,65 %
06.06.2016 00:15 15,6 C 94 % 1016,6 hPa 0,0 l/m 2,9 km/h (1 Bft) S-SO 164 0 min 0,000 mm 0,0 UV-I 0 W/m 14,6 C 15,6 C 6,4 km/h (2 Bft) 100,00 %
06.06.2016 00:16 15,6 C 95 % 1016,6 hPa 0,0 l/m 6,1 km/h (2 Bft) O-SO 114 0 min 0,000 mm 0,0 UV-I 0 W/m 14,8 C 15,6 C 6,4 km/h (2 Bft) 100,00 %
06.06.2016 00:17 15,7 C 95 % 1016,6 hPa 0,0 l/m 5,7 km/h (1 Bft) O 82 0 min 0,000 mm 0,0 UV-I 0 W/m 14,9 C 15,7 C 9,7 km/h (2 Bft) 100,00 %
06.06.2016 00:18 15,6 C 95 % 1016,6 hPa 0,0 l/m 3,3 km/h (1 Bft) O 82 0 min 0,000 mm 0,0 UV-I 0 W/m 14,8 C 15,6 C 4,8 km/h (1 Bft) 100,00 %
06.06.2016 00:19 15,6 C 95 % 1016,7 hPa 0,0 l/m 3,9 km/h (1 Bft) O-NO 75 0 min 0,000 mm 0,0 UV-I 0 W/m 14,8 C 15,6 C 4,8 km/h (1 Bft) 100,00 %
06.06.2016 00:20 15,6 C 95 % 1016,8 hPa 0,0 l/m 3,1 km/h (1 Bft) O-NO 74 0 min 0,000 mm 0,0 UV-I 0 W/m 14,8 C 15,6 C 4,8 km/h (1 Bft) 100,00 %
06.06.2016 00:21 15,6 C 95 % 1016,8 hPa 0,0 l/m 3,1 km/h (1 Bft) O-NO 74 0 min 0,000 mm 0,0 UV-I 0 W/m 14,8 C 15,6 C 3,2 km/h (1 Bft) 100,00 %
06.06.2016 00:22 15,6 C 95 % 1016,8 hPa 0,0 l/m 2,7 km/h (1 Bft) O-NO 74 0 min 0,000 mm 0,0 UV-I 0 W/m 14,8 C 15,6 C 3,2 km/h (1 Bft) 100,00 %
06.06.2016 00:23 15,6 C 95 % 1016,8 hPa 0,0 l/m 0,4 km/h (0 Bft) O-NO 74 0 min 0,000 mm 0,0 UV-I 0 W/m 14,8 C 15,6 C 1,6 km/h (1 Bft) 100,00 %
06.06.2016 00:24 15,6 C 95 % 1016,9 hPa 0,0 l/m 0,1 km/h (0 Bft) O-NO 74 0 min 0,000 mm 0,0 UV-I 0 W/m 14,8 C 15,6 C 1,6 km/h (1 Bft) 100,00 %
06.06.2016 00:25 15,6 C 95 % 1016,9 hPa 0,2 l/m 0,0 km/h (0 Bft) O-NO 74 0 min 0,000 mm 0,0 UV-I 0 W/m 14,8 C 15,6 C 0,0 km/h (0 Bft) 100,00 %
06.06.2016 00:26 15,6 C 94 % 1016,9 hPa 0,0 l/m 0,0 km/h (0 Bft) O-NO 74 0 min 0,000 mm 0,0 UV-I 0 W/m 14,6 C 15,6 C 0,0 km/h (0 Bft) 100,00 %
06.06.2016 00:27 15,5 C 94 % 1017,0 hPa 0,0 l/m 0,1 km/h (0 Bft) O-NO 75 0 min 0,000 mm 0,0 UV-I 0 W/m 14,5 C 15,5 C 1,6 km/h (1 Bft) 100,00 %
06.06.2016 00:28 15,4 C 95 % 1017,0 hPa 0,0 l/m 0,1 km/h (0 Bft) O-NO 74 0 min 0,000 mm 0,0 UV-I 0 W/m 14,6 C 15,4 C 1,6 km/h (1 Bft) 100,00 %
06.06.2016 00:29 15,4 C 95 % 1017,0 hPa 0,0 l/m 1,0 km/h (0 Bft) NO 47 0 min 0,000 mm 0,0 UV-I 0 W/m 14,6 C 15,4 C 3,2 km/h (1 Bft) 100,00 %
06.06.2016 00:30 15,4 C 95 % 1017,0 hPa 0,0 l/m 1,4 km/h (1 Bft) NO 47 0 min 0,000 mm 0,0 UV-I 0 W/m 14,6 C 15,4 C 3,2 km/h (1 Bft) 100,00 %
06.06.2016 00:31 15,3 C 95 % 1016,9 hPa 0,0 l/m 0,8 km/h (0 Bft) NO 47 0 min 0,000 mm 0,0 UV-I 0 W/m 14,5 C 15,3 C 1,6 km/h (1 Bft) 100,00 %
06.06.2016 00:32 15,3 C 95 % 1016,9 hPa 0,0 l/m 0,0 km/h (0 Bft) NO 47 0 min 0,000 mm 0,0 UV-I 0 W/m 14,5 C 15,3 C 0,0 km/h (0 Bft) 100,00 %
06.06.2016 00:33 15,4 C 95 % 1016,9 hPa 0,0 l/m 0,0 km/h (0 Bft) NO 47 0 min 0,000 mm 0,0 UV-I 0 W/m 14,6 C 15,4 C 0,0 km/h (0 Bft) 100,00 %
06.06.2016 00:34 15,4 C 96 % 1016,9 hPa 0,0 l/m 0,0 km/h (0 Bft) NO 47 0 min 0,000 mm 0,0 UV-I 0 W/m 14,8 C 15,4 C 0,0 km/h (0 Bft) 100,00 %
06.06.2016 00:35 15,4 C 96 % 1016,9 hPa 0,0 l/m 1,9 km/h (1 Bft) NO 47 0 min 0,000 mm 0,0 UV-I 0 W/m 14,8 C 15,4 C 3,2 km/h (1 Bft) 100,00 %
06.06.2016 00:36 15,4 C 96 % 1016,8 hPa 0,0 l/m 3,0 km/h (1 Bft) NO 48 0 min 0,000 mm 0,0 UV-I 0 W/m 14,8 C 15,4 C 4,8 km/h (1 Bft) 100,00 %
06.06.2016 00:37 15,4 C 96 % 1016,7 hPa 0,0 l/m 3,3 km/h (1 Bft) NO 48 0 min 0,000 mm 0,0 UV-I 0 W/m 14,8 C 15,4 C 4,8 km/h (1 Bft) 100,00 %
06.06.2016 00:38 15,4 C 96 % 1016,7 hPa 0,0 l/m 2,6 km/h (1 Bft) NO 48 0 min 0,000 mm 0,0 UV-I 0 W/m 14,8 C 15,4 C 3,2 km/h (1 Bft) 100,00 %
06.06.2016 00:39 15,4 C 96 % 1016,7 hPa 0,0 l/m 2,3 km/h (1 Bft) NO 48 0 min 0,000 mm 0,0 UV-I 0 W/m 14,8 C 15,4 C 3,2 km/h (1 Bft) 100,00 %
06.06.2016 00:40 15,4 C 96 % 1016,7 hPa 0,0 l/m 1,4 km/h (1 Bft) NO 48 0 min 0,000 mm 0,0 UV-I 0 W/m 14,8 C 15,4 C 1,6 km/h (1 Bft) 100,00 %
06.06.2016 00:41 15,4 C 96 % 1016,7 hPa 0,0 l/m 1,4 km/h (1 Bft) NO 48 0 min 0,000 mm 0,0 UV-I 0 W/m 14,8 C 15,4 C 1,6 km/h (1 Bft) 100,00 %
06.06.2016 00:42 15,4 C 96 % 1016,7 hPa 0,0 l/m 1,9 km/h (1 Bft) NO 48 0 min 0,000 mm 0,0 UV-I 0 W/m 14,8 C 15,4 C 3,2 km/h (1 Bft) 96,30 %
06.06.2016 00:43 15,4 C 96 % 1016,7 hPa 0,0 l/m 2,3 km/h (1 Bft) NO 48 0 min 0,000 mm 0,0 UV-I 0 W/m 14,8 C 15,4 C 3,2 km/h (1 Bft) 100,00 %
06.06.2016 00:44 15,4 C 96 % 1016,7 hPa 0,0 l/m 1,8 km/h (1 Bft) NO 48 0 min 0,000 mm 0,0 UV-I 0 W/m 14,8 C 15,4 C 3,2 km/h (1 Bft) 100,00 %
06.06.2016 00:45 15,4 C 96 % 1016,7 hPa 0,0 l/m 1,8 km/h (1 Bft) NO 48 0 min 0,000 mm 0,0 UV-I 0 W/m 14,8 C 15,4 C 3,2 km/h (1 Bft) 100,00 %
06.06.2016 00:46 15,3 C 96 % 1016,6 hPa 0,0 l/m 2,8 km/h (1 Bft) SO 126 0 min 0,000 mm 0,0 UV-I 0 W/m 14,7 C 15,3 C 4,8 km/h (1 Bft) 100,00 %
06.06.2016 00:47 15,3 C 95 % 1016,7 hPa 0,0 l/m 3,2 km/h (1 Bft) S-SO 150 0 min 0,000 mm 0,0 UV-I 0 W/m 14,5 C 15,3 C 4,8 km/h (1 Bft) 100,00 %
06.06.2016 00:48 15,3 C 96 % 1016,7 hPa 0,0 l/m 3,3 km/h (1 Bft) S-SO 155 0 min 0,000 mm 0,0 UV-I 0 W/m 14,7 C 15,3 C 4,8 km/h (1 Bft) 95,83 %
06.06.2016 00:49 15,3 C 95 % 1016,7 hPa 0,0 l/m 5,2 km/h (1 Bft) S-SO 164 0 min 0,000 mm 0,0 UV-I 0 W/m 14,5 C 15,3 C 6,4 km/h (2 Bft) 100,00 %
06.06.2016 00:50 15,3 C 96 % 1016,7 hPa 0,0 l/m 4,8 km/h (1 Bft) S 172 0 min 0,000 mm 0,0 UV-I 0 W/m 14,7 C 15,3 C 6,4 km/h (2 Bft) 96,88 %
06.06.2016 00:51 15,3 C 96 % 1016,6 hPa 0,0 l/m 4,2 km/h (1 Bft) S-SW 199 0 min 0,000 mm 0,0 UV-I 0 W/m 14,7 C 15,3 C 4,8 km/h (1 Bft) 100,00 %
06.06.2016 00:52 15,3 C 95 % 1016,6 hPa 0,0 l/m 4,0 km/h (1 Bft) S-SW 196 0 min 0,000 mm 0,0 UV-I 0 W/m 14,5 C 15,3 C 6,4 km/h (2 Bft) 96,15 %
06.06.2016 00:53 15,2 C 95 % 1016,6 hPa 0,0 l/m 3,1 km/h (1 Bft) S-SW 199 0 min 0,000 mm 0,0 UV-I 0 W/m 14,4 C 15,2 C 4,8 km/h (1 Bft) 100,00 %
06.06.2016 00:54 15,2 C 95 % 1016,6 hPa 0,0 l/m 2,8 km/h (1 Bft) S-SW 200 0 min 0,000 mm 0,0 UV-I 0 W/m 14,4 C 15,2 C 4,8 km/h (1 Bft) 91,30 %
06.06.2016 00:55 15,2 C 95 % 1016,6 hPa 0,0 l/m 3,5 km/h (1 Bft) SW 214 0 min 0,000 mm 0,0 UV-I 0 W/m 14,4 C 15,2 C 4,8 km/h (1 Bft) 95,83 %
06.06.2016 00:56 15,1 C 95 % 1016,5 hPa 0,0 l/m 3,5 km/h (1 Bft) SW 225 0 min 0,000 mm 0,0 UV-I 0 W/m 14,3 C 15,1 C 4,8 km/h (1 Bft) 100,00 %
06.06.2016 00:57 15,1 C 95 % 1016,5 hPa 0,0 l/m 3,7 km/h (1 Bft) W-SW 252 0 min 0,000 mm 0,0 UV-I 0 W/m 14,3 C 15,1 C 6,4 km/h (2 Bft) 92,59 %
06.06.2016 00:58 15,1 C 95 % 1016,5 hPa 0,0 l/m 4,0 km/h (1 Bft) W-SW 256 0 min 0,000 mm 0,0 UV-I 0 W/m 14,3 C 15,1 C 4,8 km/h (1 Bft) 100,00 %
06.06.2016 00:59 15,1 C 95 % 1016,6 hPa 0,0 l/m 3,7 km/h (1 Bft) W-NW 287 0 min 0,000 mm 0,0 UV-I 0 W/m 14,3 C 15,1 C 4,8 km/h (1 Bft) 96,30 %
06.06.2016 01:00 15,1 C 95 % 1016,6 hPa 0,0 l/m 1,7 km/h (1 Bft) W-NW 286 0 min 0,000 mm 0,0 UV-I 0 W/m 14,3 C 15,1 C 4,8 km/h (1 Bft) 93,10 %
06.06.2016 01:01 15,0 C 95 % 1016,6 hPa 0,0 l/m 1,3 km/h (1 Bft) W-SW 237 0 min 0,000 mm 0,0 UV-I 0 W/m 14,2 C 15,0 C 4,8 km/h (1 Bft) 96,30 %
06.06.2016 01:02 14,9 C 95 % 1016,6 hPa 0,0 l/m 1,5 km/h (1 Bft) W-SW 237 0 min 0,000 mm 0,0 UV-I 0 W/m 14,1 C 14,9 C 3,2 km/h (1 Bft) 95,65 %
06.06.2016 01:03 14,9 C 95 % 1016,6 hPa 0,0 l/m 2,2 km/h (1 Bft) SW 221 0 min 0,000 mm 0,0 UV-I 0 W/m 14,1 C 14,9 C 4,8 km/h (1 Bft) 100,00 %
06.06.2016 01:04 14,9 C 95 % 1016,7 hPa 0,0 l/m 3,2 km/h (1 Bft) SW 221 0 min 0,000 mm 0,0 UV-I 0 W/m 14,1 C 14,9 C 4,8 km/h (1 Bft) 92,86 %
06.06.2016 01:05 14,8 C 95 % 1016,7 hPa 0,0 l/m 0,7 km/h (0 Bft) SW 221 0 min 0,000 mm 0,0 UV-I 0 W/m 14,0 C 14,8 C 1,6 km/h (1 Bft) 100,00 %
06.06.2016 01:06 14,8 C 95 % 1016,7 hPa 0,0 l/m 0,2 km/h (0 Bft) SW 221 0 min 0,000 mm 0,0 UV-I 0 W/m 14,0 C 14,8 C 1,6 km/h (1 Bft) 91,30 %
06.06.2016 01:07 14,8 C 95 % 1016,7 hPa 0,0 l/m 0,0 km/h (0 Bft) SW 221 0 min 0,000 mm 0,0 UV-I 0 W/m 14,0 C 14,8 C 0,0 km/h (0 Bft) 100,00 %
06.06.2016 01:08 14,8 C 95 % 1016,7 hPa 0,0 l/m 0,2 km/h (0 Bft) SW 221 0 min 0,000 mm 0,0 UV-I 0 W/m 14,0 C 14,8 C 1,6 km/h (1 Bft) 95,65 %
06.06.2016 01:09 14,7 C 95 % 1016,7 hPa 0,0 l/m 0,8 km/h (0 Bft) SW 221 0 min 0,000 mm 0,0 UV-I 0 W/m 13,9 C 14,7 C 3,2 km/h (1 Bft) 95,83 %
06.06.2016 01:10 14,7 C 95 % 1016,7 hPa 0,0 l/m 0,8 km/h (0 Bft) SW 221 0 min 0,000 mm 0,0 UV-I 0 W/m 13,9 C 14,7 C 1,6 km/h (1 Bft) 100,00 %
06.06.2016 01:11 14,6 C 95 % 1016,7 hPa 0,0 l/m 0,0 km/h (0 Bft) SW 221 0 min 0,000 mm 0,0 UV-I 0 W/m 13,8 C 14,6 C 0,0 km/h (0 Bft) 96,15 %
06.06.2016 01:12 14,6 C 95 % 1016,7 hPa 0,0 l/m 0,1 km/h (0 Bft) SW 221 0 min 0,000 mm 0,0 UV-I 0 W/m 13,8 C 14,6 C 1,6 km/h (1 Bft) 100,00 %
06.06.2016 01:13 14,6 C 95 % 1016,7 hPa 0,0 l/m 0,0 km/h (0 Bft) SW 221 0 min 0,000 mm 0,0 UV-I 0 W/m 13,8 C 14,6 C 0,0 km/h (0 Bft) 95,65 %
06.06.2016 01:14 14,5 C 95 % 1016,7 hPa 0,0 l/m 0,0 km/h (0 Bft) SW 221 0 min 0,000 mm 0,0 UV-I 0 W/m 13,7 C 14,5 C 0,0 km/h (0 Bft) 100,00 %
06.06.2016 01:15 14,5 C 95 % 1016,7 hPa 0,0 l/m 0,1 km/h (0 Bft) SW 221 0 min 0,000 mm 0,0 UV-I 0 W/m 13,7 C 14,5 C 1,6 km/h (1 Bft) 95,65 %
06.06.2016 01:16 14,5 C 95 % 1016,8 hPa 0,0 l/m 0,6 km/h (0 Bft) SW 221 0 min 0,000 mm 0,0 UV-I 0 W/m 13,7 C 14,5 C 1,6 km/h (1 Bft) 100,00 %
06.06.2016 01:17 14,4 C 95 % 1016,8 hPa 0,0 l/m 0,2 km/h (0 Bft) SW 221 0 min 0,000 mm 0,0 UV-I 0 W/m 13,6 C 14,4 C 1,6 km/h (1 Bft) 96,15 %
06.06.2016 01:18 14,4 C 95 % 1016,8 hPa 0,0 l/m 0,8 km/h (0 Bft) SW 221 0 min 0,000 mm 0,0 UV-I 0 W/m 13,6 C 14,4 C 1,6 km/h (1 Bft) 91,67 %
06.06.2016 01:19 14,4 C 95 % 1016,8 hPa 0,0 l/m 0,1 km/h (0 Bft) SW 221 0 min 0,000 mm 0,0 UV-I 0 W/m 13,6 C 14,4 C 1,6 km/h (1 Bft) 96,43 %
06.06.2016 01:20 14,3 C 95 % 1016,8 hPa 0,0 l/m 0,4 km/h (0 Bft) SW 221 0 min 0,000 mm 0,0 UV-I 0 W/m 13,5 C 14,3 C 1,6 km/h (1 Bft) 95,83 %
06.06.2016 01:21 14,3 C 95 % 1016,8 hPa 0,0 l/m 1,1 km/h (1 Bft) SW 221 0 min 0,000 mm 0,0 UV-I 0 W/m 13,5 C 14,3 C 3,2 km/h (1 Bft) 100,00 %
06.06.2016 01:22 14,3 C 95 % 1016,7 hPa 0,0 l/m 1,1 km/h (1 Bft) SW 221 0 min 0,000 mm 0,0 UV-I 0 W/m 13,5 C 14,3 C 1,6 km/h (1 Bft) 100,00 %
06.06.2016 01:23 14,3 C 95 % 1016,7 hPa 0,0 l/m 1,7 km/h (1 Bft) SW 221 0 min 0,000 mm 0,0 UV-I 0 W/m 13,5 C 14,3 C 3,2 km/h (1 Bft) 98,59 %
06.06.2016 01:24 14,3 C 95 % 1016,8 hPa 0,0 l/m 1,4 km/h (1 Bft) SW 221 0 min 0,000 mm 0,0 UV-I 0 W/m 13,5 C 14,3 C 3,2 km/h (1 Bft) 100,00 %
06.06.2016 01:25 14,3 C 95 % 1016,7 hPa 0,0 l/m 0,6 km/h (0 Bft) SW 221 0 min 0,000 mm 0,0 UV-I 0 W/m 13,5 C 14,3 C 1,6 km/h (1 Bft) 100,00 %
06.06.2016 01:26 14,3 C 95 % 1016,7 hPa 0,0 l/m 0,0 km/h (0 Bft) SW 221 0 min 0,000 mm 0,0 UV-I 0 W/m 13,5 C 14,3 C 0,0 km/h (0 Bft) 100,00 %
06.06.2016 01:27 14,3 C 95 % 1016,8 hPa 0,0 l/m 0,0 km/h (0 Bft) SW 221 0 min 0,000 mm 0,0 UV-I 0 W/m 13,5 C 14,3 C 0,0 km/h (0 Bft) 91,30 %
06.06.2016 01:28 14,3 C 95 % 1016,8 hPa 0,0 l/m 0,0 km/h (0 Bft) SW 221 0 min 0,000 mm 0,0 UV-I 0 W/m 13,5 C 14,3 C 0,0 km/h (0 Bft) 95,83 %
06.06.2016 01:29 14,2 C 95 % 1016,8 hPa 0,0 l/m 0,4 km/h (0 Bft) SW 221 0 min 0,000 mm 0,0 UV-I 0 W/m 13,4 C 14,2 C 1,6 km/h (1 Bft) 96,15 %
06.06.2016 01:30 14,2 C 95 % 1016,7 hPa 0,0 l/m 1,0 km/h (0 Bft) SW 221 0 min 0,000 mm 0,0 UV-I 0 W/m 13,4 C 14,2 C 1,6 km/h (1 Bft) 100,00 %
06.06.2016 01:31 14,2 C 95 % 1016,7 hPa 0,0 l/m 1,1 km/h (1 Bft) SW 221 0 min 0,000 mm 0,0 UV-I 0 W/m 13,4 C 14,2 C 3,2 km/h (1 Bft) 95,65 %
06.06.2016 01:32 14,2 C 95 % 1016,8 hPa 0,0 l/m 1,3 km/h (1 Bft) SW 221 0 min 0,000 mm 0,0 UV-I 0 W/m 13,4 C 14,2 C 1,6 km/h (1 Bft) 100,00 %
06.06.2016 01:33 14,2 C 95 % 1016,8 hPa 0,0 l/m 2,0 km/h (1 Bft) SW 221 0 min 0,000 mm 0,0 UV-I 0 W/m 13,4 C 14,2 C 4,8 km/h (1 Bft) 98,51 %
06.06.2016 01:34 14,2 C 95 % 1016,8 hPa 0,0 l/m 1,8 km/h (1 Bft) SW 221 0 min 0,000 mm 0,0 UV-I 0 W/m 13,4 C 14,2 C 3,2 km/h (1 Bft) 100,00 %
06.06.2016 01:35 14,2 C 95 % 1016,8 hPa 0,0 l/m 1,1 km/h (1 Bft) SW 221 0 min 0,000 mm 0,0 UV-I 0 W/m 13,4 C 14,2 C 1,6 km/h (1 Bft) 100,00 %
06.06.2016 01:36 14,2 C 95 % 1016,8 hPa 0,0 l/m 0,4 km/h (0 Bft) SW 221 0 min 0,000 mm 0,0 UV-I 0 W/m 13,4 C 14,2 C 1,6 km/h (1 Bft) 95,65 %
06.06.2016 01:37 14,2 C 95 % 1016,7 hPa 0,0 l/m 1,4 km/h (1 Bft) SW 221 0 min 0,000 mm 0,0 UV-I 0 W/m 13,4 C 14,2 C 1,6 km/h (1 Bft) 100,00 %
06.06.2016 01:38 14,2 C 95 % 1016,8 hPa 0,0 l/m 1,7 km/h (1 Bft) SW 221 0 min 0,000 mm 0,0 UV-I 0 W/m 13,4 C 14,2 C 3,2 km/h (1 Bft) 100,00 %
06.06.2016 01:39 14,2 C 95 % 1016,8 hPa 0,0 l/m 3,2 km/h (1 Bft) S-SW 209 0 min 0,000 mm 0,0 UV-I 0 W/m 13,4 C 14,2 C 4,8 km/h (1 Bft) 100,00 %
06.06.2016 01:40 14,2 C 95 % 1016,7 hPa 0,0 l/m 3,5 km/h (1 Bft) S-SW 205 0 min 0,000 mm 0,0 UV-I 0 W/m 13,4 C 14,2 C 4,8 km/h (1 Bft) 100,00 %
06.06.2016 01:41 14,2 C 95 % 1016,7 hPa 0,0 l/m 3,2 km/h (1 Bft) S-SW 204 0 min 0,000 mm 0,0 UV-I 0 W/m 13,4 C 14,2 C 6,4 km/h (2 Bft) 100,00 %
06.06.2016 01:42 14,2 C 95 % 1016,7 hPa 0,0 l/m 4,7 km/h (1 Bft) S-SW 198 0 min 0,000 mm 0,0 UV-I 0 W/m 13,4 C 14,2 C 6,4 km/h (2 Bft) 100,00 %
06.06.2016 01:43 14,2 C 95 % 1016,7 hPa 0,0 l/m 5,0 km/h (1 Bft) S-SW 198 0 min 0,000 mm 0,0 UV-I 0 W/m 13,4 C 14,2 C 6,4 km/h (2 Bft) 95,83 %
06.06.2016 01:44 14,2 C 95 % 1016,7 hPa 0,0 l/m 5,0 km/h (1 Bft) S-SW 198 0 min 0,000 mm 0,0 UV-I 0 W/m 13,4 C 14,2 C 6,4 km/h (2 Bft) 98,59 %
06.06.2016 01:45 14,2 C 95 % 1016,7 hPa 0,0 l/m 4,6 km/h (1 Bft) S-SW 201 0 min 0,000 mm 0,0 UV-I 0 W/m 13,4 C 14,2 C 6,4 km/h (2 Bft) 100,00 %
06.06.2016 01:46 14,2 C 95 % 1016,7 hPa 0,0 l/m 5,2 km/h (1 Bft) S-SW 196 0 min 0,000 mm 0,0 UV-I 0 W/m 13,4 C 14,2 C 6,4 km/h (2 Bft) 100,00 %
06.06.2016 01:47 14,2 C 95 % 1016,7 hPa 0,0 l/m 2,9 km/h (1 Bft) S 186 0 min 0,000 mm 0,0 UV-I 0 W/m 13,4 C 14,2 C 4,8 km/h (1 Bft) 95,83 %
06.06.2016 01:48 14,2 C 95 % 1016,7 hPa 0,0 l/m 3,9 km/h (1 Bft) S 182 0 min 0,000 mm 0,0 UV-I 0 W/m 13,4 C 14,2 C 4,8 km/h (1 Bft) 100,00 %
06.06.2016 01:49 14,2 C 95 % 1016,7 hPa 0,0 l/m 2,4 km/h (1 Bft) S 180 0 min 0,000 mm 0,0 UV-I 0 W/m 13,4 C 14,2 C 3,2 km/h (1 Bft) 100,00 %
06.06.2016 01:50 14,2 C 95 % 1016,7 hPa 0,0 l/m 4,1 km/h (1 Bft) S-SW 193 0 min 0,000 mm 0,0 UV-I 0 W/m 13,4 C 14,2 C 4,8 km/h (1 Bft) 100,00 %
06.06.2016 01:51 14,2 C 95 % 1016,7 hPa 0,0 l/m 4,2 km/h (1 Bft) SW 219 0 min 0,000 mm 0,0 UV-I 0 W/m 13,4 C 14,2 C 6,4 km/h (2 Bft) 96,55 %
06.06.2016 01:52 14,2 C 95 % 1016,7 hPa 0,0 l/m 3,8 km/h (1 Bft) SW 219 0 min 0,000 mm 0,0 UV-I 0 W/m 13,4 C 14,2 C 4,8 km/h (1 Bft) 100,00 %
06.06.2016 01:53 14,2 C 94 % 1016,7 hPa 0,0 l/m 4,4 km/h (1 Bft) SW 215 0 min 0,000 mm 0,0 UV-I 0 W/m 13,2 C 14,2 C 6,4 km/h (2 Bft) 100,00 %
06.06.2016 01:54 14,1 C 94 % 1016,7 hPa 0,0 l/m 2,9 km/h (1 Bft) SW 221 0 min 0,000 mm 0,0 UV-I 0 W/m 13,1 C 14,1 C 4,8 km/h (1 Bft) 100,00 %
06.06.2016 01:55 14,2 C 94 % 1016,7 hPa 0,0 l/m 3,3 km/h (1 Bft) SW 217 0 min 0,000 mm 0,0 UV-I 0 W/m 13,2 C 14,2 C 4,8 km/h (1 Bft) 100,00 %
06.06.2016 01:56 14,1 C 94 % 1016,7 hPa 0,0 l/m 3,4 km/h (1 Bft) SW 220 0 min 0,000 mm 0,0 UV-I 0 W/m 13,1 C 14,1 C 4,8 km/h (1 Bft) 100,00 %
06.06.2016 01:57 14,1 C 94 % 1016,7 hPa 0,0 l/m 5,0 km/h (1 Bft) S-SW 198 0 min 0,000 mm 0,0 UV-I 0 W/m 13,1 C 14,1 C 6,4 km/h (2 Bft) 100,00 %
06.06.2016 01:58 14,1 C 94 % 1016,7 hPa 0,0 l/m 3,9 km/h (1 Bft) S-SW 206 0 min 0,000 mm 0,0 UV-I 0 W/m 13,1 C 14,1 C 6,4 km/h (2 Bft) 100,00 %
06.06.2016 01:59 14,1 C 94 % 1016,7 hPa 0,0 l/m 3,3 km/h (1 Bft) SW 228 0 min 0,000 mm 0,0 UV-I 0 W/m 13,1 C 14,1 C 4,8 km/h (1 Bft) 100,00 %
06.06.2016 02:00 14,1 C 94 % 1016,8 hPa 0,0 l/m 3,8 km/h (1 Bft) SW 218 0 min 0,000 mm 0,0 UV-I 0 W/m 13,1 C 14,1 C 6,4 km/h (2 Bft) 96,30 %
06.06.2016 02:02 14,1 C 94 % 1016,8 hPa 0,0 l/m 6,2 km/h (2 Bft) S-SW 207 0 min 0,000 mm 0,0 UV-I 0 W/m 13,1 C 14,1 C 9,7 km/h (2 Bft) 100,00 %
06.06.2016 02:03 14,1 C 94 % 1016,7 hPa 0,0 l/m 3,5 km/h (1 Bft) S 188 0 min 0,000 mm 0,0 UV-I 0 W/m 13,1 C 14,1 C 6,4 km/h (2 Bft) 100,00 %
06.06.2016 02:04 14,1 C 94 % 1016,8 hPa 0,0 l/m 5,8 km/h (2 Bft) S 191 0 min 0,000 mm 0,0 UV-I 0 W/m 13,1 C 14,1 C 8,0 km/h (2 Bft) 98,72 %
06.06.2016 02:05 14,1 C 94 % 1016,8 hPa 0,0 l/m 5,5 km/h (1 Bft) S 184 0 min 0,000 mm 0,0 UV-I 0 W/m 13,1 C 14,1 C 6,4 km/h (2 Bft) 97,73 %
06.06.2016 02:06 14,1 C 94 % 1016,8 hPa 0,0 l/m 7,1 km/h (2 Bft) SW 215 0 min 0,000 mm 0,0 UV-I 0 W/m 13,1 C 13,7 C 11,3 km/h (2 Bft) 100,00 %
06.06.2016 02:07 14,1 C 94 % 1016,8 hPa 0,0 l/m 6,2 km/h (2 Bft) S-SW 202 0 min 0,000 mm 0,0 UV-I 0 W/m 13,1 C 14,1 C 9,7 km/h (2 Bft) 95,65 %
06.06.2016 02:08 14,1 C 94 % 1016,7 hPa 0,0 l/m 3,7 km/h (1 Bft) SW 226 0 min 0,000 mm 0,0 UV-I 0 W/m 13,1 C 14,1 C 6,4 km/h (2 Bft) 100,00 %
06.06.2016 02:09 14,1 C 94 % 1016,8 hPa 0,0 l/m 4,2 km/h (1 Bft) S-SW 210 0 min 0,000 mm 0,0 UV-I 0 W/m 13,1 C 14,1 C 6,4 km/h (2 Bft) 100,00 %
06.06.2016 02:10 14,1 C 94 % 1016,8 hPa 0,0 l/m 4,4 km/h (1 Bft) SW 226 0 min 0,000 mm 0,0 UV-I 0 W/m 13,1 C 14,1 C 6,4 km/h (2 Bft) 100,00 %
06.06.2016 02:11 14,1 C 94 % 1016,8 hPa 0,0 l/m 4,3 km/h (1 Bft) SW 226 0 min 0,000 mm 0,0 UV-I 0 W/m 13,1 C 14,1 C 6,4 km/h (2 Bft) 100,00 %
06.06.2016 02:12 14,1 C 94 % 1016,8 hPa 0,0 l/m 3,4 km/h (1 Bft) SW 225 0 min 0,000 mm 0,0 UV-I 0 W/m 13,1 C 14,1 C 4,8 km/h (1 Bft) 95,65 %
06.06.2016 02:13 14,1 C 94 % 1016,8 hPa 0,0 l/m 4,0 km/h (1 Bft) SW 228 0 min 0,000 mm 0,0 UV-I 0 W/m 13,1 C 14,1 C 4,8 km/h (1 Bft) 100,00 %
06.06.2016 02:14 14,1 C 94 % 1016,9 hPa 0,0 l/m 5,6 km/h (1 Bft) SW 234 0 min 0,000 mm 0,0 UV-I 0 W/m 13,1 C 14,1 C 6,4 km/h (2 Bft) 100,00 %
06.06.2016 02:15 14,1 C 94 % 1016,8 hPa 0,0 l/m 4,6 km/h (1 Bft) SW 225 0 min 0,000 mm 0,0 UV-I 0 W/m 13,1 C 14,1 C 6,4 km/h (2 Bft) 100,00 %
06.06.2016 02:16 14,0 C 94 % 1016,8 hPa 0,0 l/m 2,7 km/h (1 Bft) SW 225 0 min 0,000 mm 0,0 UV-I 0 W/m 13,0 C 14,0 C 3,2 km/h (1 Bft) 95,65 %
06.06.2016 02:17 14,0 C 94 % 1016,8 hPa 0,0 l/m 4,3 km/h (1 Bft) S-SW 207 0 min 0,000 mm 0,0 UV-I 0 W/m 13,0 C 14,0 C 6,4 km/h (2 Bft) 100,00 %
06.06.2016 02:18 14,0 C 94 % 1016,8 hPa 0,0 l/m 3,8 km/h (1 Bft) SW 221 0 min 0,000 mm 0,0 UV-I 0 W/m 13,0 C 14,0 C 4,8 km/h (1 Bft) 100,00 %
06.06.2016 02:19 14,0 C 94 % 1016,8 hPa 0,0 l/m 5,2 km/h (1 Bft) SW 223 0 min 0,000 mm 0,0 UV-I 0 W/m 13,0 C 14,0 C 6,4 km/h (2 Bft) 100,00 %
06.06.2016 02:20 14,0 C 94 % 1016,7 hPa 0,0 l/m 5,0 km/h (1 Bft) SW 225 0 min 0,000 mm 0,0 UV-I 0 W/m 13,0 C 14,0 C 6,4 km/h (2 Bft) 100,00 %
06.06.2016 02:21 14,0 C 94 % 1016,7 hPa 0,0 l/m 5,4 km/h (1 Bft) SW 233 0 min 0,000 mm 0,0 UV-I 0 W/m 13,0 C 14,0 C 6,4 km/h (2 Bft) 100,00 %
06.06.2016 02:22 14,0 C 94 % 1016,6 hPa 0,0 l/m 4,5 km/h (1 Bft) SW 229 0 min 0,000 mm 0,0 UV-I 0 W/m 13,0 C 14,0 C 6,4 km/h (2 Bft) 100,00 %
06.06.2016 02:23 13,9 C 94 % 1016,6 hPa 0,0 l/m 4,4 km/h (1 Bft) SW 215 0 min 0,000 mm 0,0 UV-I 0 W/m 12,9 C 13,9 C 6,4 km/h (2 Bft) 100,00 %
06.06.2016 02:24 13,9 C 95 % 1016,6 hPa 0,0 l/m 4,4 km/h (1 Bft) SW 217 0 min 0,000 mm 0,0 UV-I 0 W/m 13,1 C 13,9 C 6,4 km/h (2 Bft) 100,00 %
06.06.2016 02:25 13,9 C 95 % 1016,5 hPa 0,0 l/m 4,8 km/h (1 Bft) SW 232 0 min 0,000 mm 0,0 UV-I 0 W/m 13,1 C 13,9 C 6,4 km/h (2 Bft) 96,15 %
06.06.2016 02:26 13,9 C 95 % 1016,6 hPa 0,0 l/m 4,4 km/h (1 Bft) SW 231 0 min 0,000 mm 0,0 UV-I 0 W/m 13,1 C 13,9 C 6,4 km/h (2 Bft) 100,00 %
06.06.2016 02:27 13,9 C 95 % 1016,6 hPa 0,0 l/m 4,5 km/h (1 Bft) S-SW 202 0 min 0,000 mm 0,0 UV-I 0 W/m 13,1 C 13,9 C 6,4 km/h (2 Bft) 100,00 %
06.06.2016 02:28 13,9 C 95 % 1016,6 hPa 0,0 l/m 4,8 km/h (1 Bft) S-SW 197 0 min 0,000 mm 0,0 UV-I 0 W/m 13,1 C 13,9 C 6,4 km/h (2 Bft) 100,00 %
06.06.2016 02:29 13,9 C 95 % 1016,6 hPa 0,0 l/m 5,0 km/h (1 Bft) S-SW 198 0 min 0,000 mm 0,0 UV-I 0 W/m 13,1 C 13,9 C 6,4 km/h (2 Bft) 100,00 %
06.06.2016 02:30 13,9 C 95 % 1016,6 hPa 0,0 l/m 5,6 km/h (1 Bft) S-SW 211 0 min 0,000 mm 0,0 UV-I 0 W/m 13,1 C 13,9 C 6,4 km/h (2 Bft) 100,00 %
06.06.2016 02:31 13,9 C 94 % 1016,6 hPa 0,0 l/m 4,8 km/h (1 Bft) S 189 0 min 0,000 mm 0,0 UV-I 0 W/m 12,9 C 13,9 C 6,4 km/h (2 Bft) 100,00 %
06.06.2016 02:32 13,9 C 94 % 1016,6 hPa 0,0 l/m 5,1 km/h (1 Bft) SW 224 0 min 0,000 mm 0,0 UV-I 0 W/m 12,9 C 13,9 C 6,4 km/h (2 Bft) 100,00 %
06.06.2016 02:33 13,8 C 94 % 1016,6 hPa 0,0 l/m 4,2 km/h (1 Bft) SW 215 0 min 0,000 mm 0,0 UV-I 0 W/m 12,9 C 13,8 C 6,4 km/h (2 Bft) 100,00 %
06.06.2016 02:34 13,9 C 94 % 1016,5 hPa 0,0 l/m 5,3 km/h (1 Bft) SW 220 0 min 0,000 mm 0,0 UV-I 0 W/m 12,9 C 13,9 C 6,4 km/h (2 Bft) 100,00 %
06.06.2016 02:35 13,8 C 94 % 1016,5 hPa 0,0 l/m 4,7 km/h (1 Bft) SW 221 0 min 0,000 mm 0,0 UV-I 0 W/m 12,9 C 13,8 C 6,4 km/h (2 Bft) 100,00 %
06.06.2016 02:36 13,8 C 94 % 1016,5 hPa 0,0 l/m 5,1 km/h (1 Bft) S-SW 193 0 min 0,000 mm 0,0 UV-I 0 W/m 12,9 C 13,8 C 8,0 km/h (2 Bft) 100,00 %
06.06.2016 02:37 13,8 C 94 % 1016,5 hPa 0,0 l/m 5,1 km/h (1 Bft) S-SW 209 0 min 0,000 mm 0,0 UV-I 0 W/m 12,9 C 13,8 C 6,4 km/h (2 Bft) 100,00 %
06.06.2016 02:38 13,8 C 94 % 1016,5 hPa 0,0 l/m 5,7 km/h (1 Bft) S-SW 202 0 min 0,000 mm 0,0 UV-I 0 W/m 12,9 C 13,8 C 8,0 km/h (2 Bft) 100,00 %
06.06.2016 02:39 13,8 C 94 % 1016,5 hPa 0,0 l/m 5,4 km/h (1 Bft) S-SW 207 0 min 0,000 mm 0,0 UV-I 0 W/m 12,9 C 13,8 C 8,0 km/h (2 Bft) 95,65 %
06.06.2016 02:40 13,8 C 94 % 1016,5 hPa 0,0 l/m 4,9 km/h (1 Bft) S-SW 209 0 min 0,000 mm 0,0 UV-I 0 W/m 12,9 C 13,8 C 6,4 km/h (2 Bft) 100,00 %
06.06.2016 02:41 13,8 C 94 % 1016,6 hPa 0,0 l/m 4,7 km/h (1 Bft) S-SW 196 0 min 0,000 mm 0,0 UV-I 0 W/m 12,9 C 13,8 C 6,4 km/h (2 Bft) 100,00 %
06.06.2016 02:42 13,8 C 94 % 1016,5 hPa 0,0 l/m 4,2 km/h (1 Bft) SW 222 0 min 0,000 mm 0,0 UV-I 0 W/m 12,9 C 13,8 C 6,4 km/h (2 Bft) 100,00 %
06.06.2016 02:43 13,8 C 94 % 1016,6 hPa 0,0 l/m 4,1 km/h (1 Bft) SW 222 0 min 0,000 mm 0,0 UV-I 0 W/m 12,9 C 13,8 C 6,4 km/h (2 Bft) 100,00 %
06.06.2016 02:44 13,8 C 94 % 1016,5 hPa 0,0 l/m 5,0 km/h (1 Bft) SW 223 0 min 0,000 mm 0,0 UV-I 0 W/m 12,9 C 13,8 C 6,4 km/h (2 Bft) 100,00 %
06.06.2016 02:45 13,8 C 94 % 1016,5 hPa 0,0 l/m 4,7 km/h (1 Bft) SW 225 0 min 0,000 mm 0,0 UV-I 0 W/m 12,9 C 13,8 C 6,4 km/h (2 Bft) 100,00 %
06.06.2016 02:46 13,8 C 94 % 1016,5 hPa 0,0 l/m 4,3 km/h (1 Bft) SW 225 0 min 0,000 mm 0,0 UV-I 0 W/m 12,9 C 13,8 C 4,8 km/h (1 Bft) 96,15 %
06.06.2016 02:47 13,8 C 94 % 1016,5 hPa 0,0 l/m 2,3 km/h (1 Bft) SW 225 0 min 0,000 mm 0,0 UV-I 0 W/m 12,9 C 13,8 C 3,2 km/h (1 Bft) 100,00 %
06.06.2016 02:48 13,8 C 94 % 1016,6 hPa 0,0 l/m 1,5 km/h (1 Bft) SW 225 0 min 0,000 mm 0,0 UV-I 0 W/m 12,9 C 13,8 C 3,2 km/h (1 Bft) 95,83 %
06.06.2016 02:49 13,7 C 94 % 1016,5 hPa 0,0 l/m 2,3 km/h (1 Bft) SW 225 0 min 0,000 mm 0,0 UV-I 0 W/m 12,8 C 13,7 C 3,2 km/h (1 Bft) 100,00 %
06.06.2016 02:50 13,7 C 94 % 1016,6 hPa 0,0 l/m 1,2 km/h (1 Bft) SW 225 0 min 0,000 mm 0,0 UV-I 0 W/m 12,8 C 13,7 C 1,6 km/h (1 Bft) 96,15 %
06.06.2016 02:51 13,7 C 94 % 1016,6 hPa 0,0 l/m 1,5 km/h (1 Bft) SW 225 0 min 0,000 mm 0,0 UV-I 0 W/m 12,8 C 13,7 C 1,6 km/h (1 Bft) 95,83 %
06.06.2016 02:52 13,7 C 94 % 1016,6 hPa 0,0 l/m 1,8 km/h (1 Bft) SW 225 0 min 0,000 mm 0,0 UV-I 0 W/m 12,8 C 13,7 C 3,2 km/h (1 Bft) 100,00 %
06.06.2016 02:53 13,6 C 94 % 1016,6 hPa 0,0 l/m 1,8 km/h (1 Bft) SW 225 0 min 0,000 mm 0,0 UV-I 0 W/m 12,7 C 13,6 C 3,2 km/h (1 Bft) 100,00 %
06.06.2016 02:54 13,6 C 94 % 1016,6 hPa 0,0 l/m 1,8 km/h (1 Bft) SW 225 0 min 0,000 mm 0,0 UV-I 0 W/m 12,7 C 13,6 C 3,2 km/h (1 Bft) 91,30 %
06.06.2016 02:55 13,6 C 94 % 1016,6 hPa 0,0 l/m 1,6 km/h (1 Bft) SW 225 0 min 0,000 mm 0,0 UV-I 0 W/m 12,7 C 13,6 C 3,2 km/h (1 Bft) 95,83 %
06.06.2016 02:56 13,6 C 94 % 1016,6 hPa 0,0 l/m 0,6 km/h (0 Bft) SW 225 0 min 0,000 mm 0,0 UV-I 0 W/m 12,7 C 13,6 C 1,6 km/h (1 Bft) 100,00 %
06.06.2016 02:57 13,6 C 94 % 1016,6 hPa 0,0 l/m 0,2 km/h (0 Bft) SW 225 0 min 0,000 mm 0,0 UV-I 0 W/m 12,7 C 13,6 C 1,6 km/h (1 Bft) 95,83 %
06.06.2016 02:58 13,6 C 95 % 1016,7 hPa 0,0 l/m 0,1 km/h (0 Bft) SW 225 0 min 0,000 mm 0,0 UV-I 0 W/m 12,8 C 13,6 C 1,6 km/h (1 Bft) 100,00 %
06.06.2016 02:59 13,5 C 95 % 1016,7 hPa 0,0 l/m 0,0 km/h (0 Bft) SW 225 0 min 0,000 mm 0,0 UV-I 0 W/m 12,7 C 13,5 C 0,0 km/h (0 Bft) 95,83 %
06.06.2016 03:00 13,5 C 95 % 1016,7 hPa 0,0 l/m 0,0 km/h (0 Bft) SW 225 0 min 0,000 mm 0,0 UV-I 0 W/m 12,7 C 13,5 C 0,0 km/h (0 Bft) 86,96 %
06.06.2016 03:01 13,5 C 95 % 1016,6 hPa 0,0 l/m 0,0 km/h (0 Bft) SW 225 0 min 0,000 mm 0,0 UV-I 0 W/m 12,7 C 13,5 C 0,0 km/h (0 Bft) 95,83 %
06.06.2016 03:02 13,5 C 95 % 1016,6 hPa 0,0 l/m 0,0 km/h (0 Bft) SW 225 0 min 0,000 mm 0,0 UV-I 0 W/m 12,7 C 13,5 C 0,0 km/h (0 Bft) 96,15 %
06.06.2016 03:03 13,4 C 95 % 1016,6 hPa 0,0 l/m 0,2 km/h (0 Bft) SW 225 0 min 0,000 mm 0,0 UV-I 0 W/m 12,6 C 13,4 C 1,6 km/h (1 Bft) 100,00 %
06.06.2016 03:04 13,5 C 95 % 1016,6 hPa 0,0 l/m 1,1 km/h (1 Bft) SW 225 0 min 0,000 mm 0,0 UV-I 0 W/m 12,7 C 13,5 C 1,6 km/h (1 Bft) 96,30 %
06.06.2016 03:05 13,5 C 95 % 1016,6 hPa 0,0 l/m 1,5 km/h (1 Bft) SW 225 0 min 0,000 mm 0,0 UV-I 0 W/m 12,7 C 13,5 C 1,6 km/h (1 Bft) 100,00 %
06.06.2016 03:06 13,5 C 95 % 1016,6 hPa 0,0 l/m 2,0 km/h (1 Bft) SW 225 0 min 0,000 mm 0,0 UV-I 0 W/m 12,7 C 13,5 C 3,2 km/h (1 Bft) 95,83 %
06.06.2016 03:07 13,4 C 95 % 1016,6 hPa 0,0 l/m 1,5 km/h (1 Bft) SW 225 0 min 0,000 mm 0,0 UV-I 0 W/m 12,6 C 13,4 C 3,2 km/h (1 Bft) 95,65 %
06.06.2016 03:08 13,5 C 95 % 1016,6 hPa 0,0 l/m 1,3 km/h (1 Bft) SW 225 0 min 0,000 mm 0,0 UV-I 0 W/m 12,7 C 13,5 C 1,6 km/h (1 Bft) 95,83 %
06.06.2016 03:09 13,4 C 95 % 1016,6 hPa 0,0 l/m 0,8 km/h (0 Bft) SW 225 0 min 0,000 mm 0,0 UV-I 0 W/m 12,6 C 13,4 C 1,6 km/h (1 Bft) 100,00 %
06.06.2016 03:10 13,4 C 95 % 1016,6 hPa 0,0 l/m 0,6 km/h (0 Bft) SW 225 0 min 0,000 mm 0,0 UV-I 0 W/m 12,6 C 13,4 C 1,6 km/h (1 Bft) 96,30 %
06.06.2016 03:11 13,4 C 94 % 1016,6 hPa 0,0 l/m 0,3 km/h (0 Bft) SW 225 0 min 0,000 mm 0,0 UV-I 0 W/m 12,5 C 13,4 C 1,6 km/h (1 Bft) 100,00 %
06.06.2016 03:12 13,4 C 95 % 1016,6 hPa 0,0 l/m 0,0 km/h (0 Bft) SW 225 0 min 0,000 mm 0,0 UV-I 0 W/m 12,6 C 13,4 C 0,0 km/h (0 Bft) 95,83 %
06.06.2016 03:13 13,4 C 95 % 1016,6 hPa 0,0 l/m 0,1 km/h (0 Bft) SW 225 0 min 0,000 mm 0,0 UV-I 0 W/m 12,6 C 13,4 C 1,6 km/h (1 Bft) 95,65 %
06.06.2016 03:14 13,4 C 95 % 1016,6 hPa 0,0 l/m 0,3 km/h (0 Bft) SW 225 0 min 0,000 mm 0,0 UV-I 0 W/m 12,6 C 13,4 C 1,6 km/h (1 Bft) 100,00 %
06.06.2016 03:15 13,4 C 95 % 1016,6 hPa 0,0 l/m 0,4 km/h (0 Bft) SW 225 0 min 0,000 mm 0,0 UV-I 0 W/m 12,6 C 13,4 C 1,6 km/h (1 Bft) 96,15 %
06.06.2016 03:16 13,4 C 95 % 1016,6 hPa 0,0 l/m 0,1 km/h (0 Bft) SW 225 0 min 0,000 mm 0,0 UV-I 0 W/m 12,6 C 13,4 C 1,6 km/h (1 Bft) 100,00 %
06.06.2016 03:17 13,3 C 95 % 1016,6 hPa 0,0 l/m 0,1 km/h (0 Bft) SW 225 0 min 0,000 mm 0,0 UV-I 0 W/m 12,5 C 13,3 C 1,6 km/h (1 Bft) 96,15 %
06.06.2016 03:18 13,3 C 95 % 1016,6 hPa 0,0 l/m 0,3 km/h (0 Bft) SW 225 0 min 0,000 mm 0,0 UV-I 0 W/m 12,5 C 13,3 C 1,6 km/h (1 Bft) 96,30 %
06.06.2016 03:19 13,3 C 95 % 1016,7 hPa 0,0 l/m 0,6 km/h (0 Bft) SW 225 0 min 0,000 mm 0,0 UV-I 0 W/m 12,5 C 13,3 C 1,6 km/h (1 Bft) 95,65 %
06.06.2016 03:20 13,3 C 95 % 1016,6 hPa 0,0 l/m 0,6 km/h (0 Bft) SW 225 0 min 0,000 mm 0,0 UV-I 0 W/m 12,5 C 13,3 C 1,6 km/h (1 Bft) 100,00 %
06.06.2016 03:21 13,2 C 95 % 1016,6 hPa 0,0 l/m 0,2 km/h (0 Bft) SW 225 0 min 0,000 mm 0,0 UV-I 0 W/m 12,4 C 13,2 C 1,6 km/h (1 Bft) 98,55 %
06.06.2016 03:22 13,1 C 95 % 1016,6 hPa 0,0 l/m 0,0 km/h (0 Bft) SW 225 0 min 0,000 mm 0,0 UV-I 0 W/m 12,3 C 13,1 C 0,0 km/h (0 Bft) 97,37 %
06.06.2016 03:23 13,1 C 95 % 1016,7 hPa 0,0 l/m 0,0 km/h (0 Bft) SW 225 0 min 0,000 mm 0,0 UV-I 0 W/m 12,3 C 13,1 C 0,0 km/h (0 Bft) 100,00 %
06.06.2016 03:24 13,1 C 95 % 1016,6 hPa 0,0 l/m 0,0 km/h (0 Bft) SW 225 0 min 0,000 mm 0,0 UV-I 0 W/m 12,3 C 13,1 C 0,0 km/h (0 Bft) 96,30 %
06.06.2016 03:25 13,1 C 95 % 1016,6 hPa 0,0 l/m 0,0 km/h (0 Bft) SW 225 0 min 0,000 mm 0,0 UV-I 0 W/m 12,3 C 13,1 C 0,0 km/h (0 Bft) 95,65 %
06.06.2016 03:26 13,0 C 95 % 1016,6 hPa 0,0 l/m 0,1 km/h (0 Bft) SW 225 0 min 0,000 mm 0,0 UV-I 0 W/m 12,2 C 13,0 C 1,6 km/h (1 Bft) 100,00 %
06.06.2016 03:27 12,9 C 95 % 1016,7 hPa 0,0 l/m 0,0 km/h (0 Bft) SW 225 0 min 0,000 mm 0,0 UV-I 0 W/m 12,1 C 12,9 C 0,0 km/h (0 Bft) 100,00 %
06.06.2016 03:28 12,9 C 95 % 1016,7 hPa 0,0 l/m 0,7 km/h (0 Bft) SW 225 0 min 0,000 mm 0,0 UV-I 0 W/m 12,1 C 12,9 C 1,6 km/h (1 Bft) 100,00 %
06.06.2016 03:29 12,8 C 95 % 1016,7 hPa 0,0 l/m 1,0 km/h (0 Bft) SW 225 0 min 0,000 mm 0,0 UV-I 0 W/m 12,0 C 12,8 C 1,6 km/h (1 Bft) 100,00 %
06.06.2016 03:30 12,8 C 95 % 1016,7 hPa 0,0 l/m 1,6 km/h (1 Bft) SW 225 0 min 0,000 mm 0,0 UV-I 0 W/m 12,0 C 12,8 C 1,6 km/h (1 Bft) 96,88 %
06.06.2016 03:31 12,8 C 95 % 1016,7 hPa 0,0 l/m 2,0 km/h (1 Bft) SW 225 0 min 0,000 mm 0,0 UV-I 0 W/m 12,0 C 12,8 C 3,2 km/h (1 Bft) 100,00 %
06.06.2016 03:32 12,8 C 95 % 1016,7 hPa 0,0 l/m 1,6 km/h (1 Bft) SW 225 0 min 0,000 mm 0,0 UV-I 0 W/m 12,0 C 12,8 C 3,2 km/h (1 Bft) 100,00 %
06.06.2016 03:33 12,8 C 95 % 1016,7 hPa 0,0 l/m 2,4 km/h (1 Bft) SW 225 0 min 0,000 mm 0,0 UV-I 0 W/m 12,0 C 12,8 C 3,2 km/h (1 Bft) 100,00 %
06.06.2016 03:34 12,8 C 95 % 1016,6 hPa 0,0 l/m 2,3 km/h (1 Bft) SW 225 0 min 0,000 mm 0,0 UV-I 0 W/m 12,0 C 12,8 C 3,2 km/h (1 Bft) 100,00 %
06.06.2016 03:35 12,7 C 95 % 1016,6 hPa 0,0 l/m 2,0 km/h (1 Bft) SW 225 0 min 0,000 mm 0,0 UV-I 0 W/m 11,9 C 12,7 C 3,2 km/h (1 Bft) 100,00 %
06.06.2016 03:36 12,7 C 95 % 1016,7 hPa 0,0 l/m 2,0 km/h (1 Bft) SW 225 0 min 0,000 mm 0,0 UV-I 0 W/m 11,9 C 12,7 C 3,2 km/h (1 Bft) 100,00 %
06.06.2016 03:37 12,7 C 95 % 1016,7 hPa 0,0 l/m 2,5 km/h (1 Bft) SW 225 0 min 0,000 mm 0,0 UV-I 0 W/m 11,9 C 12,7 C 3,2 km/h (1 Bft) 100,00 %
06.06.2016 03:38 12,6 C 96 % 1016,7 hPa 0,0 l/m 3,2 km/h (1 Bft) SW 225 0 min 0,000 mm 0,0 UV-I 0 W/m 12,0 C 12,6 C 3,2 km/h (1 Bft) 100,00 %
06.06.2016 03:39 12,7 C 96 % 1016,6 hPa 0,0 l/m 2,7 km/h (1 Bft) SW 225 0 min 0,000 mm 0,0 UV-I 0 W/m 12,1 C 12,7 C 4,8 km/h (1 Bft) 100,00 %
06.06.2016 03:40 12,7 C 96 % 1016,6 hPa 0,0 l/m 0,6 km/h (0 Bft) SW 225 0 min 0,000 mm 0,0 UV-I 0 W/m 12,1 C 12,7 C 3,2 km/h (1 Bft) 100,00 %
06.06.2016 03:41 12,7 C 96 % 1016,6 hPa 0,0 l/m 0,0 km/h (0 Bft) SW 225 0 min 0,000 mm 0,0 UV-I 0 W/m 12,1 C 12,7 C 0,0 km/h (0 Bft) 100,00 %
06.06.2016 03:42 12,7 C 96 % 1016,6 hPa 0,0 l/m 0,0 km/h (0 Bft) SW 225 0 min 0,000 mm 0,0 UV-I 0 W/m 12,1 C 12,7 C 0,0 km/h (0 Bft) 100,00 %
06.06.2016 03:43 12,7 C 96 % 1016,6 hPa 0,0 l/m 0,0 km/h (0 Bft) SW 225 0 min 0,000 mm 0,0 UV-I 0 W/m 12,1 C 12,7 C 0,0 km/h (0 Bft) 100,00 %
06.06.2016 03:44 12,7 C 96 % 1016,6 hPa 0,0 l/m 0,0 km/h (0 Bft) SW 225 0 min 0,000 mm 0,0 UV-I 0 W/m 12,1 C 12,7 C 0,0 km/h (0 Bft) 100,00 %
06.06.2016 03:45 12,6 C 96 % 1016,6 hPa 0,0 l/m 0,0 km/h (0 Bft) SW 225 0 min 0,000 mm 0,0 UV-I 0 W/m 12,0 C 12,6 C 0,0 km/h (0 Bft) 100,00 %
06.06.2016 03:46 12,6 C 96 % 1016,5 hPa 0,0 l/m 0,1 km/h (0 Bft) SW 225 0 min 0,000 mm 0,0 UV-I 0 W/m 12,0 C 12,6 C 1,6 km/h (1 Bft) 95,83 %
06.06.2016 03:47 12,6 C 96 % 1016,5 hPa 0,0 l/m 0,3 km/h (0 Bft) SW 225 0 min 0,000 mm 0,0 UV-I 0 W/m 12,0 C 12,6 C 1,6 km/h (1 Bft) 100,00 %
06.06.2016 03:48 12,6 C 96 % 1016,6 hPa 0,0 l/m 1,0 km/h (0 Bft) SW 225 0 min 0,000 mm 0,0 UV-I 0 W/m 12,0 C 12,6 C 1,6 km/h (1 Bft) 100,00 %
06.06.2016 03:49 12,6 C 96 % 1016,6 hPa 0,0 l/m 0,7 km/h (0 Bft) SW 225 0 min 0,000 mm 0,0 UV-I 0 W/m 12,0 C 12,6 C 1,6 km/h (1 Bft) 100,00 %
06.06.2016 03:50 12,6 C 96 % 1016,5 hPa 0,0 l/m 1,3 km/h (1 Bft) SW 225 0 min 0,000 mm 0,0 UV-I 0 W/m 12,0 C 12,6 C 3,2 km/h (1 Bft) 100,00 %
06.06.2016 03:51 12,6 C 96 % 1016,6 hPa 0,0 l/m 1,2 km/h (1 Bft) SW 224 0 min 0,000 mm 0,0 UV-I 0 W/m 12,0 C 12,6 C 1,6 km/h (1 Bft) 100,00 %
06.06.2016 03:52 12,6 C 96 % 1016,6 hPa 0,0 l/m 3,7 km/h (1 Bft) SW 218 0 min 0,000 mm 0,0 UV-I 0 W/m 12,0 C 12,6 C 4,8 km/h (1 Bft) 100,00 %
06.06.2016 03:53 12,6 C 96 % 1016,6 hPa 0,0 l/m 3,8 km/h (1 Bft) SW 218 0 min 0,000 mm 0,0 UV-I 0 W/m 12,0 C 12,6 C 4,8 km/h (1 Bft) 100,00 %
06.06.2016 03:54 12,5 C 96 % 1016,6 hPa 0,0 l/m 4,2 km/h (1 Bft) SW 217 0 min 0,000 mm 0,0 UV-I 0 W/m 11,9 C 12,5 C 4,8 km/h (1 Bft) 100,00 %
06.06.2016 03:55 12,4 C 96 % 1016,6 hPa 0,0 l/m 3,6 km/h (1 Bft) SW 217 0 min 0,000 mm 0,0 UV-I 0 W/m 11,8 C 12,4 C 4,8 km/h (1 Bft) 100,00 %
06.06.2016 03:56 12,4 C 96 % 1016,6 hPa 0,0 l/m 3,3 km/h (1 Bft) SW 217 0 min 0,000 mm 0,0 UV-I 0 W/m 11,8 C 12,4 C 4,8 km/h (1 Bft) 100,00 %
06.06.2016 03:57 12,3 C 96 % 1016,6 hPa 0,0 l/m 3,7 km/h (1 Bft) SW 217 0 min 0,000 mm 0,0 UV-I 0 W/m 11,7 C 12,3 C 4,8 km/h (1 Bft) 100,00 %
06.06.2016 03:58 12,3 C 96 % 1016,6 hPa 0,0 l/m 2,9 km/h (1 Bft) SW 217 0 min 0,000 mm 0,0 UV-I 0 W/m 11,7 C 12,3 C 4,8 km/h (1 Bft) 100,00 %
06.06.2016 03:59 12,4 C 96 % 1016,6 hPa 0,0 l/m 3,0 km/h (1 Bft) SW 217 0 min 0,000 mm 0,0 UV-I 0 W/m 11,8 C 12,4 C 3,2 km/h (1 Bft) 100,00 %
06.06.2016 04:00 12,4 C 96 % 1016,6 hPa 0,0 l/m 2,5 km/h (1 Bft) SW 217 0 min 0,000 mm 0,0 UV-I 0 W/m 11,8 C 12,4 C 3,2 km/h (1 Bft) 100,00 %
06.06.2016 04:01 12,4 C 97 % 1016,6 hPa 0,0 l/m 1,7 km/h (1 Bft) SW 217 0 min 0,000 mm 0,0 UV-I 0 W/m 11,9 C 12,4 C 3,2 km/h (1 Bft) 100,00 %
06.06.2016 04:02 12,4 C 97 % 1016,6 hPa 0,0 l/m 1,6 km/h (1 Bft) SW 217 0 min 0,000 mm 0,0 UV-I 0 W/m 11,9 C 12,4 C 1,6 km/h (1 Bft) 95,83 %
06.06.2016 04:03 12,4 C 97 % 1016,6 hPa 0,0 l/m 2,1 km/h (1 Bft) SW 217 0 min 0,000 mm 0,0 UV-I 0 W/m 11,9 C 12,4 C 4,8 km/h (1 Bft) 100,00 %
06.06.2016 04:04 12,4 C 96 % 1016,7 hPa 0,0 l/m 4,0 km/h (1 Bft) SW 217 0 min 0,000 mm 0,0 UV-I 0 W/m 11,8 C 12,4 C 4,8 km/h (1 Bft) 100,00 %
06.06.2016 04:05 12,4 C 96 % 1016,7 hPa 0,0 l/m 3,7 km/h (1 Bft) SW 217 0 min 0,000 mm 0,0 UV-I 0 W/m 11,8 C 12,4 C 4,8 km/h (1 Bft) 100,00 %
06.06.2016 04:06 12,4 C 96 % 1016,6 hPa 0,0 l/m 2,0 km/h (1 Bft) SW 217 0 min 0,000 mm 0,0 UV-I 0 W/m 11,8 C 12,4 C 3,2 km/h (1 Bft) 100,00 %
06.06.2016 04:07 12,4 C 96 % 1016,6 hPa 0,0 l/m 1,7 km/h (1 Bft) SW 217 0 min 0,000 mm 0,0 UV-I 0 W/m 11,8 C 12,4 C 3,2 km/h (1 Bft) 100,00 %
06.06.2016 04:08 12,3 C 96 % 1016,6 hPa 0,0 l/m 2,1 km/h (1 Bft) SW 217 0 min 0,000 mm 0,0 UV-I 0 W/m 11,7 C 12,3 C 3,2 km/h (1 Bft) 100,00 %
06.06.2016 04:09 12,3 C 96 % 1016,6 hPa 0,0 l/m 1,1 km/h (1 Bft) SW 217 0 min 0,000 mm 0,0 UV-I 0 W/m 11,7 C 12,3 C 1,6 km/h (1 Bft) 100,00 %
06.06.2016 04:10 12,3 C 96 % 1016,7 hPa 0,0 l/m 0,0 km/h (0 Bft) SW 217 0 min 0,000 mm 0,0 UV-I 0 W/m 11,7 C 12,3 C 0,0 km/h (0 Bft) 100,00 %
06.06.2016 04:11 12,3 C 96 % 1016,7 hPa 0,0 l/m 0,0 km/h (0 Bft) SW 217 0 min 0,000 mm 0,0 UV-I 0 W/m 11,7 C 12,3 C 0,0 km/h (0 Bft) 100,00 %
06.06.2016 04:12 12,3 C 96 % 1016,7 hPa 0,0 l/m 0,0 km/h (0 Bft) SW 217 0 min 0,000 mm 0,0 UV-I 0 W/m 11,7 C 12,3 C 0,0 km/h (0 Bft) 100,00 %
06.06.2016 04:13 12,3 C 96 % 1016,7 hPa 0,0 l/m 0,1 km/h (0 Bft) SW 217 0 min 0,000 mm 0,0 UV-I 0 W/m 11,7 C 12,3 C 1,6 km/h (1 Bft) 100,00 %
06.06.2016 04:14 12,3 C 96 % 1016,7 hPa 0,0 l/m 0,7 km/h (0 Bft) SW 217 0 min 0,000 mm 0,0 UV-I 0 W/m 11,7 C 12,3 C 1,6 km/h (1 Bft) 100,00 %
06.06.2016 04:15 12,3 C 96 % 1016,7 hPa 0,0 l/m 1,6 km/h (1 Bft) SW 217 0 min 0,000 mm 0,0 UV-I 0 W/m 11,7 C 12,3 C 3,2 km/h (1 Bft) 100,00 %
06.06.2016 04:16 12,3 C 96 % 1016,7 hPa 0,0 l/m 0,9 km/h (0 Bft) SW 217 0 min 0,000 mm 0,0 UV-I 0 W/m 11,7 C 12,3 C 1,6 km/h (1 Bft) 100,00 %
06.06.2016 04:17 12,3 C 96 % 1016,6 hPa 0,0 l/m 0,4 km/h (0 Bft) SW 217 0 min 0,000 mm 0,0 UV-I 0 W/m 11,7 C 12,3 C 1,6 km/h (1 Bft) 100,00 %
06.06.2016 04:18 12,3 C 96 % 1016,6 hPa 0,0 l/m 0,8 km/h (0 Bft) SW 217 0 min 0,000 mm 0,0 UV-I 0 W/m 11,7 C 12,3 C 1,6 km/h (1 Bft) 100,00 %
06.06.2016 04:19 12,3 C 97 % 1016,6 hPa 0,0 l/m 0,9 km/h (0 Bft) SW 217 0 min 0,000 mm 0,0 UV-I 0 W/m 11,8 C 12,3 C 1,6 km/h (1 Bft) 100,00 %
06.06.2016 04:20 12,3 C 97 % 1016,6 hPa 0,0 l/m 0,5 km/h (0 Bft) SW 217 0 min 0,000 mm 0,0 UV-I 0 W/m 11,8 C 12,3 C 1,6 km/h (1 Bft) 96,15 %
06.06.2016 04:21 12,3 C 97 % 1016,6 hPa 0,0 l/m 0,6 km/h (0 Bft) SW 217 0 min 0,000 mm 0,0 UV-I 0 W/m 11,8 C 12,3 C 1,6 km/h (1 Bft) 100,00 %
06.06.2016 04:22 12,3 C 97 % 1016,6 hPa 0,0 l/m 1,5 km/h (1 Bft) SW 217 0 min 0,000 mm 0,0 UV-I 0 W/m 11,8 C 12,3 C 3,2 km/h (1 Bft) 100,00 %
06.06.2016 04:23 12,3 C 97 % 1016,6 hPa 0,0 l/m 2,0 km/h (1 Bft) SW 217 0 min 0,000 mm 0,0 UV-I 0 W/m 11,8 C 12,3 C 3,2 km/h (1 Bft) 86,67 %
06.06.2016 04:24 12,3 C 97 % 1016,6 hPa 0,0 l/m 1,4 km/h (1 Bft) SW 217 0 min 0,000 mm 0,0 UV-I 0 W/m 11,8 C 12,3 C 1,6 km/h (1 Bft) 100,00 %
06.06.2016 04:25 12,3 C 97 % 1016,7 hPa 0,0 l/m 1,1 km/h (1 Bft) SW 217 0 min 0,000 mm 0,0 UV-I 0 W/m 11,8 C 12,3 C 1,6 km/h (1 Bft) 100,00 %
06.06.2016 04:26 12,3 C 97 % 1016,6 hPa 0,0 l/m 1,3 km/h (1 Bft) SW 217 0 min 0,000 mm 0,0 UV-I 0 W/m 11,8 C 12,3 C 1,6 km/h (1 Bft) 96,15 %
06.06.2016 04:27 12,3 C 97 % 1016,6 hPa 0,0 l/m 1,0 km/h (0 Bft) SW 217 0 min 0,000 mm 0,0 UV-I 0 W/m 11,8 C 12,3 C 1,6 km/h (1 Bft) 100,00 %
06.06.2016 04:28 12,2 C 97 % 1016,6 hPa 0,0 l/m 0,8 km/h (0 Bft) SW 217 0 min 0,000 mm 0,0 UV-I 0 W/m 11,7 C 12,2 C 1,6 km/h (1 Bft) 100,00 %
06.06.2016 04:29 12,2 C 96 % 1016,7 hPa 0,0 l/m 0,8 km/h (0 Bft) SW 217 0 min 0,000 mm 0,0 UV-I 0 W/m 11,6 C 12,2 C 1,6 km/h (1 Bft) 100,00 %
06.06.2016 04:30 12,2 C 96 % 1016,7 hPa 0,0 l/m 1,1 km/h (1 Bft) SW 217 0 min 0,000 mm 0,0 UV-I 0 W/m 11,6 C 12,2 C 1,6 km/h (1 Bft) 100,00 %
06.06.2016 04:31 12,2 C 96 % 1016,7 hPa 0,0 l/m 0,7 km/h (0 Bft) SW 217 0 min 0,000 mm 0,0 UV-I 0 W/m 11,6 C 12,2 C 1,6 km/h (1 Bft) 100,00 %
06.06.2016 04:32 12,2 C 97 % 1016,7 hPa 0,0 l/m 1,6 km/h (1 Bft) SW 217 0 min 0,000 mm 0,0 UV-I 0 W/m 11,7 C 12,2 C 3,2 km/h (1 Bft) 100,00 %
06.06.2016 04:33 12,2 C 97 % 1016,7 hPa 0,0 l/m 2,5 km/h (1 Bft) SW 217 0 min 0,000 mm 0,0 UV-I 0 W/m 11,7 C 12,2 C 3,2 km/h (1 Bft) 100,00 %
06.06.2016 04:34 12,2 C 97 % 1016,7 hPa 0,0 l/m 3,6 km/h (1 Bft) SW 217 0 min 0,000 mm 0,0 UV-I 0 W/m 11,7 C 12,2 C 4,8 km/h (1 Bft) 100,00 %
06.06.2016 04:35 12,2 C 97 % 1016,7 hPa 0,0 l/m 2,8 km/h (1 Bft) SW 217 0 min 0,000 mm 0,0 UV-I 0 W/m 11,7 C 12,2 C 4,8 km/h (1 Bft) 100,00 %
06.06.2016 04:36 12,3 C 97 % 1016,7 hPa 0,0 l/m 3,7 km/h (1 Bft) SW 217 0 min 0,000 mm 0,0 UV-I 0 W/m 11,8 C 12,3 C 4,8 km/h (1 Bft) 95,83 %
06.06.2016 04:37 12,3 C 97 % 1016,7 hPa 0,0 l/m 3,2 km/h (1 Bft) SW 216 0 min 0,000 mm 0,0 UV-I 0 W/m 11,8 C 12,3 C 4,8 km/h (1 Bft) 100,00 %
06.06.2016 04:38 12,3 C 97 % 1016,7 hPa 0,0 l/m 1,9 km/h (1 Bft) SW 215 0 min 0,000 mm 0,0 UV-I 0 W/m 11,8 C 12,3 C 3,2 km/h (1 Bft) 100,00 %
06.06.2016 04:39 12,3 C 97 % 1016,7 hPa 0,0 l/m 2,3 km/h (1 Bft) SW 215 0 min 0,000 mm 0,0 UV-I 0 W/m 11,8 C 12,3 C 4,8 km/h (1 Bft) 95,65 %
06.06.2016 04:40 12,3 C 97 % 1016,7 hPa 0,0 l/m 2,4 km/h (1 Bft) SW 215 0 min 0,000 mm 0,0 UV-I 0 W/m 11,8 C 12,3 C 4,8 km/h (1 Bft) 100,00 %
06.06.2016 04:41 12,3 C 97 % 1016,8 hPa 0,0 l/m 2,6 km/h (1 Bft) SW 215 0 min 0,000 mm 0,0 UV-I 0 W/m 11,8 C 12,3 C 4,8 km/h (1 Bft) 100,00 %
06.06.2016 04:42 12,4 C 97 % 1016,7 hPa 0,0 l/m 2,2 km/h (1 Bft) SW 215 0 min 0,000 mm 0,0 UV-I 0 W/m 11,9 C 12,4 C 3,2 km/h (1 Bft) 100,00 %
06.06.2016 04:43 12,3 C 97 % 1016,7 hPa 0,0 l/m 1,6 km/h (1 Bft) SW 215 0 min 0,000 mm 0,0 UV-I 0 W/m 11,8 C 12,3 C 3,2 km/h (1 Bft) 100,00 %
06.06.2016 04:44 12,3 C 97 % 1016,7 hPa 0,0 l/m 1,8 km/h (1 Bft) SW 215 0 min 0,000 mm 0,0 UV-I 0 W/m 11,8 C 12,3 C 3,2 km/h (1 Bft) 96,30 %
06.06.2016 04:45 12,3 C 97 % 1016,8 hPa 0,0 l/m 2,5 km/h (1 Bft) SW 215 0 min 0,000 mm 0,0 UV-I 0 W/m 11,8 C 12,3 C 3,2 km/h (1 Bft) 100,00 %
06.06.2016 04:46 12,3 C 97 % 1016,8 hPa 0,0 l/m 1,7 km/h (1 Bft) SW 215 0 min 0,000 mm 0,0 UV-I 0 W/m 11,8 C 12,3 C 3,2 km/h (1 Bft) 96,15 %
06.06.2016 04:47 12,3 C 97 % 1016,8 hPa 0,0 l/m 2,7 km/h (1 Bft) SW 215 0 min 0,000 mm 0,0 UV-I 0 W/m 11,8 C 12,3 C 3,2 km/h (1 Bft) 100,00 %
06.06.2016 04:48 12,3 C 96 % 1016,8 hPa 0,0 l/m 1,8 km/h (1 Bft) SW 215 0 min 0,000 mm 0,0 UV-I 0 W/m 11,7 C 12,3 C 3,2 km/h (1 Bft) 96,15 %
06.06.2016 04:49 12,3 C 96 % 1016,8 hPa 0,0 l/m 2,7 km/h (1 Bft) SW 215 0 min 0,000 mm 0,0 UV-I 0 W/m 11,7 C 12,3 C 4,8 km/h (1 Bft) 100,00 %
06.06.2016 04:50 12,3 C 96 % 1016,8 hPa 0,0 l/m 1,6 km/h (1 Bft) SW 215 0 min 0,000 mm 0,0 UV-I 0 W/m 11,7 C 12,3 C 3,2 km/h (1 Bft) 91,30 %
06.06.2016 04:51 12,3 C 96 % 1016,8 hPa 0,0 l/m 1,2 km/h (1 Bft) SW 215 0 min 0,000 mm 0,0 UV-I 0 W/m 11,7 C 12,3 C 3,2 km/h (1 Bft) 100,00 %
06.06.2016 04:52 12,3 C 96 % 1016,9 hPa 0,0 l/m 0,9 km/h (0 Bft) SW 215 0 min 0,000 mm 0,0 UV-I 0 W/m 11,7 C 12,3 C 1,6 km/h (1 Bft) 95,65 %
06.06.2016 04:53 12,3 C 96 % 1016,9 hPa 0,0 l/m 0,7 km/h (0 Bft) SW 215 0 min 0,000 mm 0,0 UV-I 0 W/m 11,7 C 12,3 C 1,6 km/h (1 Bft) 96,30 %
06.06.2016 04:54 12,3 C 96 % 1016,9 hPa 0,0 l/m 1,0 km/h (0 Bft) SW 215 0 min 0,000 mm 0,0 UV-I 0 W/m 11,7 C 12,3 C 1,6 km/h (1 Bft) 100,00 %
06.06.2016 04:55 12,2 C 96 % 1016,9 hPa 0,0 l/m 1,4 km/h (1 Bft) SW 215 0 min 0,000 mm 0,0 UV-I 0 W/m 11,6 C 12,2 C 1,6 km/h (1 Bft) 96,30 %
06.06.2016 04:56 12,2 C 96 % 1016,9 hPa 0,0 l/m 1,7 km/h (1 Bft) SW 215 0 min 0,000 mm 0,0 UV-I 0 W/m 11,6 C 12,2 C 3,2 km/h (1 Bft) 100,00 %
06.06.2016 04:57 12,2 C 96 % 1016,9 hPa 0,0 l/m 1,9 km/h (1 Bft) SW 215 0 min 0,000 mm 0,0 UV-I 0 W/m 11,6 C 12,2 C 3,2 km/h (1 Bft) 95,83 %
06.06.2016 04:58 12,2 C 96 % 1016,9 hPa 0,0 l/m 2,2 km/h (1 Bft) SW 215 0 min 0,000 mm 0,0 UV-I 0 W/m 11,6 C 12,2 C 3,2 km/h (1 Bft) 100,00 %
06.06.2016 04:59 12,1 C 96 % 1016,9 hPa 0,0 l/m 2,4 km/h (1 Bft) SW 215 0 min 0,000 mm 0,0 UV-I 0 W/m 11,5 C 12,1 C 3,2 km/h (1 Bft) 96,30 %
06.06.2016 05:00 12,1 C 96 % 1017,0 hPa 0,0 l/m 2,5 km/h (1 Bft) SW 215 0 min 0,000 mm 0,0 UV-I 0 W/m 11,5 C 12,1 C 3,2 km/h (1 Bft) 100,00 %
06.06.2016 05:01 12,1 C 96 % 1016,9 hPa 0,0 l/m 1,9 km/h (1 Bft) SW 215 0 min 0,000 mm 0,0 UV-I 0 W/m 11,5 C 12,1 C 3,2 km/h (1 Bft) 97,37 %
06.06.2016 05:02 12,0 C 96 % 1017,0 hPa 0,0 l/m 1,1 km/h (1 Bft) SW 215 0 min 0,000 mm 0,0 UV-I 0 W/m 11,4 C 12,0 C 3,2 km/h (1 Bft) 100,00 %
06.06.2016 05:03 12,1 C 96 % 1016,9 hPa 0,0 l/m 0,5 km/h (0 Bft) SW 215 0 min 0,000 mm 0,0 UV-I 5 W/m 11,5 C 12,1 C 1,6 km/h (1 Bft) 91,30 %
06.06.2016 05:04 12,1 C 97 % 1016,9 hPa 0,0 l/m 0,2 km/h (0 Bft) SW 215 0 min 0,000 mm 0,0 UV-I 5 W/m 11,6 C 12,1 C 1,6 km/h (1 Bft) 96,30 %
06.06.2016 05:05 12,1 C 97 % 1017,0 hPa 0,0 l/m 0,7 km/h (0 Bft) SW 215 0 min 0,000 mm 0,0 UV-I 5 W/m 11,6 C 12,1 C 1,6 km/h (1 Bft) 100,00 %
06.06.2016 05:06 12,1 C 97 % 1017,0 hPa 0,0 l/m 1,0 km/h (0 Bft) SW 215 0 min 0,000 mm 0,0 UV-I 5 W/m 11,6 C 12,1 C 3,2 km/h (1 Bft) 95,83 %
06.06.2016 05:07 12,1 C 97 % 1017,0 hPa 0,0 l/m 0,0 km/h (0 Bft) SW 215 0 min 0,000 mm 0,0 UV-I 5 W/m 11,6 C 12,1 C 0,0 km/h (0 Bft) 100,00 %
06.06.2016 05:08 12,1 C 97 % 1017,0 hPa 0,0 l/m 0,2 km/h (0 Bft) SW 215 0 min 0,000 mm 0,0 UV-I 5 W/m 11,6 C 12,1 C 1,6 km/h (1 Bft) 95,83 %
06.06.2016 05:09 12,1 C 97 % 1017,0 hPa 0,0 l/m 0,1 km/h (0 Bft) SW 215 0 min 0,000 mm 0,0 UV-I 7 W/m 11,6 C 12,1 C 1,6 km/h (1 Bft) 100,00 %
06.06.2016 05:10 12,1 C 97 % 1017,0 hPa 0,0 l/m 0,9 km/h (0 Bft) SW 215 0 min 0,000 mm 0,0 UV-I 7 W/m 11,6 C 12,1 C 1,6 km/h (1 Bft) 96,30 %
06.06.2016 05:11 12,1 C 97 % 1017,0 hPa 0,0 l/m 1,1 km/h (1 Bft) SW 215 0 min 0,000 mm 0,0 UV-I 7 W/m 11,6 C 12,1 C 1,6 km/h (1 Bft) 98,52 %
06.06.2016 05:12 12,2 C 97 % 1017,0 hPa 0,0 l/m 0,7 km/h (0 Bft) SW 215 0 min 0,000 mm 0,0 UV-I 7 W/m 11,7 C 12,2 C 1,6 km/h (1 Bft) 97,37 %
06.06.2016 05:13 12,2 C 97 % 1017,0 hPa 0,0 l/m 0,7 km/h (0 Bft) SW 215 0 min 0,000 mm 0,0 UV-I 7 W/m 11,7 C 12,2 C 1,6 km/h (1 Bft) 100,00 %
06.06.2016 05:14 12,3 C 97 % 1017,0 hPa 0,0 l/m 0,9 km/h (0 Bft) SW 215 0 min 0,000 mm 0,0 UV-I 9 W/m 11,8 C 12,3 C 1,6 km/h (1 Bft) 95,83 %
06.06.2016 05:15 12,3 C 97 % 1017,0 hPa 0,0 l/m 1,8 km/h (1 Bft) S-SW 213 0 min 0,000 mm 0,0 UV-I 9 W/m 11,8 C 12,3 C 3,2 km/h (1 Bft) 96,15 %
06.06.2016 05:16 12,3 C 97 % 1017,0 hPa 0,0 l/m 2,1 km/h (1 Bft) S-SW 211 0 min 0,000 mm 0,0 UV-I 9 W/m 11,8 C 12,3 C 3,2 km/h (1 Bft) 100,00 %
06.06.2016 05:17 12,3 C 97 % 1017,0 hPa 0,0 l/m 3,1 km/h (1 Bft) S-SW 211 0 min 0,000 mm 0,0 UV-I 9 W/m 11,8 C 12,3 C 4,8 km/h (1 Bft) 91,30 %
06.06.2016 05:18 12,3 C 97 % 1017,0 hPa 0,0 l/m 1,9 km/h (1 Bft) S-SW 211 1 min 0,000 mm 0,0 UV-I 10 W/m 11,8 C 12,3 C 3,2 km/h (1 Bft) 100,00 %
06.06.2016 05:19 12,3 C 97 % 1017,0 hPa 0,0 l/m 2,7 km/h (1 Bft) S-SW 211 1 min 0,000 mm 0,0 UV-I 11 W/m 11,8 C 12,3 C 4,8 km/h (1 Bft) 100,00 %
06.06.2016 05:20 12,3 C 97 % 1017,1 hPa 0,0 l/m 1,9 km/h (1 Bft) S-SW 211 0 min 0,000 mm 0,0 UV-I 11 W/m 11,8 C 12,3 C 3,2 km/h (1 Bft) 100,00 %
06.06.2016 05:21 12,3 C 97 % 1017,1 hPa 0,0 l/m 1,4 km/h (1 Bft) S-SW 211 0 min 0,000 mm 0,0 UV-I 11 W/m 11,8 C 12,3 C 3,2 km/h (1 Bft) 92,31 %
06.06.2016 05:22 12,4 C 97 % 1017,1 hPa 0,0 l/m 0,8 km/h (0 Bft) S-SW 211 0 min 0,000 mm 0,0 UV-I 12 W/m 11,9 C 12,4 C 1,6 km/h (1 Bft) 100,00 %
06.06.2016 05:23 12,4 C 97 % 1017,2 hPa 0,0 l/m 1,1 km/h (1 Bft) S-SW 211 0 min 0,000 mm 0,0 UV-I 12 W/m 11,9 C 12,4 C 3,2 km/h (1 Bft) 100,00 %
06.06.2016 05:24 12,4 C 97 % 1017,2 hPa 0,0 l/m 2,0 km/h (1 Bft) S-SW 211 0 min 0,000 mm 0,0 UV-I 12 W/m 11,9 C 12,4 C 3,2 km/h (1 Bft) 100,00 %
06.06.2016 05:25 12,4 C 97 % 1017,1 hPa 0,0 l/m 1,7 km/h (1 Bft) S-SW 211 0 min 0,000 mm 0,0 UV-I 14 W/m 11,9 C 12,4 C 3,2 km/h (1 Bft) 100,00 %
06.06.2016 05:26 12,4 C 97 % 1017,1 hPa 0,0 l/m 1,4 km/h (1 Bft) S-SW 211 0 min 0,000 mm 0,0 UV-I 14 W/m 11,9 C 12,4 C 3,2 km/h (1 Bft) 100,00 %
06.06.2016 05:27 12,4 C 97 % 1017,2 hPa 0,0 l/m 1,1 km/h (1 Bft) S-SW 211 0 min 0,000 mm 0,0 UV-I 14 W/m 11,9 C 12,4 C 1,6 km/h (1 Bft) 100,00 %
06.06.2016 05:28 12,5 C 97 % 1017,2 hPa 0,0 l/m 1,1 km/h (1 Bft) S-SW 211 0 min 0,000 mm 0,0 UV-I 16 W/m 12,0 C 12,5 C 3,2 km/h (1 Bft) 100,00 %
06.06.2016 05:29 12,5 C 97 % 1017,2 hPa 0,0 l/m 1,4 km/h (1 Bft) S-SW 211 0 min 0,000 mm 0,0 UV-I 17 W/m 12,0 C 12,5 C 3,2 km/h (1 Bft) 100,00 %
06.06.2016 05:30 12,6 C 97 % 1017,2 hPa 0,0 l/m 1,6 km/h (1 Bft) S-SW 211 0 min 0,000 mm 0,0 UV-I 18 W/m 12,1 C 12,6 C 3,2 km/h (1 Bft) 95,65 %
06.06.2016 05:31 12,6 C 97 % 1017,2 hPa 0,0 l/m 2,5 km/h (1 Bft) S-SW 211 0 min 0,000 mm 0,0 UV-I 18 W/m 12,1 C 12,6 C 4,8 km/h (1 Bft) 100,00 %
06.06.2016 05:32 12,6 C 97 % 1017,2 hPa 0,0 l/m 3,1 km/h (1 Bft) S-SW 211 0 min 0,000 mm 0,0 UV-I 19 W/m 12,1 C 12,6 C 4,8 km/h (1 Bft) 100,00 %
06.06.2016 05:33 12,7 C 97 % 1017,2 hPa 0,0 l/m 2,6 km/h (1 Bft) S-SW 211 0 min 0,000 mm 0,0 UV-I 20 W/m 12,2 C 12,7 C 3,2 km/h (1 Bft) 100,00 %
06.06.2016 05:34 12,7 C 97 % 1017,2 hPa 0,0 l/m 2,3 km/h (1 Bft) S-SW 211 0 min 0,000 mm 0,0 UV-I 21 W/m 12,2 C 12,7 C 3,2 km/h (1 Bft) 100,00 %
06.06.2016 05:35 12,7 C 97 % 1017,3 hPa 0,0 l/m 1,8 km/h (1 Bft) S-SW 211 0 min 0,000 mm 0,0 UV-I 21 W/m 12,2 C 12,7 C 3,2 km/h (1 Bft) 100,00 %
06.06.2016 05:36 12,7 C 97 % 1017,3 hPa 0,0 l/m 1,5 km/h (1 Bft) S-SW 211 0 min 0,000 mm 0,0 UV-I 21 W/m 12,2 C 12,7 C 3,2 km/h (1 Bft) 100,00 %
06.06.2016 05:37 12,6 C 96 % 1017,3 hPa 0,0 l/m 0,7 km/h (0 Bft) S-SW 211 0 min 0,000 mm 0,0 UV-I 21 W/m 12,0 C 12,6 C 1,6 km/h (1 Bft) 100,00 %
06.06.2016 05:38 12,6 C 96 % 1017,3 hPa 0,0 l/m 1,2 km/h (1 Bft) S-SW 211 0 min 0,000 mm 0,0 UV-I 21 W/m 12,0 C 12,6 C 1,6 km/h (1 Bft) 95,65 %
06.06.2016 05:39 12,6 C 96 % 1017,3 hPa 0,0 l/m 0,8 km/h (0 Bft) S-SW 211 0 min 0,000 mm 0,0 UV-I 22 W/m 12,0 C 12,6 C 1,6 km/h (1 Bft) 100,00 %
06.06.2016 05:40 12,6 C 96 % 1017,3 hPa 0,0 l/m 0,1 km/h (0 Bft) S-SW 211 0 min 0,000 mm 0,0 UV-I 23 W/m 12,0 C 12,6 C 1,6 km/h (1 Bft) 100,00 %
06.06.2016 05:41 12,6 C 96 % 1017,3 hPa 0,0 l/m 1,3 km/h (1 Bft) S-SW 211 0 min 0,000 mm 0,0 UV-I 23 W/m 12,0 C 12,6 C 3,2 km/h (1 Bft) 100,00 %
06.06.2016 05:42 12,6 C 96 % 1017,3 hPa 0,0 l/m 0,8 km/h (0 Bft) S-SW 211 0 min 0,000 mm 0,0 UV-I 23 W/m 12,0 C 12,6 C 3,2 km/h (1 Bft) 100,00 %
06.06.2016 05:43 12,6 C 96 % 1017,3 hPa 0,0 l/m 0,4 km/h (0 Bft) S-SW 211 0 min 0,000 mm 0,0 UV-I 25 W/m 12,0 C 12,6 C 3,2 km/h (1 Bft) 100,00 %
06.06.2016 05:44 12,6 C 96 % 1017,3 hPa 0,0 l/m 1,0 km/h (0 Bft) S-SW 211 0 min 0,000 mm 0,0 UV-I 25 W/m 12,0 C 12,6 C 1,6 km/h (1 Bft) 95,65 %
06.06.2016 05:45 12,6 C 96 % 1017,3 hPa 0,0 l/m 1,1 km/h (1 Bft) S-SW 211 0 min 0,000 mm 0,0 UV-I 25 W/m 12,0 C 12,6 C 3,2 km/h (1 Bft) 98,60 %
06.06.2016 05:46 12,6 C 96 % 1017,3 hPa 0,0 l/m 1,4 km/h (1 Bft) S-SW 211 0 min 0,000 mm 0,0 UV-I 25 W/m 12,0 C 12,6 C 1,6 km/h (1 Bft) 100,00 %
06.06.2016 05:47 12,6 C 97 % 1017,3 hPa 0,0 l/m 1,4 km/h (1 Bft) S-SW 211 0 min 0,000 mm 0,0 UV-I 26 W/m 12,1 C 12,6 C 1,6 km/h (1 Bft) 100,00 %
06.06.2016 05:48 12,7 C 97 % 1017,3 hPa 0,0 l/m 1,2 km/h (1 Bft) S-SW 211 0 min 0,000 mm 0,0 UV-I 26 W/m 12,2 C 12,7 C 1,6 km/h (1 Bft) 100,00 %
06.06.2016 05:49 12,7 C 97 % 1017,3 hPa 0,0 l/m 1,4 km/h (1 Bft) S-SW 211 0 min 0,000 mm 0,0 UV-I 28 W/m 12,2 C 12,7 C 3,2 km/h (1 Bft) 100,00 %
06.06.2016 05:50 12,7 C 97 % 1017,4 hPa 0,0 l/m 1,7 km/h (1 Bft) S-SW 211 0 min 0,000 mm 0,0 UV-I 29 W/m 12,2 C 12,7 C 3,2 km/h (1 Bft) 100,00 %
06.06.2016 05:51 12,7 C 97 % 1017,4 hPa 0,0 l/m 0,5 km/h (0 Bft) S-SW 211 0 min 0,000 mm 0,0 UV-I 31 W/m 12,2 C 12,7 C 1,6 km/h (1 Bft) 100,00 %
06.06.2016 05:52 12,7 C 96 % 1017,4 hPa 0,0 l/m 1,9 km/h (1 Bft) S-SW 211 0 min 0,000 mm 0,0 UV-I 32 W/m 12,1 C 12,7 C 3,2 km/h (1 Bft) 100,00 %
06.06.2016 05:53 12,7 C 96 % 1017,4 hPa 0,0 l/m 0,9 km/h (0 Bft) S-SW 211 0 min 0,000 mm 0,0 UV-I 32 W/m 12,1 C 12,7 C 1,6 km/h (1 Bft) 100,00 %
06.06.2016 05:54 12,7 C 96 % 1017,4 hPa 0,0 l/m 0,6 km/h (0 Bft) S-SW 211 0 min 0,000 mm 0,0 UV-I 32 W/m 12,1 C 12,7 C 1,6 km/h (1 Bft) 100,00 %
06.06.2016 05:55 12,7 C 96 % 1017,4 hPa 0,0 l/m 0,8 km/h (0 Bft) S-SW 211 0 min 0,000 mm 0,0 UV-I 32 W/m 12,1 C 12,7 C 1,6 km/h (1 Bft) 100,00 %
06.06.2016 05:56 12,7 C 97 % 1017,4 hPa 0,0 l/m 0,6 km/h (0 Bft) S-SW 211 0 min 0,000 mm 0,0 UV-I 32 W/m 12,2 C 12,7 C 1,6 km/h (1 Bft) 100,00 %
06.06.2016 05:57 12,7 C 97 % 1017,4 hPa 0,0 l/m 1,1 km/h (1 Bft) S-SW 211 0 min 0,000 mm 0,0 UV-I 32 W/m 12,2 C 12,7 C 1,6 km/h (1 Bft) 100,00 %
06.06.2016 05:58 12,7 C 97 % 1017,4 hPa 0,0 l/m 0,1 km/h (0 Bft) S-SW 211 0 min 0,000 mm 0,0 UV-I 32 W/m 12,2 C 12,7 C 1,6 km/h (1 Bft) 100,00 %
06.06.2016 05:59 12,7 C 97 % 1017,4 hPa 0,0 l/m 0,4 km/h (0 Bft) S-SW 211 0 min 0,000 mm 0,0 UV-I 32 W/m 12,2 C 12,7 C 1,6 km/h (1 Bft) 100,00 %
06.06.2016 06:00 12,7 C 97 % 1017,4 hPa 0,0 l/m 0,2 km/h (0 Bft) S-SW 211 0 min 0,000 mm 0,0 UV-I 32 W/m 12,2 C 12,7 C 1,6 km/h (1 Bft) 91,67 %
06.06.2016 06:01 12,7 C 97 % 1017,4 hPa 0,0 l/m 0,2 km/h (0 Bft) S-SW 211 0 min 0,000 mm 0,0 UV-I 33 W/m 12,2 C 12,7 C 1,6 km/h (1 Bft) 100,00 %
06.06.2016 06:02 12,7 C 97 % 1017,4 hPa 0,0 l/m 0,5 km/h (0 Bft) S-SW 211 0 min 0,000 mm 0,0 UV-I 33 W/m 12,2 C 12,7 C 1,6 km/h (1 Bft) 100,00 %
06.06.2016 06:03 12,7 C 97 % 1017,4 hPa 0,0 l/m 0,1 km/h (0 Bft) S-SW 211 0 min 0,000 mm 0,0 UV-I 33 W/m 12,2 C 12,7 C 1,6 km/h (1 Bft) 100,00 %
06.06.2016 06:04 12,7 C 97 % 1017,4 hPa 0,0 l/m 0,1 km/h (0 Bft) S-SW 211 0 min 0,000 mm 0,0 UV-I 33 W/m 12,2 C 12,7 C 1,6 km/h (1 Bft) 100,00 %
06.06.2016 06:05 12,7 C 96 % 1017,5 hPa 0,0 l/m 0,0 km/h (0 Bft) S-SW 211 0 min 0,000 mm 0,0 UV-I 33 W/m 12,1 C 12,7 C 0,0 km/h (0 Bft) 100,00 %
06.06.2016 06:06 12,7 C 97 % 1017,5 hPa 0,0 l/m 0,0 km/h (0 Bft) S-SW 211 0 min 0,000 mm 0,0 UV-I 33 W/m 12,2 C 12,7 C 0,0 km/h (0 Bft) 100,00 %
06.06.2016 06:07 12,7 C 96 % 1017,5 hPa 0,0 l/m 0,6 km/h (0 Bft) S-SW 211 0 min 0,000 mm 0,0 UV-I 35 W/m 12,1 C 12,7 C 1,6 km/h (1 Bft) 100,00 %
06.06.2016 06:08 12,7 C 97 % 1017,5 hPa 0,0 l/m 1,1 km/h (1 Bft) S-SW 211 0 min 0,000 mm 0,0 UV-I 35 W/m 12,2 C 12,7 C 3,2 km/h (1 Bft) 100,00 %
06.06.2016 06:09 12,7 C 97 % 1017,5 hPa 0,0 l/m 1,6 km/h (1 Bft) S-SW 211 0 min 0,000 mm 0,0 UV-I 35 W/m 12,2 C 12,7 C 3,2 km/h (1 Bft) 100,00 %
06.06.2016 06:10 12,7 C 97 % 1017,5 hPa 0,0 l/m 1,5 km/h (1 Bft) S-SW 211 0 min 0,000 mm 0,0 UV-I 35 W/m 12,2 C 12,7 C 3,2 km/h (1 Bft) 100,00 %
06.06.2016 06:11 12,7 C 97 % 1017,5 hPa 0,0 l/m 2,7 km/h (1 Bft) S-SW 211 0 min 0,000 mm 0,0 UV-I 35 W/m 12,2 C 12,7 C 3,2 km/h (1 Bft) 100,00 %
06.06.2016 06:12 12,7 C 97 % 1017,5 hPa 0,0 l/m 2,7 km/h (1 Bft) S-SW 211 0 min 0,000 mm 0,0 UV-I 35 W/m 12,2 C 12,7 C 3,2 km/h (1 Bft) 96,15 %
06.06.2016 06:13 12,8 C 97 % 1017,5 hPa 0,0 l/m 3,3 km/h (1 Bft) S-SW 211 0 min 0,000 mm 0,0 UV-I 37 W/m 12,3 C 12,8 C 4,8 km/h (1 Bft) 100,00 %
06.06.2016 06:14 12,8 C 97 % 1017,5 hPa 0,0 l/m 3,1 km/h (1 Bft) S-SW 211 0 min 0,000 mm 0,0 UV-I 37 W/m 12,3 C 12,8 C 4,8 km/h (1 Bft) 100,00 %
06.06.2016 06:15 12,8 C 97 % 1017,5 hPa 0,0 l/m 2,6 km/h (1 Bft) S-SW 211 0 min 0,000 mm 0,0 UV-I 38 W/m 12,3 C 12,8 C 3,2 km/h (1 Bft) 100,00 %
06.06.2016 06:16 12,8 C 97 % 1017,5 hPa 0,0 l/m 2,5 km/h (1 Bft) S-SW 211 0 min 0,000 mm 0,0 UV-I 39 W/m 12,3 C 12,8 C 4,8 km/h (1 Bft) 100,00 %
06.06.2016 06:17 12,8 C 97 % 1017,5 hPa 0,0 l/m 2,2 km/h (1 Bft) S-SW 211 0 min 0,000 mm 0,0 UV-I 39 W/m 12,3 C 12,8 C 3,2 km/h (1 Bft) 100,00 %
06.06.2016 06:18 12,8 C 97 % 1017,6 hPa 0,0 l/m 3,8 km/h (1 Bft) S-SW 211 0 min 0,000 mm 0,0 UV-I 39 W/m 12,3 C 12,8 C 4,8 km/h (1 Bft) 96,15 %
06.06.2016 06:19 12,8 C 97 % 1017,6 hPa 0,0 l/m 4,1 km/h (1 Bft) S-SW 211 0 min 0,000 mm 0,0 UV-I 39 W/m 12,3 C 12,8 C 4,8 km/h (1 Bft) 100,00 %
06.06.2016 06:20 12,9 C 97 % 1017,6 hPa 0,0 l/m 3,8 km/h (1 Bft) S-SW 211 0 min 0,000 mm 0,0 UV-I 40 W/m 12,4 C 12,9 C 4,8 km/h (1 Bft) 100,00 %
06.06.2016 06:21 12,9 C 97 % 1017,6 hPa 0,0 l/m 2,9 km/h (1 Bft) S-SW 211 0 min 0,000 mm 0,0 UV-I 40 W/m 12,4 C 12,9 C 4,8 km/h (1 Bft) 100,00 %
06.06.2016 06:22 12,9 C 97 % 1017,6 hPa 0,0 l/m 2,9 km/h (1 Bft) S-SW 211 0 min 0,000 mm 0,0 UV-I 41 W/m 12,4 C 12,9 C 3,2 km/h (1 Bft) 100,00 %
06.06.2016 06:23 12,9 C 97 % 1017,7 hPa 0,0 l/m 2,9 km/h (1 Bft) S-SW 211 0 min 0,000 mm 0,0 UV-I 42 W/m 12,4 C 12,9 C 4,8 km/h (1 Bft) 100,00 %
06.06.2016 06:24 13,0 C 97 % 1017,7 hPa 0,0 l/m 3,9 km/h (1 Bft) S-SW 211 0 min 0,000 mm 0,0 UV-I 42 W/m 12,5 C 13,0 C 4,8 km/h (1 Bft) 96,15 %
06.06.2016 06:25 13,0 C 97 % 1017,7 hPa 0,0 l/m 4,1 km/h (1 Bft) S-SW 208 0 min 0,000 mm 0,0 UV-I 42 W/m 12,5 C 13,0 C 4,8 km/h (1 Bft) 93,33 %
06.06.2016 06:26 13,0 C 97 % 1017,7 hPa 0,0 l/m 1,7 km/h (1 Bft) S-SW 208 0 min 0,000 mm 0,0 UV-I 42 W/m 12,5 C 13,0 C 3,2 km/h (1 Bft) 100,00 %
06.06.2016 06:27 13,1 C 97 % 1017,6 hPa 0,0 l/m 1,9 km/h (1 Bft) S-SW 208 0 min 0,000 mm 0,0 UV-I 43 W/m 12,6 C 13,1 C 3,2 km/h (1 Bft) 100,00 %
06.06.2016 06:28 13,1 C 97 % 1017,7 hPa 0,0 l/m 1,9 km/h (1 Bft) S-SW 208 0 min 0,000 mm 0,0 UV-I 44 W/m 12,6 C 13,1 C 3,2 km/h (1 Bft) 100,00 %
06.06.2016 06:29 13,1 C 97 % 1017,7 hPa 0,0 l/m 2,6 km/h (1 Bft) S-SW 208 0 min 0,000 mm 0,0 UV-I 44 W/m 12,6 C 13,1 C 3,2 km/h (1 Bft) 95,65 %
06.06.2016 06:30 13,1 C 97 % 1017,7 hPa 0,0 l/m 1,9 km/h (1 Bft) S-SW 208 0 min 0,000 mm 0,0 UV-I 44 W/m 12,6 C 13,1 C 3,2 km/h (1 Bft) 100,00 %
06.06.2016 06:31 13,2 C 97 % 1017,7 hPa 0,0 l/m 1,5 km/h (1 Bft) S-SW 208 0 min 0,000 mm 0,0 UV-I 50 W/m 12,7 C 13,2 C 3,2 km/h (1 Bft) 100,00 %
06.06.2016 06:32 13,2 C 97 % 1017,7 hPa 0,0 l/m 2,3 km/h (1 Bft) S-SW 208 0 min 0,000 mm 0,0 UV-I 65 W/m 12,7 C 13,2 C 3,2 km/h (1 Bft) 100,00 %
06.06.2016 06:33 13,2 C 97 % 1017,8 hPa 0,0 l/m 2,5 km/h (1 Bft) S-SW 208 0 min 0,000 mm 0,0 UV-I 78 W/m 12,7 C 13,2 C 3,2 km/h (1 Bft) 100,00 %
06.06.2016 06:34 13,2 C 97 % 1017,7 hPa 0,0 l/m 1,7 km/h (1 Bft) S-SW 208 0 min 0,000 mm 0,0 UV-I 84 W/m 12,7 C 13,2 C 3,2 km/h (1 Bft) 96,30 %
06.06.2016 06:35 13,2 C 97 % 1017,7 hPa 0,0 l/m 1,7 km/h (1 Bft) S-SW 208 0 min 0,000 mm 0,0 UV-I 87 W/m 12,7 C 13,2 C 3,2 km/h (1 Bft) 100,00 %
06.06.2016 06:36 13,2 C 97 % 1017,8 hPa 0,0 l/m 1,8 km/h (1 Bft) S-SW 208 0 min 0,000 mm 0,0 UV-I 92 W/m 12,7 C 13,2 C 3,2 km/h (1 Bft) 100,00 %
06.06.2016 06:37 13,2 C 97 % 1017,8 hPa 0,0 l/m 2,2 km/h (1 Bft) S-SW 208 0 min 0,000 mm 0,0 UV-I 98 W/m 12,7 C 13,2 C 3,2 km/h (1 Bft) 100,00 %
06.06.2016 06:38 13,3 C 97 % 1017,8 hPa 0,0 l/m 1,7 km/h (1 Bft) S-SW 208 0 min 0,000 mm 0,0 UV-I 100 W/m 12,8 C 13,3 C 3,2 km/h (1 Bft) 100,00 %
06.06.2016 06:39 13,3 C 97 % 1017,8 hPa 0,0 l/m 2,0 km/h (1 Bft) S-SW 208 0 min 0,000 mm 0,0 UV-I 100 W/m 12,8 C 13,3 C 3,2 km/h (1 Bft) 100,00 %
06.06.2016 06:40 13,3 C 97 % 1017,8 hPa 0,0 l/m 2,0 km/h (1 Bft) S-SW 208 0 min 0,000 mm 0,0 UV-I 99 W/m 12,8 C 13,3 C 3,2 km/h (1 Bft) 100,00 %
06.06.2016 06:41 13,3 C 97 % 1017,8 hPa 0,0 l/m 2,3 km/h (1 Bft) S-SW 208 0 min 0,000 mm 0,0 UV-I 98 W/m 12,8 C 13,3 C 3,2 km/h (1 Bft) 100,00 %
06.06.2016 06:42 13,4 C 97 % 1017,8 hPa 0,0 l/m 2,8 km/h (1 Bft) S-SW 208 0 min 0,000 mm 0,0 UV-I 100 W/m 12,9 C 13,4 C 4,8 km/h (1 Bft) 98,88 %
06.06.2016 06:43 13,4 C 97 % 1017,8 hPa 0,0 l/m 4,4 km/h (1 Bft) S-SW 208 0 min 0,000 mm 0,0 UV-I 104 W/m 12,9 C 13,4 C 4,8 km/h (1 Bft) 100,00 %
06.06.2016 06:44 13,5 C 97 % 1017,8 hPa 0,0 l/m 4,7 km/h (1 Bft) S-SW 208 0 min 0,000 mm 0,0 UV-I 109 W/m 13,0 C 13,5 C 6,4 km/h (2 Bft) 100,00 %
06.06.2016 06:45 13,6 C 97 % 1017,8 hPa 0,0 l/m 3,9 km/h (1 Bft) S-SW 208 0 min 0,000 mm 0,0 UV-I 113 W/m 13,1 C 13,6 C 4,8 km/h (1 Bft) 95,83 %
06.06.2016 06:46 13,6 C 97 % 1017,8 hPa 0,0 l/m 2,3 km/h (1 Bft) S-SW 207 0 min 0,000 mm 0,0 UV-I 117 W/m 13,1 C 13,6 C 3,2 km/h (1 Bft) 100,00 %
06.06.2016 06:47 13,6 C 96 % 1017,8 hPa 0,0 l/m 2,2 km/h (1 Bft) S-SW 207 0 min 0,000 mm 0,0 UV-I 121 W/m 13,0 C 13,6 C 4,8 km/h (1 Bft) 100,00 %
06.06.2016 06:48 13,7 C 96 % 1017,8 hPa 0,0 l/m 3,5 km/h (1 Bft) S-SW 207 0 min 0,000 mm 0,0 UV-I 124 W/m 13,1 C 13,7 C 4,8 km/h (1 Bft) 96,15 %
06.06.2016 06:49 13,7 C 96 % 1017,8 hPa 0,0 l/m 3,6 km/h (1 Bft) S-SW 207 0 min 0,000 mm 0,0 UV-I 127 W/m 13,1 C 13,7 C 4,8 km/h (1 Bft) 100,00 %
06.06.2016 06:50 13,8 C 96 % 1017,8 hPa 0,0 l/m 3,5 km/h (1 Bft) S-SW 207 0 min 0,000 mm 0,0 UV-I 129 W/m 13,2 C 13,8 C 4,8 km/h (1 Bft) 95,65 %
06.06.2016 06:51 13,9 C 97 % 1017,8 hPa 0,0 l/m 2,6 km/h (1 Bft) S-SW 207 0 min 0,000 mm 0,0 UV-I 131 W/m 13,4 C 13,9 C 3,2 km/h (1 Bft) 100,00 %
06.06.2016 06:52 13,9 C 97 % 1017,8 hPa 0,0 l/m 1,7 km/h (1 Bft) S-SW 207 0 min 0,000 mm 0,0 UV-I 134 W/m 13,4 C 13,9 C 3,2 km/h (1 Bft) 95,65 %
06.06.2016 06:53 14,0 C 97 % 1017,8 hPa 0,0 l/m 1,9 km/h (1 Bft) S-SW 207 0 min 0,000 mm 0,0 UV-I 135 W/m 13,5 C 14,0 C 3,2 km/h (1 Bft) 96,30 %
06.06.2016 06:54 14,1 C 96 % 1017,8 hPa 0,0 l/m 1,7 km/h (1 Bft) S-SW 207 0 min 0,000 mm 0,0 UV-I 138 W/m 13,5 C 14,1 C 3,2 km/h (1 Bft) 96,15 %
06.06.2016 06:55 14,1 C 96 % 1017,8 hPa 0,0 l/m 2,0 km/h (1 Bft) S-SW 207 0 min 0,000 mm 0,0 UV-I 141 W/m 13,5 C 14,1 C 3,2 km/h (1 Bft) 96,30 %
06.06.2016 06:56 14,2 C 96 % 1017,9 hPa 0,0 l/m 1,7 km/h (1 Bft) S-SW 207 0 min 0,000 mm 0,0 UV-I 144 W/m 13,6 C 14,2 C 3,2 km/h (1 Bft) 100,00 %
06.06.2016 06:57 14,2 C 96 % 1017,9 hPa 0,0 l/m 1,5 km/h (1 Bft) S-SW 207 0 min 0,000 mm 0,0 UV-I 148 W/m 13,6 C 14,2 C 4,8 km/h (1 Bft) 96,30 %
06.06.2016 06:58 14,2 C 96 % 1017,9 hPa 0,0 l/m 2,0 km/h (1 Bft) S-SW 207 0 min 0,000 mm 0,0 UV-I 149 W/m 13,6 C 14,2 C 3,2 km/h (1 Bft) 100,00 %
06.06.2016 06:59 14,2 C 95 % 1017,9 hPa 0,0 l/m 1,5 km/h (1 Bft) S-SW 207 0 min 0,000 mm 0,0 UV-I 151 W/m 13,4 C 14,2 C 3,2 km/h (1 Bft) 95,83 %
06.06.2016 07:00 14,3 C 95 % 1017,9 hPa 0,0 l/m 2,4 km/h (1 Bft) S-SW 207 1 min 0,051 mm 0,0 UV-I 154 W/m 13,5 C 14,3 C 3,2 km/h (1 Bft) 100,00 %
06.06.2016 07:01 14,3 C 95 % 1017,9 hPa 0,0 l/m 2,7 km/h (1 Bft) S-SW 207 1 min 0,000 mm 0,0 UV-I 155 W/m 13,5 C 14,3 C 3,2 km/h (1 Bft) 96,55 %
06.06.2016 07:02 14,3 C 95 % 1017,9 hPa 0,0 l/m 4,2 km/h (1 Bft) W-SW 239 1 min 0,000 mm 0,0 UV-I 157 W/m 13,5 C 14,3 C 6,4 km/h (2 Bft) 100,00 %
06.06.2016 07:03 14,4 C 95 % 1017,9 hPa 0,0 l/m 3,8 km/h (1 Bft) W-SW 239 1 min 0,000 mm 0,0 UV-I 159 W/m 13,6 C 14,4 C 4,8 km/h (1 Bft) 95,65 %
06.06.2016 07:04 14,4 C 95 % 1017,9 hPa 0,0 l/m 3,4 km/h (1 Bft) W-SW 239 1 min 0,000 mm 0,0 UV-I 162 W/m 13,6 C 14,4 C 4,8 km/h (1 Bft) 95,83 %
06.06.2016 07:05 14,4 C 95 % 1017,9 hPa 0,0 l/m 3,1 km/h (1 Bft) W-SW 239 1 min 0,000 mm 0,0 UV-I 165 W/m 13,6 C 14,4 C 4,8 km/h (1 Bft) 95,65 %
06.06.2016 07:06 14,4 C 95 % 1017,9 hPa 0,0 l/m 3,1 km/h (1 Bft) W-SW 239 1 min 0,000 mm 0,0 UV-I 169 W/m 13,6 C 14,4 C 4,8 km/h (1 Bft) 96,30 %
06.06.2016 07:07 14,5 C 95 % 1017,9 hPa 0,0 l/m 1,8 km/h (1 Bft) W-SW 239 1 min 0,000 mm 0,0 UV-I 172 W/m 13,7 C 14,5 C 3,2 km/h (1 Bft) 100,00 %
06.06.2016 07:08 14,6 C 95 % 1017,9 hPa 0,0 l/m 3,4 km/h (1 Bft) S-SW 209 1 min 0,000 mm 0,0 UV-I 176 W/m 13,8 C 14,6 C 6,4 km/h (2 Bft) 92,59 %
06.06.2016 07:09 14,6 C 95 % 1017,9 hPa 0,0 l/m 3,8 km/h (1 Bft) S-SW 209 1 min 0,000 mm 0,0 UV-I 180 W/m 13,8 C 14,6 C 4,8 km/h (1 Bft) 100,00 %
06.06.2016 07:10 14,6 C 94 % 1017,9 hPa 0,0 l/m 3,4 km/h (1 Bft) S-SW 208 1 min 0,000 mm 0,0 UV-I 182 W/m 13,6 C 14,6 C 6,4 km/h (2 Bft) 94,44 %
06.06.2016 07:11 14,6 C 94 % 1017,9 hPa 0,0 l/m 4,7 km/h (1 Bft) S-SW 206 1 min 0,000 mm 0,0 UV-I 185 W/m 13,6 C 14,6 C 6,4 km/h (2 Bft) 100,00 %
06.06.2016 07:12 14,6 C 95 % 1017,9 hPa 0,0 l/m 5,0 km/h (1 Bft) S 176 1 min 0,000 mm 0,0 UV-I 189 W/m 13,8 C 14,6 C 6,4 km/h (2 Bft) 96,30 %
06.06.2016 07:13 14,7 C 94 % 1017,9 hPa 0,0 l/m 3,1 km/h (1 Bft) S 176 1 min 0,000 mm 0,0 UV-I 191 W/m 13,7 C 14,7 C 6,4 km/h (2 Bft) 100,00 %
06.06.2016 07:14 14,7 C 94 % 1017,9 hPa 0,0 l/m 3,4 km/h (1 Bft) W-SW 250 1 min 0,000 mm 0,2 UV-I 194 W/m 13,7 C 14,7 C 4,8 km/h (1 Bft) 95,83 %
06.06.2016 07:15 14,7 C 94 % 1017,9 hPa 0,0 l/m 4,9 km/h (1 Bft) SW 229 1 min 0,000 mm 0,5 UV-I 198 W/m 13,7 C 14,7 C 6,4 km/h (2 Bft) 95,65 %
06.06.2016 07:16 14,7 C 94 % 1017,9 hPa 0,0 l/m 6,1 km/h (2 Bft) SW 229 1 min 0,000 mm 0,5 UV-I 200 W/m 13,7 C 14,7 C 8,0 km/h (2 Bft) 100,00 %
06.06.2016 07:17 14,8 C 94 % 1017,8 hPa 0,0 l/m 5,1 km/h (1 Bft) SW 234 1 min 0,000 mm 0,5 UV-I 204 W/m 13,8 C 14,8 C 6,4 km/h (2 Bft) 88,46 %
06.06.2016 07:18 14,8 C 94 % 1017,8 hPa 0,0 l/m 4,1 km/h (1 Bft) SW 234 1 min 0,000 mm 0,5 UV-I 207 W/m 13,8 C 14,8 C 4,8 km/h (1 Bft) 100,00 %
06.06.2016 07:19 14,9 C 95 % 1017,8 hPa 0,0 l/m 5,6 km/h (1 Bft) SW 222 1 min 0,000 mm 0,5 UV-I 209 W/m 14,1 C 14,9 C 8,0 km/h (2 Bft) 91,67 %
06.06.2016 07:20 14,9 C 94 % 1017,9 hPa 0,0 l/m 5,4 km/h (1 Bft) SW 220 1 min 0,000 mm 0,5 UV-I 211 W/m 13,9 C 14,9 C 8,0 km/h (2 Bft) 96,15 %
06.06.2016 07:21 14,9 C 94 % 1017,8 hPa 0,0 l/m 5,1 km/h (1 Bft) SW 222 1 min 0,000 mm 0,5 UV-I 213 W/m 13,9 C 14,9 C 6,4 km/h (2 Bft) 96,30 %
06.06.2016 07:22 15,0 C 93 % 1017,8 hPa 0,0 l/m 4,2 km/h (1 Bft) W-SW 238 1 min 0,000 mm 0,5 UV-I 216 W/m 13,9 C 15,0 C 6,4 km/h (2 Bft) 95,65 %
06.06.2016 07:23 15,0 C 93 % 1017,8 hPa 0,0 l/m 5,4 km/h (1 Bft) SW 215 1 min 0,000 mm 0,5 UV-I 218 W/m 13,9 C 15,0 C 8,0 km/h (2 Bft) 95,83 %
06.06.2016 07:24 15,0 C 93 % 1017,9 hPa 0,0 l/m 4,7 km/h (1 Bft) SW 229 1 min 0,000 mm 0,5 UV-I 221 W/m 13,9 C 15,0 C 6,4 km/h (2 Bft) 100,00 %
06.06.2016 07:25 15,1 C 94 % 1017,9 hPa 0,0 l/m 5,0 km/h (1 Bft) W-SW 247 1 min 0,000 mm 0,5 UV-I 224 W/m 14,1 C 15,1 C 8,0 km/h (2 Bft) 100,00 %
06.06.2016 07:26 15,1 C 93 % 1017,9 hPa 0,0 l/m 6,4 km/h (2 Bft) SW 231 1 min 0,000 mm 0,6 UV-I 225 W/m 14,0 C 15,1 C 8,0 km/h (2 Bft) 91,30 %
06.06.2016 07:27 15,2 C 93 % 1017,9 hPa 0,0 l/m 4,3 km/h (1 Bft) SW 232 1 min 0,000 mm 0,6 UV-I 225 W/m 14,1 C 15,2 C 4,8 km/h (1 Bft) 100,00 %
06.06.2016 07:28 15,2 C 93 % 1017,9 hPa 0,0 l/m 5,4 km/h (1 Bft) SW 235 1 min 0,000 mm 0,6 UV-I 227 W/m 14,1 C 15,2 C 6,4 km/h (2 Bft) 95,65 %
06.06.2016 07:29 15,2 C 93 % 1017,9 hPa 0,0 l/m 6,3 km/h (2 Bft) SW 235 1 min 0,000 mm 0,6 UV-I 225 W/m 14,1 C 15,2 C 8,0 km/h (2 Bft) 100,00 %
06.06.2016 07:30 15,2 C 93 % 1017,9 hPa 0,0 l/m 5,0 km/h (1 Bft) SW 215 1 min 0,000 mm 0,6 UV-I 226 W/m 14,1 C 15,2 C 6,4 km/h (2 Bft) 100,00 %
06.06.2016 07:31 15,3 C 93 % 1017,9 hPa 0,0 l/m 6,1 km/h (2 Bft) SW 233 1 min 0,000 mm 0,6 UV-I 228 W/m 14,2 C 15,3 C 8,0 km/h (2 Bft) 100,00 %
06.06.2016 07:32 15,3 C 93 % 1017,9 hPa 0,0 l/m 5,8 km/h (2 Bft) SW 231 1 min 0,000 mm 0,6 UV-I 233 W/m 14,2 C 15,3 C 8,0 km/h (2 Bft) 100,00 %
06.06.2016 07:33 15,3 C 93 % 1017,9 hPa 0,0 l/m 4,0 km/h (1 Bft) S-SW 211 1 min 0,000 mm 0,6 UV-I 240 W/m 14,2 C 15,3 C 6,4 km/h (2 Bft) 100,00 %
06.06.2016 07:34 15,4 C 92 % 1017,9 hPa 0,0 l/m 5,1 km/h (1 Bft) S-SW 205 1 min 0,000 mm 0,6 UV-I 248 W/m 14,1 C 15,4 C 6,4 km/h (2 Bft) 96,15 %
06.06.2016 07:35 15,4 C 93 % 1017,9 hPa 0,0 l/m 5,5 km/h (1 Bft) S-SW 205 1 min 0,000 mm 0,7 UV-I 254 W/m 14,3 C 15,4 C 8,0 km/h (2 Bft) 96,30 %
06.06.2016 07:36 15,4 C 92 % 1017,9 hPa 0,0 l/m 4,8 km/h (1 Bft) SW 217 1 min 0,000 mm 0,7 UV-I 259 W/m 14,1 C 15,4 C 6,4 km/h (2 Bft) 92,86 %
06.06.2016 07:37 15,4 C 92 % 1018,0 hPa 0,0 l/m 5,1 km/h (1 Bft) SW 219 1 min 0,000 mm 0,7 UV-I 263 W/m 14,1 C 15,4 C 9,7 km/h (2 Bft) 95,83 %
06.06.2016 07:38 15,5 C 92 % 1018,0 hPa 0,0 l/m 5,2 km/h (1 Bft) S-SW 204 1 min 0,000 mm 0,7 UV-I 268 W/m 14,2 C 15,5 C 6,4 km/h (2 Bft) 100,00 %
06.06.2016 07:39 15,4 C 91 % 1017,9 hPa 0,0 l/m 7,4 km/h (2 Bft) SW 236 1 min 0,000 mm 0,7 UV-I 270 W/m 13,9 C 14,8 C 11,3 km/h (2 Bft) 100,00 %
06.06.2016 07:40 15,5 C 92 % 1017,9 hPa 0,0 l/m 5,3 km/h (1 Bft) S-SW 196 1 min 0,000 mm 0,7 UV-I 274 W/m 14,2 C 15,5 C 6,4 km/h (2 Bft) 100,00 %
06.06.2016 07:41 15,5 C 92 % 1018,0 hPa 0,0 l/m 5,4 km/h (1 Bft) S 186 1 min 0,000 mm 0,7 UV-I 278 W/m 14,2 C 15,5 C 9,7 km/h (2 Bft) 96,55 %
06.06.2016 07:42 15,6 C 91 % 1017,9 hPa 0,0 l/m 6,8 km/h (2 Bft) S-SW 196 1 min 0,000 mm 0,7 UV-I 280 W/m 14,1 C 15,4 C 11,3 km/h (2 Bft) 100,00 %
06.06.2016 07:43 15,6 C 91 % 1017,9 hPa 0,0 l/m 6,2 km/h (2 Bft) W-SW 241 1 min 0,000 mm 0,7 UV-I 282 W/m 14,1 C 15,6 C 8,0 km/h (2 Bft) 100,00 %
06.06.2016 07:44 15,6 C 91 % 1017,9 hPa 0,0 l/m 6,4 km/h (2 Bft) SW 231 1 min 0,000 mm 0,8 UV-I 284 W/m 14,1 C 15,6 C 8,0 km/h (2 Bft) 100,00 %
06.06.2016 07:45 15,6 C 92 % 1017,9 hPa 0,0 l/m 5,4 km/h (1 Bft) SW 222 1 min 0,000 mm 0,8 UV-I 286 W/m 14,3 C 15,6 C 6,4 km/h (2 Bft) 100,00 %
06.06.2016 07:46 15,6 C 92 % 1018,0 hPa 0,0 l/m 6,8 km/h (2 Bft) W-SW 239 1 min 0,000 mm 0,8 UV-I 290 W/m 14,3 C 15,4 C 8,0 km/h (2 Bft) 92,59 %
06.06.2016 07:47 15,6 C 92 % 1018,0 hPa 0,0 l/m 6,9 km/h (2 Bft) SW 235 1 min 0,000 mm 0,8 UV-I 292 W/m 14,3 C 15,3 C 8,0 km/h (2 Bft) 100,00 %
06.06.2016 07:48 15,7 C 92 % 1018,0 hPa 0,0 l/m 5,7 km/h (1 Bft) S 183 1 min 0,000 mm 0,8 UV-I 294 W/m 14,4 C 15,7 C 8,0 km/h (2 Bft) 100,00 %
06.06.2016 07:49 15,7 C 92 % 1018,0 hPa 0,0 l/m 3,5 km/h (1 Bft) SW 231 1 min 0,000 mm 0,8 UV-I 298 W/m 14,4 C 15,7 C 6,4 km/h (2 Bft) 100,00 %
06.06.2016 07:50 15,7 C 92 % 1018,0 hPa 0,0 l/m 3,5 km/h (1 Bft) S-SW 213 1 min 0,000 mm 0,8 UV-I 300 W/m 14,4 C 15,7 C 4,8 km/h (1 Bft) 100,00 %
06.06.2016 07:51 15,8 C 92 % 1018,0 hPa 0,0 l/m 3,1 km/h (1 Bft) S-SW 205 1 min 0,000 mm 0,9 UV-I 302 W/m 14,5 C 15,8 C 4,8 km/h (1 Bft) 100,00 %
06.06.2016 07:52 15,8 C 92 % 1018,0 hPa 0,0 l/m 3,1 km/h (1 Bft) S-SW 204 1 min 0,000 mm 0,9 UV-I 304 W/m 14,5 C 15,8 C 4,8 km/h (1 Bft) 100,00 %
06.06.2016 07:53 15,8 C 92 % 1018,0 hPa 0,0 l/m 4,3 km/h (1 Bft) W-SW 240 1 min 0,000 mm 0,9 UV-I 307 W/m 14,5 C 15,8 C 4,8 km/h (1 Bft) 100,00 %
06.06.2016 07:54 15,8 C 92 % 1018,0 hPa 0,0 l/m 3,6 km/h (1 Bft) S-SW 208 1 min 0,000 mm 0,9 UV-I 308 W/m 14,5 C 15,8 C 6,4 km/h (2 Bft) 100,00 %
06.06.2016 07:55 15,8 C 92 % 1018,1 hPa 0,0 l/m 5,1 km/h (1 Bft) W-SW 246 1 min 0,000 mm 0,9 UV-I 309 W/m 14,5 C 15,8 C 8,0 km/h (2 Bft) 100,00 %
06.06.2016 07:56 15,9 C 92 % 1018,1 hPa 0,0 l/m 5,0 km/h (1 Bft) W-SW 254 1 min 0,000 mm 0,9 UV-I 311 W/m 14,6 C 15,9 C 8,0 km/h (2 Bft) 100,00 %
06.06.2016 07:57 16,0 C 93 % 1018,1 hPa 0,0 l/m 3,1 km/h (1 Bft) S-SW 213 1 min 0,000 mm 0,9 UV-I 314 W/m 14,9 C 16,0 C 6,4 km/h (2 Bft) 100,00 %
06.06.2016 07:58 16,0 C 92 % 1018,1 hPa 0,0 l/m 5,3 km/h (1 Bft) W-SW 244 1 min 0,000 mm 0,9 UV-I 318 W/m 14,7 C 16,0 C 6,4 km/h (2 Bft) 100,00 %
06.06.2016 07:59 16,0 C 91 % 1018,1 hPa 0,0 l/m 4,2 km/h (1 Bft) S-SO 167 1 min 0,000 mm 1,0 UV-I 321 W/m 14,5 C 16,0 C 6,4 km/h (2 Bft) 100,00 %
06.06.2016 08:00 16,0 C 90 % 1018,1 hPa 0,0 l/m 3,9 km/h (1 Bft) W-SW 246 1 min 0,127 mm 1,0 UV-I 322 W/m 14,4 C 16,0 C 4,8 km/h (1 Bft) 100,00 %
06.06.2016 08:01 16,0 C 91 % 1018,1 hPa 0,0 l/m 3,0 km/h (1 Bft) SW 215 1 min 0,000 mm 1,0 UV-I 325 W/m 14,5 C 16,0 C 4,8 km/h (1 Bft) 100,00 %
06.06.2016 08:02 16,1 C 90 % 1018,1 hPa 0,0 l/m 7,2 km/h (2 Bft) S-SW 207 1 min 0,000 mm 1,0 UV-I 329 W/m 14,5 C 15,7 C 12,9 km/h (3 Bft) 100,00 %
06.06.2016 08:03 16,0 C 90 % 1018,0 hPa 0,0 l/m 5,1 km/h (1 Bft) SW 235 1 min 0,000 mm 1,0 UV-I 330 W/m 14,4 C 16,0 C 8,0 km/h (2 Bft) 100,00 %
06.06.2016 08:04 16,1 C 90 % 1018,0 hPa 0,0 l/m 3,8 km/h (1 Bft) S 191 1 min 0,000 mm 1,0 UV-I 334 W/m 14,5 C 16,1 C 6,4 km/h (2 Bft) 91,67 %
06.06.2016 08:05 16,1 C 90 % 1018,0 hPa 0,0 l/m 3,0 km/h (1 Bft) W-SW 241 1 min 0,000 mm 1,0 UV-I 336 W/m 14,5 C 16,1 C 4,8 km/h (1 Bft) 100,00 %
06.06.2016 08:06 16,1 C 90 % 1018,0 hPa 0,0 l/m 4,9 km/h (1 Bft) S-SW 204 1 min 0,000 mm 1,1 UV-I 339 W/m 14,5 C 16,1 C 8,0 km/h (2 Bft) 100,00 %
06.06.2016 08:07 16,2 C 90 % 1018,0 hPa 0,0 l/m 1,3 km/h (1 Bft) SW 219 1 min 0,000 mm 1,1 UV-I 342 W/m 14,6 C 16,2 C 4,8 km/h (1 Bft) 100,00 %
06.06.2016 08:08 16,2 C 91 % 1018,0 hPa 0,0 l/m 3,8 km/h (1 Bft) W-SW 244 1 min 0,000 mm 1,1 UV-I 343 W/m 14,7 C 16,2 C 6,4 km/h (2 Bft) 90,91 %
06.06.2016 08:09 16,3 C 91 % 1018,0 hPa 0,0 l/m 0,8 km/h (0 Bft) W-SW 244 1 min 0,000 mm 1,1 UV-I 343 W/m 14,8 C 16,3 C 1,6 km/h (1 Bft) 96,30 %
06.06.2016 08:10 16,3 C 90 % 1018,0 hPa 0,0 l/m 3,0 km/h (1 Bft) SW 214 1 min 0,000 mm 1,1 UV-I 347 W/m 14,7 C 16,3 C 4,8 km/h (1 Bft) 100,00 %
06.06.2016 08:11 16,4 C 90 % 1018,1 hPa 0,0 l/m 5,4 km/h (1 Bft) S 173 1 min 0,000 mm 1,2 UV-I 351 W/m 14,8 C 16,4 C 8,0 km/h (2 Bft) 100,00 %
06.06.2016 08:12 16,3 C 88 % 1018,2 hPa 0,0 l/m 3,1 km/h (1 Bft) SW 223 1 min 0,000 mm 1,2 UV-I 356 W/m 14,3 C 16,3 C 4,8 km/h (1 Bft) 100,00 %
06.06.2016 08:13 16,3 C 89 % 1018,2 hPa 0,0 l/m 3,2 km/h (1 Bft) S-SW 207 1 min 0,000 mm 1,2 UV-I 360 W/m 14,5 C 16,3 C 6,4 km/h (2 Bft) 100,00 %
06.06.2016 08:14 16,3 C 89 % 1018,2 hPa 0,0 l/m 2,7 km/h (1 Bft) SW 220 1 min 0,000 mm 1,2 UV-I 363 W/m 14,5 C 16,3 C 4,8 km/h (1 Bft) 100,00 %
06.06.2016 08:15 16,4 C 90 % 1018,2 hPa 0,0 l/m 4,2 km/h (1 Bft) W-SW 243 1 min 0,000 mm 1,2 UV-I 364 W/m 14,8 C 16,4 C 8,0 km/h (2 Bft) 100,00 %
06.06.2016 08:16 16,5 C 91 % 1018,2 hPa 0,0 l/m 4,3 km/h (1 Bft) SW 225 1 min 0,000 mm 1,3 UV-I 365 W/m 15,0 C 16,5 C 8,0 km/h (2 Bft) 100,00 %
06.06.2016 08:17 16,6 C 89 % 1018,2 hPa 0,0 l/m 3,8 km/h (1 Bft) SW 219 1 min 0,000 mm 1,3 UV-I 368 W/m 14,8 C 16,6 C 6,4 km/h (2 Bft) 100,00 %
06.06.2016 08:18 16,6 C 90 % 1018,2 hPa 0,0 l/m 2,0 km/h (1 Bft) S-SW 196 1 min 0,000 mm 1,3 UV-I 370 W/m 15,0 C 16,6 C 3,2 km/h (1 Bft) 100,00 %
06.06.2016 08:19 16,6 C 88 % 1018,2 hPa 0,0 l/m 5,2 km/h (1 Bft) S 182 1 min 0,000 mm 1,3 UV-I 372 W/m 14,6 C 16,6 C 8,0 km/h (2 Bft) 95,83 %
06.06.2016 08:20 16,6 C 88 % 1018,3 hPa 0,0 l/m 6,8 km/h (2 Bft) S 183 1 min 0,000 mm 1,3 UV-I 374 W/m 14,6 C 16,4 C 9,7 km/h (2 Bft) 96,15 %
06.06.2016 08:21 16,6 C 87 % 1018,3 hPa 0,0 l/m 5,1 km/h (1 Bft) S 178 1 min 0,000 mm 1,3 UV-I 376 W/m 14,4 C 16,6 C 6,4 km/h (2 Bft) 100,00 %
06.06.2016 08:22 16,6 C 87 % 1018,2 hPa 0,0 l/m 2,8 km/h (1 Bft) S-SW 203 1 min 0,000 mm 1,3 UV-I 382 W/m 14,4 C 16,6 C 4,8 km/h (1 Bft) 100,00 %
06.06.2016 08:23 16,6 C 88 % 1018,2 hPa 0,0 l/m 3,7 km/h (1 Bft) S 190 1 min 0,000 mm 1,4 UV-I 385 W/m 14,6 C 16,6 C 6,4 km/h (2 Bft) 100,00 %
06.06.2016 08:24 16,6 C 88 % 1018,2 hPa 0,0 l/m 4,2 km/h (1 Bft) S 173 1 min 0,000 mm 1,4 UV-I 390 W/m 14,6 C 16,6 C 4,8 km/h (1 Bft) 100,00 %
06.06.2016 08:25 16,7 C 88 % 1018,2 hPa 0,0 l/m 4,7 km/h (1 Bft) S 184 1 min 0,000 mm 1,4 UV-I 394 W/m 14,7 C 16,7 C 8,0 km/h (2 Bft) 96,15 %
06.06.2016 08:26 16,7 C 88 % 1018,2 hPa 0,0 l/m 4,5 km/h (1 Bft) S-SW 194 1 min 0,000 mm 1,4 UV-I 398 W/m 14,7 C 16,7 C 8,0 km/h (2 Bft) 100,00 %
06.06.2016 08:27 16,8 C 88 % 1018,2 hPa 0,0 l/m 7,8 km/h (2 Bft) S-SW 201 1 min 0,000 mm 1,4 UV-I 399 W/m 14,8 C 16,1 C 9,7 km/h (2 Bft) 95,65 %
06.06.2016 08:28 16,8 C 88 % 1018,2 hPa 0,0 l/m 6,4 km/h (2 Bft) S-SW 213 1 min 0,000 mm 1,5 UV-I 403 W/m 14,8 C 16,8 C 9,7 km/h (2 Bft) 100,00 %
06.06.2016 08:29 16,8 C 88 % 1018,2 hPa 0,0 l/m 5,4 km/h (1 Bft) SW 227 1 min 0,000 mm 1,5 UV-I 404 W/m 14,8 C 16,8 C 6,4 km/h (2 Bft) 100,00 %
06.06.2016 08:30 16,9 C 88 % 1018,2 hPa 0,0 l/m 5,8 km/h (2 Bft) S 187 1 min 0,000 mm 1,5 UV-I 405 W/m 14,9 C 16,9 C 9,7 km/h (2 Bft) 100,00 %
06.06.2016 08:31 16,9 C 88 % 1018,2 hPa 0,0 l/m 4,1 km/h (1 Bft) SW 235 1 min 0,000 mm 1,5 UV-I 409 W/m 14,9 C 16,9 C 4,8 km/h (1 Bft) 100,00 %
06.06.2016 08:32 16,8 C 87 % 1018,2 hPa 0,0 l/m 3,0 km/h (1 Bft) S-SW 192 1 min 0,000 mm 1,5 UV-I 410 W/m 14,6 C 16,8 C 6,4 km/h (2 Bft) 96,30 %
06.06.2016 08:33 16,9 C 88 % 1018,3 hPa 0,0 l/m 3,5 km/h (1 Bft) SW 224 1 min 0,000 mm 1,6 UV-I 413 W/m 14,9 C 16,9 C 4,8 km/h (1 Bft) 96,15 %
06.06.2016 08:34 16,9 C 89 % 1018,2 hPa 0,0 l/m 5,2 km/h (1 Bft) S-SW 205 1 min 0,000 mm 1,6 UV-I 416 W/m 15,1 C 16,9 C 8,0 km/h (2 Bft) 100,00 %
06.06.2016 08:35 16,9 C 87 % 1018,2 hPa 0,0 l/m 5,1 km/h (1 Bft) S 183 1 min 0,000 mm 1,6 UV-I 420 W/m 14,7 C 16,9 C 8,0 km/h (2 Bft) 100,00 %
06.06.2016 08:36 17,0 C 87 % 1018,2 hPa 0,0 l/m 3,3 km/h (1 Bft) S 188 1 min 0,000 mm 1,6 UV-I 425 W/m 14,8 C 17,0 C 6,4 km/h (2 Bft) 100,00 %
06.06.2016 08:37 17,0 C 88 % 1018,3 hPa 0,0 l/m 3,5 km/h (1 Bft) SW 226 1 min 0,000 mm 1,6 UV-I 429 W/m 15,0 C 17,0 C 4,8 km/h (1 Bft) 100,00 %
06.06.2016 08:38 17,1 C 87 % 1018,3 hPa 0,0 l/m 5,3 km/h (1 Bft) S-SW 201 1 min 0,000 mm 1,7 UV-I 432 W/m 14,9 C 17,1 C 8,0 km/h (2 Bft) 96,15 %
06.06.2016 08:40 17,1 C 87 % 1018,3 hPa 0,0 l/m 4,8 km/h (1 Bft) S 180 2 min 0,000 mm 1,7 UV-I 434 W/m 14,9 C 17,1 C 11,3 km/h (2 Bft) 100,00 %
06.06.2016 08:41 17,1 C 87 % 1018,3 hPa 0,0 l/m 4,5 km/h (1 Bft) S 180 1 min 0,000 mm 1,7 UV-I 439 W/m 14,9 C 17,1 C 6,4 km/h (2 Bft) 98,67 %
06.06.2016 08:42 17,1 C 88 % 1018,3 hPa 0,0 l/m 5,2 km/h (1 Bft) SW 216 1 min 0,000 mm 1,7 UV-I 443 W/m 15,1 C 17,1 C 8,0 km/h (2 Bft) 96,30 %
06.06.2016 08:43 17,1 C 86 % 1018,3 hPa 0,0 l/m 2,7 km/h (1 Bft) S-SO 163 1 min 0,000 mm 1,7 UV-I 445 W/m 14,7 C 17,1 C 4,8 km/h (1 Bft) 100,00 %
06.06.2016 08:44 17,1 C 86 % 1018,2 hPa 0,0 l/m 2,8 km/h (1 Bft) S 171 1 min 0,000 mm 1,8 UV-I 451 W/m 14,7 C 17,1 C 4,8 km/h (1 Bft) 96,55 %
06.06.2016 08:45 17,2 C 87 % 1018,3 hPa 0,0 l/m 6,5 km/h (2 Bft) S 173 1 min 0,000 mm 1,8 UV-I 455 W/m 15,0 C 17,2 C 11,3 km/h (2 Bft) 100,00 %
06.06.2016 08:46 17,2 C 87 % 1018,3 hPa 0,0 l/m 6,0 km/h (2 Bft) S 188 1 min 0,000 mm 1,8 UV-I 457 W/m 15,0 C 17,2 C 8,0 km/h (2 Bft) 100,00 %
06.06.2016 08:47 17,2 C 86 % 1018,3 hPa 0,0 l/m 4,8 km/h (1 Bft) S 180 1 min 0,000 mm 1,8 UV-I 464 W/m 14,8 C 17,2 C 8,0 km/h (2 Bft) 100,00 %
06.06.2016 08:49 17,3 C 87 % 1018,3 hPa 0,0 l/m 2,9 km/h (1 Bft) S-SW 193 2 min 0,000 mm 1,9 UV-I 468 W/m 15,1 C 17,3 C 4,8 km/h (1 Bft) 100,00 %
06.06.2016 08:51 17,4 C 87 % 1018,2 hPa 0,0 l/m 6,2 km/h (2 Bft) S-SW 206 2 min 0,000 mm 1,9 UV-I 474 W/m 15,2 C 17,4 C 9,7 km/h (2 Bft) 100,00 %
06.06.2016 08:52 17,4 C 86 % 1018,3 hPa 0,0 l/m 7,6 km/h (2 Bft) S-SW 207 1 min 0,000 mm 1,9 UV-I 474 W/m 15,0 C 16,8 C 9,7 km/h (2 Bft) 96,30 %
06.06.2016 08:53 17,4 C 86 % 1018,2 hPa 0,0 l/m 4,4 km/h (1 Bft) S-SW 209 1 min 0,000 mm 1,9 UV-I 479 W/m 15,0 C 17,4 C 9,7 km/h (2 Bft) 100,00 %
06.06.2016 08:54 17,5 C 86 % 1018,3 hPa 0,0 l/m 3,0 km/h (1 Bft) S-SW 196 1 min 0,000 mm 2,0 UV-I 480 W/m 15,1 C 17,5 C 4,8 km/h (1 Bft) 96,30 %
06.06.2016 08:55 17,6 C 87 % 1018,3 hPa 0,0 l/m 5,3 km/h (1 Bft) SW 232 1 min 0,000 mm 2,0 UV-I 479 W/m 15,4 C 17,6 C 8,0 km/h (2 Bft) 100,00 %
06.06.2016 08:56 17,6 C 87 % 1018,3 hPa 0,0 l/m 6,0 km/h (2 Bft) W 267 1 min 0,000 mm 2,0 UV-I 478 W/m 15,4 C 17,6 C 11,3 km/h (2 Bft) 96,67 %
06.06.2016 08:57 17,7 C 87 % 1018,3 hPa 0,0 l/m 6,4 km/h (2 Bft) SW 229 1 min 0,000 mm 2,0 UV-I 478 W/m 15,5 C 17,7 C 8,0 km/h (2 Bft) 95,65 %
06.06.2016 08:58 17,7 C 85 % 1018,3 hPa 0,0 l/m 6,6 km/h (2 Bft) SW 234 1 min 0,000 mm 2,1 UV-I 479 W/m 15,1 C 17,6 C 9,7 km/h (2 Bft) 100,00 %
06.06.2016 08:59 17,8 C 86 % 1018,3 hPa 0,0 l/m 4,7 km/h (1 Bft) SW 232 1 min 0,000 mm 2,1 UV-I 480 W/m 15,4 C 17,8 C 6,4 km/h (2 Bft) 95,65 %
06.06.2016 09:00 17,8 C 87 % 1018,3 hPa 0,0 l/m 4,0 km/h (1 Bft) SW 236 1 min 0,228 mm 2,1 UV-I 478 W/m 15,6 C 17,8 C 6,4 km/h (2 Bft) 98,60 %
06.06.2016 09:01 17,9 C 84 % 1018,3 hPa 0,0 l/m 5,4 km/h (1 Bft) W 259 1 min 0,000 mm 2,1 UV-I 474 W/m 15,2 C 17,9 C 8,0 km/h (2 Bft) 97,44 %
06.06.2016 09:02 17,9 C 84 % 1018,3 hPa 0,0 l/m 8,1 km/h (2 Bft) W 266 1 min 0,000 mm 2,2 UV-I 477 W/m 15,2 C 17,1 C 11,3 km/h (2 Bft) 100,00 %
06.06.2016 09:03 17,9 C 83 % 1018,3 hPa 0,0 l/m 7,6 km/h (2 Bft) W 279 1 min 0,000 mm 2,2 UV-I 475 W/m 15,0 C 17,3 C 11,3 km/h (2 Bft) 96,15 %
06.06.2016 09:04 17,9 C 84 % 1018,4 hPa 0,0 l/m 6,0 km/h (2 Bft) W-SW 239 1 min 0,000 mm 2,2 UV-I 472 W/m 15,2 C 17,9 C 8,0 km/h (2 Bft) 100,00 %
06.06.2016 09:05 17,9 C 84 % 1018,4 hPa 0,0 l/m 5,1 km/h (1 Bft) SW 229 1 min 0,000 mm 2,2 UV-I 469 W/m 15,2 C 17,9 C 6,4 km/h (2 Bft) 96,15 %
06.06.2016 09:06 17,9 C 84 % 1018,4 hPa 0,0 l/m 3,8 km/h (1 Bft) SW 234 1 min 0,000 mm 2,2 UV-I 467 W/m 15,2 C 17,9 C 4,8 km/h (1 Bft) 100,00 %
06.06.2016 09:07 17,9 C 85 % 1018,3 hPa 0,0 l/m 3,3 km/h (1 Bft) W-SW 251 1 min 0,000 mm 2,3 UV-I 464 W/m 15,3 C 17,9 C 4,8 km/h (1 Bft) 97,14 %
06.06.2016 09:08 18,0 C 85 % 1018,3 hPa 0,0 l/m 3,6 km/h (1 Bft) S-SW 192 1 min 0,000 mm 2,3 UV-I 460 W/m 15,4 C 18,0 C 4,8 km/h (1 Bft) 93,33 %
06.06.2016 09:09 18,0 C 85 % 1018,4 hPa 0,0 l/m 3,8 km/h (1 Bft) S 180 1 min 0,000 mm 2,3 UV-I 461 W/m 15,4 C 18,0 C 4,8 km/h (1 Bft) 100,00 %
06.06.2016 09:10 17,9 C 84 % 1018,4 hPa 0,0 l/m 3,8 km/h (1 Bft) S-SW 194 1 min 0,000 mm 2,3 UV-I 457 W/m 15,2 C 17,9 C 4,8 km/h (1 Bft) 96,15 %
06.06.2016 09:11 17,9 C 85 % 1018,3 hPa 0,0 l/m 4,0 km/h (1 Bft) W-SW 252 1 min 0,000 mm 2,4 UV-I 453 W/m 15,3 C 17,9 C 6,4 km/h (2 Bft) 100,00 %
06.06.2016 09:12 17,9 C 83 % 1018,4 hPa 0,0 l/m 1,0 km/h (0 Bft) SW 231 1 min 0,000 mm 2,4 UV-I 452 W/m 15,0 C 17,9 C 3,2 km/h (1 Bft) 96,15 %
06.06.2016 09:13 17,9 C 85 % 1018,4 hPa 0,0 l/m 1,4 km/h (1 Bft) W 269 1 min 0,000 mm 2,4 UV-I 455 W/m 15,3 C 17,9 C 3,2 km/h (1 Bft) 100,00 %
06.06.2016 09:14 18,0 C 84 % 1018,4 hPa 0,0 l/m 2,0 km/h (1 Bft) W 269 1 min 0,000 mm 2,5 UV-I 454 W/m 15,3 C 18,0 C 4,8 km/h (1 Bft) 96,55 %
06.06.2016 09:15 18,0 C 83 % 1018,3 hPa 0,0 l/m 4,8 km/h (1 Bft) W-SW 257 1 min 0,000 mm 2,5 UV-I 456 W/m 15,1 C 18,0 C 6,4 km/h (2 Bft) 96,30 %
06.06.2016 09:16 18,1 C 84 % 1018,3 hPa 0,0 l/m 5,5 km/h (1 Bft) S 190 1 min 0,000 mm 2,5 UV-I 456 W/m 15,4 C 18,1 C 6,4 km/h (2 Bft) 90,91 %
06.06.2016 09:17 18,1 C 85 % 1018,4 hPa 0,0 l/m 3,6 km/h (1 Bft) S 187 1 min 0,000 mm 2,5 UV-I 454 W/m 15,5 C 18,1 C 6,4 km/h (2 Bft) 96,55 %
06.06.2016 09:18 18,1 C 84 % 1018,4 hPa 0,0 l/m 1,0 km/h (0 Bft) S 187 1 min 0,000 mm 2,5 UV-I 448 W/m 15,4 C 18,1 C 1,6 km/h (1 Bft) 100,00 %
06.06.2016 09:19 18,1 C 85 % 1018,4 hPa 0,0 l/m 1,3 km/h (1 Bft) S 187 1 min 0,000 mm 2,6 UV-I 443 W/m 15,5 C 18,1 C 3,2 km/h (1 Bft) 95,83 %
06.06.2016 09:20 18,1 C 85 % 1018,4 hPa 0,0 l/m 1,8 km/h (1 Bft) S 187 1 min 0,000 mm 2,6 UV-I 446 W/m 15,5 C 18,1 C 3,2 km/h (1 Bft) 100,00 %
06.06.2016 09:21 18,2 C 85 % 1018,4 hPa 0,0 l/m 2,4 km/h (1 Bft) S 178 1 min 0,000 mm 2,6 UV-I 450 W/m 15,6 C 18,2 C 4,8 km/h (1 Bft) 96,30 %
06.06.2016 09:22 18,2 C 84 % 1018,4 hPa 0,0 l/m 5,0 km/h (1 Bft) S-SW 210 1 min 0,000 mm 2,6 UV-I 453 W/m 15,4 C 18,2 C 6,4 km/h (2 Bft) 100,00 %
06.06.2016 09:23 18,2 C 84 % 1018,4 hPa 0,0 l/m 5,2 km/h (1 Bft) SW 236 1 min 0,000 mm 2,6 UV-I 458 W/m 15,4 C 18,2 C 6,4 km/h (2 Bft) 95,65 %
06.06.2016 09:24 18,3 C 83 % 1018,4 hPa 0,0 l/m 3,8 km/h (1 Bft) W 268 1 min 0,000 mm 2,7 UV-I 463 W/m 15,4 C 18,3 C 4,8 km/h (1 Bft) 100,00 %
06.06.2016 09:25 18,3 C 84 % 1018,4 hPa 0,0 l/m 4,8 km/h (1 Bft) W-SW 251 1 min 0,000 mm 2,7 UV-I 469 W/m 15,5 C 18,3 C 6,4 km/h (2 Bft) 92,86 %
06.06.2016 09:26 18,4 C 83 % 1018,4 hPa 0,0 l/m 3,6 km/h (1 Bft) W-SW 251 1 min 0,000 mm 2,7 UV-I 478 W/m 15,5 C 18,4 C 6,4 km/h (2 Bft) 97,44 %
06.06.2016 09:27 18,4 C 81 % 1018,4 hPa 0,0 l/m 4,7 km/h (1 Bft) W-SW 256 1 min 0,000 mm 2,7 UV-I 485 W/m 15,1 C 18,4 C 6,4 km/h (2 Bft) 100,00 %
06.06.2016 09:28 18,5 C 81 % 1018,4 hPa 0,0 l/m 5,1 km/h (1 Bft) W 267 1 min 0,000 mm 2,8 UV-I 488 W/m 15,2 C 18,5 C 6,4 km/h (2 Bft) 100,00 %
06.06.2016 09:29 18,5 C 81 % 1018,4 hPa 0,0 l/m 1,7 km/h (1 Bft) W 274 1 min 0,000 mm 2,8 UV-I 497 W/m 15,2 C 18,5 C 3,2 km/h (1 Bft) 100,00 %
06.06.2016 09:30 18,6 C 82 % 1018,4 hPa 0,0 l/m 3,9 km/h (1 Bft) W 265 1 min 0,000 mm 2,8 UV-I 506 W/m 15,5 C 18,6 C 6,4 km/h (2 Bft) 100,00 %
06.06.2016 09:31 18,7 C 81 % 1018,4 hPa 0,0 l/m 6,0 km/h (2 Bft) S 187 1 min 0,000 mm 2,9 UV-I 518 W/m 15,4 C 18,7 C 8,0 km/h (2 Bft) 98,52 %
06.06.2016 09:32 18,7 C 81 % 1018,4 hPa 0,0 l/m 4,2 km/h (1 Bft) S 180 1 min 0,000 mm 2,9 UV-I 529 W/m 15,4 C 18,7 C 8,0 km/h (2 Bft) 97,73 %
06.06.2016 09:33 18,7 C 79 % 1018,4 hPa 0,0 l/m 3,4 km/h (1 Bft) W-SW 246 1 min 0,000 mm 2,9 UV-I 536 W/m 15,0 C 18,7 C 6,4 km/h (2 Bft) 100,00 %
06.06.2016 09:34 18,6 C 80 % 1018,4 hPa 0,0 l/m 2,1 km/h (1 Bft) S-SW 202 1 min 0,000 mm 2,9 UV-I 542 W/m 15,1 C 18,6 C 4,8 km/h (1 Bft) 100,00 %
06.06.2016 09:35 18,6 C 82 % 1018,4 hPa 0,0 l/m 2,9 km/h (1 Bft) W 259 1 min 0,000 mm 2,9 UV-I 513 W/m 15,5 C 18,6 C 6,4 km/h (2 Bft) 95,65 %
06.06.2016 09:36 18,7 C 79 % 1018,5 hPa 0,0 l/m 3,8 km/h (1 Bft) W 268 1 min 0,000 mm 3,0 UV-I 545 W/m 15,0 C 18,7 C 6,4 km/h (2 Bft) 95,83 %
06.06.2016 09:37 18,7 C 80 % 1018,5 hPa 0,0 l/m 2,2 km/h (1 Bft) W 268 1 min 0,000 mm 3,0 UV-I 573 W/m 15,2 C 18,7 C 3,2 km/h (1 Bft) 100,00 %
06.06.2016 09:38 18,7 C 79 % 1018,5 hPa 0,0 l/m 6,1 km/h (2 Bft) W-SW 245 1 min 0,000 mm 3,0 UV-I 586 W/m 15,0 C 18,7 C 8,0 km/h (2 Bft) 100,00 %
06.06.2016 09:39 18,7 C 78 % 1018,5 hPa 0,0 l/m 5,1 km/h (1 Bft) W-SW 250 1 min 0,000 mm 3,1 UV-I 594 W/m 14,8 C 18,7 C 8,0 km/h (2 Bft) 100,00 %
06.06.2016 09:40 18,7 C 78 % 1018,5 hPa 0,0 l/m 4,0 km/h (1 Bft) W 281 1 min 0,000 mm 3,1 UV-I 602 W/m 14,8 C 18,7 C 6,4 km/h (2 Bft) 100,00 %
06.06.2016 09:41 18,7 C 81 % 1018,5 hPa 0,0 l/m 5,0 km/h (1 Bft) W 261 1 min 0,000 mm 3,1 UV-I 611 W/m 15,4 C 18,7 C 6,4 km/h (2 Bft) 100,00 %
06.06.2016 09:42 18,8 C 78 % 1018,5 hPa 0,0 l/m 1,8 km/h (1 Bft) W 264 1 min 0,000 mm 3,1 UV-I 616 W/m 14,9 C 18,8 C 4,8 km/h (1 Bft) 100,00 %
06.06.2016 09:43 18,8 C 80 % 1018,5 hPa 0,0 l/m 2,2 km/h (1 Bft) W-NW 286 1 min 0,000 mm 3,2 UV-I 621 W/m 15,3 C 18,8 C 9,7 km/h (2 Bft) 100,00 %
06.06.2016 09:44 18,8 C 79 % 1018,5 hPa 0,0 l/m 7,6 km/h (2 Bft) SW 225 1 min 0,000 mm 3,2 UV-I 622 W/m 15,1 C 18,3 C 11,3 km/h (2 Bft) 100,00 %
06.06.2016 09:45 18,9 C 80 % 1018,5 hPa 0,0 l/m 4,8 km/h (1 Bft) SW 230 1 min 0,000 mm 3,2 UV-I 625 W/m 15,4 C 18,9 C 6,4 km/h (2 Bft) 100,00 %
06.06.2016 09:46 18,9 C 80 % 1018,5 hPa 0,0 l/m 3,8 km/h (1 Bft) SW 234 1 min 0,000 mm 3,2 UV-I 632 W/m 15,4 C 18,9 C 4,8 km/h (1 Bft) 91,30 %
06.06.2016 09:47 18,9 C 79 % 1018,5 hPa 0,0 l/m 4,0 km/h (1 Bft) W-SW 252 1 min 0,000 mm 3,2 UV-I 640 W/m 15,2 C 18,9 C 4,8 km/h (1 Bft) 91,67 %
06.06.2016 09:48 18,9 C 78 % 1018,5 hPa 0,0 l/m 2,1 km/h (1 Bft) W-SW 252 1 min 0,000 mm 3,3 UV-I 643 W/m 15,0 C 18,9 C 4,8 km/h (1 Bft) 100,00 %
06.06.2016 09:49 18,9 C 79 % 1018,5 hPa 0,0 l/m 1,2 km/h (1 Bft) W-SW 252 1 min 0,000 mm 3,3 UV-I 647 W/m 15,2 C 18,9 C 1,6 km/h (1 Bft) 100,00 %
06.06.2016 09:50 18,9 C 78 % 1018,5 hPa 0,0 l/m 1,3 km/h (1 Bft) W 275 1 min 0,000 mm 3,3 UV-I 653 W/m 15,0 C 18,9 C 4,8 km/h (1 Bft) 100,00 %
06.06.2016 09:51 18,9 C 78 % 1018,5 hPa 0,0 l/m 3,4 km/h (1 Bft) W 277 1 min 0,000 mm 3,3 UV-I 657 W/m 15,0 C 18,9 C 4,8 km/h (1 Bft) 100,00 %
06.06.2016 09:52 18,9 C 80 % 1018,5 hPa 0,0 l/m 2,0 km/h (1 Bft) W-NW 283 1 min 0,000 mm 3,4 UV-I 655 W/m 15,4 C 18,9 C 4,8 km/h (1 Bft) 100,00 %
06.06.2016 09:53 19,0 C 80 % 1018,5 hPa 0,0 l/m 1,3 km/h (1 Bft) W-NW 283 1 min 0,000 mm 3,4 UV-I 656 W/m 15,5 C 19,0 C 3,2 km/h (1 Bft) 100,00 %
06.06.2016 09:54 19,1 C 79 % 1018,6 hPa 0,0 l/m 1,3 km/h (1 Bft) S-SW 194 1 min 0,000 mm 3,4 UV-I 657 W/m 15,4 C 19,1 C 3,2 km/h (1 Bft) 98,54 %
06.06.2016 09:55 19,1 C 80 % 1018,6 hPa 0,0 l/m 5,1 km/h (1 Bft) S-SW 193 1 min 0,000 mm 3,4 UV-I 661 W/m 15,6 C 19,1 C 8,0 km/h (2 Bft) 100,00 %
06.06.2016 09:56 19,2 C 79 % 1018,6 hPa 0,0 l/m 3,8 km/h (1 Bft) S 180 1 min 0,000 mm 3,4 UV-I 665 W/m 15,5 C 19,2 C 4,8 km/h (1 Bft) 100,00 %
06.06.2016 09:57 19,2 C 78 % 1018,5 hPa 0,0 l/m 2,8 km/h (1 Bft) S 176 1 min 0,000 mm 3,5 UV-I 668 W/m 15,3 C 19,2 C 4,8 km/h (1 Bft) 100,00 %
06.06.2016 09:58 19,2 C 77 % 1018,5 hPa 0,0 l/m 6,8 km/h (2 Bft) S-SW 205 1 min 0,000 mm 3,5 UV-I 671 W/m 15,1 C 19,0 C 9,7 km/h (2 Bft) 100,00 %
06.06.2016 09:59 19,1 C 77 % 1018,5 hPa 0,0 l/m 2,9 km/h (1 Bft) S-SO 159 1 min 0,000 mm 3,5 UV-I 671 W/m 15,0 C 19,1 C 4,8 km/h (1 Bft) 100,00 %
06.06.2016 10:00 19,0 C 78 % 1018,6 hPa 0,0 l/m 3,1 km/h (1 Bft) S 173 1 min 0,000 mm 3,5 UV-I 670 W/m 15,1 C 19,0 C 6,4 km/h (2 Bft) 100,00 %
06.06.2016 10:01 18,9 C 79 % 1018,6 hPa 0,0 l/m 3,8 km/h (1 Bft) S-SO 148 1 min 0,305 mm 3,6 UV-I 670 W/m 15,2 C 18,9 C 6,4 km/h (2 Bft) 97,37 %
06.06.2016 10:02 18,9 C 80 % 1018,6 hPa 0,0 l/m 3,5 km/h (1 Bft) S-SO 156 1 min 0,000 mm 3,6 UV-I 670 W/m 15,4 C 18,9 C 6,4 km/h (2 Bft) 100,00 %
06.06.2016 10:03 19,2 C 81 % 1018,6 hPa 0,0 l/m 3,4 km/h (1 Bft) S-SO 155 1 min 0,000 mm 3,6 UV-I 672 W/m 15,9 C 19,2 C 6,4 km/h (2 Bft) 100,00 %
06.06.2016 10:04 19,3 C 80 % 1018,5 hPa 0,0 l/m 2,3 km/h (1 Bft) S-SO 150 1 min 0,000 mm 3,6 UV-I 677 W/m 15,8 C 19,3 C 4,8 km/h (1 Bft) 100,00 %
06.06.2016 10:05 19,5 C 84 % 1018,5 hPa 0,0 l/m 0,8 km/h (0 Bft) S-SO 151 1 min 0,000 mm 3,7 UV-I 679 W/m 16,7 C 19,5 C 1,6 km/h (1 Bft) 100,00 %
06.06.2016 10:06 19,6 C 80 % 1018,5 hPa 0,0 l/m 2,6 km/h (1 Bft) S-SW 209 1 min 0,000 mm 3,7 UV-I 677 W/m 16,1 C 19,6 C 6,4 km/h (2 Bft) 100,00 %
06.06.2016 10:07 19,7 C 82 % 1018,5 hPa 0,0 l/m 2,1 km/h (1 Bft) S-SW 208 1 min 0,000 mm 3,7 UV-I 679 W/m 16,5 C 19,7 C 3,2 km/h (1 Bft) 100,00 %
06.06.2016 10:08 19,7 C 79 % 1018,5 hPa 0,0 l/m 3,1 km/h (1 Bft) W-SW 253 1 min 0,000 mm 3,8 UV-I 682 W/m 16,0 C 19,7 C 3,2 km/h (1 Bft) 96,30 %
06.06.2016 10:09 19,7 C 79 % 1018,5 hPa 0,0 l/m 2,4 km/h (1 Bft) W-SW 246 1 min 0,000 mm 3,8 UV-I 686 W/m 16,0 C 19,7 C 3,2 km/h (1 Bft) 100,00 %
06.06.2016 10:10 19,8 C 80 % 1018,5 hPa 0,0 l/m 2,5 km/h (1 Bft) W-SW 248 1 min 0,000 mm 3,8 UV-I 690 W/m 16,2 C 19,8 C 4,8 km/h (1 Bft) 100,00 %
06.06.2016 10:11 19,8 C 79 % 1018,5 hPa 0,0 l/m 0,9 km/h (0 Bft) W-SW 248 1 min 0,000 mm 3,9 UV-I 691 W/m 16,0 C 19,8 C 3,2 km/h (1 Bft) 100,00 %
06.06.2016 10:12 19,8 C 78 % 1018,6 hPa 0,0 l/m 1,0 km/h (0 Bft) W-SW 248 1 min 0,000 mm 3,9 UV-I 688 W/m 15,8 C 19,8 C 1,6 km/h (1 Bft) 100,00 %
06.06.2016 10:13 19,8 C 77 % 1018,5 hPa 0,0 l/m 1,9 km/h (1 Bft) W-SW 248 1 min 0,000 mm 3,9 UV-I 688 W/m 15,6 C 19,8 C 3,2 km/h (1 Bft) 100,00 %
06.06.2016 10:14 19,7 C 78 % 1018,5 hPa 0,0 l/m 1,5 km/h (1 Bft) W 273 1 min 0,000 mm 3,9 UV-I 686 W/m 15,8 C 19,7 C 3,2 km/h (1 Bft) 100,00 %
06.06.2016 10:15 19,7 C 77 % 1018,5 hPa 0,0 l/m 3,6 km/h (1 Bft) W-SW 238 1 min 0,000 mm 3,9 UV-I 688 W/m 15,5 C 19,7 C 4,8 km/h (1 Bft) 100,00 %
06.06.2016 10:16 19,8 C 80 % 1018,5 hPa 0,0 l/m 4,5 km/h (1 Bft) W 271 1 min 0,000 mm 4,0 UV-I 672 W/m 16,2 C 19,8 C 6,4 km/h (2 Bft) 100,00 %
06.06.2016 10:17 19,9 C 76 % 1018,5 hPa 0,0 l/m 3,5 km/h (1 Bft) S 175 1 min 0,000 mm 4,0 UV-I 686 W/m 15,5 C 19,9 C 6,4 km/h (2 Bft) 95,65 %
06.06.2016 10:18 19,8 C 75 % 1018,5 hPa 0,0 l/m 1,7 km/h (1 Bft) S 171 1 min 0,000 mm 4,0 UV-I 693 W/m 15,2 C 19,8 C 3,2 km/h (1 Bft) 100,00 %
06.06.2016 10:19 19,8 C 78 % 1018,5 hPa 0,0 l/m 2,4 km/h (1 Bft) NW 316 1 min 0,000 mm 4,0 UV-I 697 W/m 15,8 C 19,8 C 4,8 km/h (1 Bft) 100,00 %
06.06.2016 10:20 19,9 C 79 % 1018,5 hPa 0,0 l/m 3,2 km/h (1 Bft) NW 311 1 min 0,000 mm 4,0 UV-I 700 W/m 16,1 C 19,9 C 4,8 km/h (1 Bft) 100,00 %
06.06.2016 10:21 19,9 C 80 % 1018,5 hPa 0,0 l/m 3,1 km/h (1 Bft) NW 305 1 min 0,000 mm 4,1 UV-I 703 W/m 16,3 C 19,9 C 4,8 km/h (1 Bft) 100,00 %
06.06.2016 10:22 19,9 C 75 % 1018,5 hPa 0,0 l/m 6,6 km/h (2 Bft) W 269 1 min 0,000 mm 4,1 UV-I 705 W/m 15,3 C 19,8 C 9,7 km/h (2 Bft) 95,83 %
06.06.2016 10:23 19,9 C 75 % 1018,5 hPa 0,0 l/m 8,0 km/h (2 Bft) W 263 1 min 0,000 mm 4,1 UV-I 705 W/m 15,3 C 19,2 C 12,9 km/h (3 Bft) 100,00 %
06.06.2016 10:24 19,8 C 74 % 1018,5 hPa 0,0 l/m 2,7 km/h (1 Bft) W 272 1 min 0,000 mm 4,1 UV-I 707 W/m 15,0 C 19,8 C 6,4 km/h (2 Bft) 100,00 %
06.06.2016 10:25 19,8 C 77 % 1018,5 hPa 0,0 l/m 7,8 km/h (2 Bft) W-SW 237 1 min 0,000 mm 4,2 UV-I 708 W/m 15,6 C 19,2 C 9,7 km/h (2 Bft) 100,00 %
06.06.2016 10:26 19,9 C 77 % 1018,5 hPa 0,0 l/m 5,0 km/h (1 Bft) S-SW 213 1 min 0,000 mm 4,2 UV-I 707 W/m 15,7 C 19,9 C 6,4 km/h (2 Bft) 96,15 %
06.06.2016 10:27 19,9 C 75 % 1018,5 hPa 0,0 l/m 2,0 km/h (1 Bft) S-SW 213 1 min 0,000 mm 4,2 UV-I 707 W/m 15,3 C 19,9 C 3,2 km/h (1 Bft) 96,67 %
06.06.2016 10:28 19,8 C 76 % 1018,5 hPa 0,0 l/m 2,7 km/h (1 Bft) W-SW 240 1 min 0,000 mm 4,2 UV-I 709 W/m 15,4 C 19,8 C 4,8 km/h (1 Bft) 100,00 %
06.06.2016 10:29 19,8 C 76 % 1018,4 hPa 0,0 l/m 3,1 km/h (1 Bft) SW 215 1 min 0,000 mm 4,3 UV-I 713 W/m 15,4 C 19,8 C 4,8 km/h (1 Bft) 100,00 %
06.06.2016 10:30 19,7 C 75 % 1018,5 hPa 0,0 l/m 2,3 km/h (1 Bft) S-SO 147 1 min 0,000 mm 4,3 UV-I 717 W/m 15,1 C 19,7 C 3,2 km/h (1 Bft) 100,00 %
06.06.2016 10:31 19,7 C 75 % 1018,5 hPa 0,0 l/m 3,2 km/h (1 Bft) SO 137 1 min 0,000 mm 4,3 UV-I 720 W/m 15,1 C 19,7 C 4,8 km/h (1 Bft) 100,00 %
06.06.2016 10:32 19,7 C 77 % 1018,5 hPa 0,0 l/m 2,7 km/h (1 Bft) SO 142 1 min 0,000 mm 4,3 UV-I 720 W/m 15,5 C 19,7 C 4,8 km/h (1 Bft) 100,00 %
06.06.2016 10:33 19,7 C 77 % 1018,4 hPa 0,0 l/m 3,6 km/h (1 Bft) SW 214 1 min 0,000 mm 4,3 UV-I 722 W/m 15,5 C 19,7 C 4,8 km/h (1 Bft) 100,00 %
06.06.2016 10:34 19,7 C 77 % 1018,4 hPa 0,0 l/m 1,7 km/h (1 Bft) S-SW 207 1 min 0,000 mm 4,4 UV-I 725 W/m 15,5 C 19,7 C 4,8 km/h (1 Bft) 100,00 %
06.06.2016 10:35 19,7 C 75 % 1018,4 hPa 0,0 l/m 1,5 km/h (1 Bft) S-SW 207 1 min 0,000 mm 4,4 UV-I 728 W/m 15,1 C 19,7 C 3,2 km/h (1 Bft) 100,00 %
06.06.2016 10:36 19,7 C 75 % 1018,4 hPa 0,0 l/m 0,9 km/h (0 Bft) S-SW 207 1 min 0,000 mm 4,5 UV-I 695 W/m 15,1 C 19,7 C 3,2 km/h (1 Bft) 100,00 %
06.06.2016 10:37 19,8 C 78 % 1018,4 hPa 0,0 l/m 7,4 km/h (2 Bft) W-SW 250 1 min 0,000 mm 4,5 UV-I 735 W/m 15,8 C 19,4 C 9,7 km/h (2 Bft) 100,00 %
06.06.2016 10:38 19,9 C 76 % 1018,4 hPa 0,0 l/m 7,2 km/h (2 Bft) W-SW 255 1 min 0,000 mm 4,5 UV-I 722 W/m 15,5 C 19,6 C 11,3 km/h (2 Bft) 100,00 %
06.06.2016 10:39 20,0 C 76 % 1018,4 hPa 0,0 l/m 6,0 km/h (2 Bft) SW 227 1 min 0,000 mm 4,5 UV-I 716 W/m 15,6 C 20,0 C 8,0 km/h (2 Bft) 100,00 %
06.06.2016 10:40 20,0 C 74 % 1018,4 hPa 0,0 l/m 3,6 km/h (1 Bft) SW 234 1 min 0,000 mm 4,6 UV-I 702 W/m 15,2 C 20,0 C 6,4 km/h (2 Bft) 96,15 %
06.06.2016 10:41 20,0 C 74 % 1018,4 hPa 0,0 l/m 4,8 km/h (1 Bft) SW 234 1 min 0,000 mm 4,6 UV-I 694 W/m 15,2 C 20,0 C 4,8 km/h (1 Bft) 98,64 %
06.06.2016 10:43 20,1 C 76 % 1018,4 hPa 0,0 l/m 3,5 km/h (1 Bft) S 178 2 min 0,000 mm 4,6 UV-I 738 W/m 15,7 C 20,1 C 4,8 km/h (1 Bft) 100,00 %
06.06.2016 10:44 20,1 C 75 % 1018,4 hPa 0,0 l/m 1,9 km/h (1 Bft) S 178 1 min 0,000 mm 4,6 UV-I 736 W/m 15,5 C 20,1 C 3,2 km/h (1 Bft) 100,00 %
06.06.2016 10:45 20,1 C 73 % 1018,4 hPa 0,0 l/m 3,1 km/h (1 Bft) S 178 1 min 0,000 mm 4,6 UV-I 734 W/m 15,1 C 20,1 C 4,8 km/h (1 Bft) 100,00 %
06.06.2016 10:46 20,0 C 73 % 1018,4 hPa 0,0 l/m 3,2 km/h (1 Bft) S-SO 150 1 min 0,000 mm 4,7 UV-I 741 W/m 15,0 C 20,0 C 6,4 km/h (2 Bft) 100,00 %
06.06.2016 10:47 20,0 C 75 % 1018,4 hPa 0,0 l/m 2,7 km/h (1 Bft) W-SW 243 1 min 0,000 mm 4,7 UV-I 740 W/m 15,4 C 20,0 C 4,8 km/h (1 Bft) 100,00 %
06.06.2016 10:48 20,1 C 75 % 1018,4 hPa 0,0 l/m 2,3 km/h (1 Bft) SW 233 1 min 0,000 mm 4,7 UV-I 741 W/m 15,5 C 20,1 C 3,2 km/h (1 Bft) 100,00 %
06.06.2016 10:49 20,1 C 73 % 1018,5 hPa 0,0 l/m 0,8 km/h (0 Bft) SW 233 1 min 0,000 mm 4,7 UV-I 741 W/m 15,1 C 20,1 C 1,6 km/h (1 Bft) 100,00 %
06.06.2016 10:50 20,1 C 74 % 1018,5 hPa 0,0 l/m 2,9 km/h (1 Bft) SW 227 1 min 0,000 mm 4,7 UV-I 749 W/m 15,3 C 20,1 C 4,8 km/h (1 Bft) 100,00 %
06.06.2016 10:51 20,2 C 73 % 1018,5 hPa 0,0 l/m 3,3 km/h (1 Bft) S-SW 194 1 min 0,000 mm 4,8 UV-I 755 W/m 15,2 C 20,2 C 6,4 km/h (2 Bft) 100,00 %
06.06.2016 10:52 20,2 C 74 % 1018,5 hPa 0,0 l/m 4,8 km/h (1 Bft) S-SW 211 1 min 0,000 mm 4,8 UV-I 760 W/m 15,4 C 20,2 C 8,0 km/h (2 Bft) 96,30 %
06.06.2016 10:53 20,2 C 72 % 1018,5 hPa 0,0 l/m 4,9 km/h (1 Bft) SW 215 1 min 0,000 mm 4,9 UV-I 761 W/m 15,0 C 20,2 C 6,4 km/h (2 Bft) 96,15 %
06.06.2016 10:54 20,2 C 72 % 1018,5 hPa 0,0 l/m 3,8 km/h (1 Bft) SW 231 1 min 0,000 mm 4,9 UV-I 766 W/m 15,0 C 20,2 C 8,0 km/h (2 Bft) 95,83 %
06.06.2016 10:55 20,2 C 74 % 1018,5 hPa 0,0 l/m 0,6 km/h (0 Bft) SW 231 1 min 0,000 mm 4,9 UV-I 769 W/m 15,4 C 20,2 C 3,2 km/h (1 Bft) 100,00 %
06.06.2016 10:56 20,3 C 76 % 1018,5 hPa 0,0 l/m 0,2 km/h (0 Bft) SW 231 1 min 0,000 mm 4,9 UV-I 770 W/m 15,9 C 20,3 C 1,6 km/h (1 Bft) 95,83 %
06.06.2016 10:57 20,3 C 72 % 1018,5 hPa 0,0 l/m 4,3 km/h (1 Bft) W 264 1 min 0,000 mm 4,9 UV-I 770 W/m 15,1 C 20,3 C 6,4 km/h (2 Bft) 91,67 %
06.06.2016 10:58 20,3 C 73 % 1018,5 hPa 0,0 l/m 3,7 km/h (1 Bft) W 267 1 min 0,000 mm 5,0 UV-I 771 W/m 15,3 C 20,3 C 4,8 km/h (1 Bft) 96,55 %
06.06.2016 10:59 20,3 C 74 % 1018,5 hPa 0,0 l/m 5,4 km/h (1 Bft) SW 223 1 min 0,000 mm 5,0 UV-I 773 W/m 15,5 C 20,3 C 6,4 km/h (2 Bft) 96,55 %
06.06.2016 11:00 20,4 C 74 % 1018,5 hPa 0,0 l/m 4,7 km/h (1 Bft) SW 232 1 min 0,407 mm 5,0 UV-I 772 W/m 15,6 C 20,4 C 6,4 km/h (2 Bft) 100,00 %
06.06.2016 11:02 20,4 C 71 % 1018,5 hPa 0,0 l/m 1,6 km/h (1 Bft) SW 234 2 min 0,000 mm 5,1 UV-I 775 W/m 15,0 C 20,4 C 3,2 km/h (1 Bft) 96,00 %
06.06.2016 11:03 20,4 C 72 % 1018,5 hPa 0,0 l/m 0,1 km/h (0 Bft) SW 234 1 min 0,000 mm 5,1 UV-I 776 W/m 15,2 C 20,4 C 1,6 km/h (1 Bft) 91,67 %
06.06.2016 11:04 20,4 C 72 % 1018,4 hPa 0,0 l/m 2,3 km/h (1 Bft) O-SO 118 1 min 0,000 mm 5,1 UV-I 776 W/m 15,2 C 20,4 C 6,4 km/h (2 Bft) 100,00 %
06.06.2016 11:05 20,4 C 72 % 1018,4 hPa 0,0 l/m 4,5 km/h (1 Bft) O 93 1 min 0,000 mm 5,1 UV-I 779 W/m 15,2 C 20,4 C 6,4 km/h (2 Bft) 95,83 %
06.06.2016 11:06 20,4 C 73 % 1018,5 hPa 0,0 l/m 2,8 km/h (1 Bft) O 93 1 min 0,000 mm 5,1 UV-I 780 W/m 15,4 C 20,4 C 4,8 km/h (1 Bft) 92,86 %
06.06.2016 11:07 20,4 C 71 % 1018,4 hPa 0,0 l/m 2,3 km/h (1 Bft) O 93 1 min 0,000 mm 5,2 UV-I 780 W/m 15,0 C 20,4 C 3,2 km/h (1 Bft) 96,97 %
06.06.2016 11:08 20,4 C 72 % 1018,4 hPa 0,0 l/m 1,2 km/h (1 Bft) O 92 1 min 0,000 mm 5,2 UV-I 782 W/m 15,2 C 20,4 C 3,2 km/h (1 Bft) 95,65 %
06.06.2016 11:09 20,5 C 75 % 1018,4 hPa 0,0 l/m 1,3 km/h (1 Bft) SW 218 1 min 0,000 mm 5,3 UV-I 787 W/m 15,9 C 20,5 C 6,4 km/h (2 Bft) 100,00 %
06.06.2016 11:10 20,7 C 75 % 1018,4 hPa 0,0 l/m 2,5 km/h (1 Bft) W-SW 240 1 min 0,000 mm 5,3 UV-I 792 W/m 16,1 C 20,7 C 6,4 km/h (2 Bft) 92,31 %
06.06.2016 11:11 20,8 C 74 % 1018,4 hPa 0,0 l/m 4,2 km/h (1 Bft) S-SW 197 1 min 0,000 mm 5,3 UV-I 796 W/m 16,0 C 20,8 C 6,4 km/h (2 Bft) 100,00 %
06.06.2016 11:12 20,8 C 71 % 1018,4 hPa 0,0 l/m 3,7 km/h (1 Bft) S-SW 205 1 min 0,000 mm 5,3 UV-I 798 W/m 15,3 C 20,8 C 6,4 km/h (2 Bft) 94,29 %
06.06.2016 11:13 20,8 C 71 % 1018,4 hPa 0,0 l/m 3,7 km/h (1 Bft) S-SW 193 1 min 0,000 mm 5,3 UV-I 798 W/m 15,3 C 20,8 C 6,4 km/h (2 Bft) 100,00 %
06.06.2016 11:14 20,9 C 74 % 1018,4 hPa 0,0 l/m 3,4 km/h (1 Bft) SW 234 1 min 0,000 mm 5,3 UV-I 797 W/m 16,1 C 20,9 C 6,4 km/h (2 Bft) 92,31 %
06.06.2016 11:15 21,1 C 73 % 1018,4 hPa 0,0 l/m 5,1 km/h (1 Bft) W-SW 249 1 min 0,000 mm 5,4 UV-I 796 W/m 16,1 C 21,1 C 6,4 km/h (2 Bft) 100,00 %
06.06.2016 11:16 21,1 C 70 % 1018,4 hPa 0,0 l/m 3,6 km/h (1 Bft) W-SW 254 1 min 0,000 mm 5,4 UV-I 798 W/m 15,4 C 21,1 C 4,8 km/h (1 Bft) 91,30 %
06.06.2016 11:17 21,1 C 72 % 1018,4 hPa 0,0 l/m 5,4 km/h (1 Bft) W 259 1 min 0,000 mm 5,4 UV-I 796 W/m 15,8 C 21,1 C 8,0 km/h (2 Bft) 95,83 %
06.06.2016 11:18 21,2 C 71 % 1018,4 hPa 0,0 l/m 4,7 km/h (1 Bft) W-SW 250 1 min 0,000 mm 5,4 UV-I 799 W/m 15,7 C 21,2 C 9,7 km/h (2 Bft) 100,00 %
06.06.2016 11:19 21,2 C 71 % 1018,4 hPa 0,0 l/m 2,6 km/h (1 Bft) W-SW 244 1 min 0,000 mm 5,4 UV-I 801 W/m 15,7 C 21,2 C 4,8 km/h (1 Bft) 95,83 %
06.06.2016 11:20 21,1 C 69 % 1018,4 hPa 0,0 l/m 2,7 km/h (1 Bft) W-SW 244 1 min 0,000 mm 5,4 UV-I 801 W/m 15,2 C 21,1 C 4,8 km/h (1 Bft) 100,00 %
06.06.2016 11:21 20,9 C 71 % 1018,4 hPa 0,0 l/m 1,1 km/h (1 Bft) W-SW 244 1 min 0,000 mm 5,5 UV-I 802 W/m 15,4 C 20,9 C 3,2 km/h (1 Bft) 95,83 %
06.06.2016 11:22 21,1 C 75 % 1018,4 hPa 0,0 l/m 0,3 km/h (0 Bft) W-SW 244 1 min 0,000 mm 5,5 UV-I 805 W/m 16,5 C 21,1 C 1,6 km/h (1 Bft) 100,00 %
06.06.2016 11:23 21,1 C 72 % 1018,4 hPa 0,0 l/m 2,3 km/h (1 Bft) W-SW 244 1 min 0,000 mm 5,5 UV-I 809 W/m 15,8 C 21,1 C 4,8 km/h (1 Bft) 83,33 %
06.06.2016 11:24 21,2 C 73 % 1018,4 hPa 0,0 l/m 2,5 km/h (1 Bft) W 262 1 min 0,000 mm 5,6 UV-I 810 W/m 16,2 C 21,2 C 3,2 km/h (1 Bft) 92,59 %
06.06.2016 11:25 21,2 C 70 % 1018,4 hPa 0,0 l/m 3,4 km/h (1 Bft) W 265 1 min 0,000 mm 5,5 UV-I 808 W/m 15,5 C 21,2 C 4,8 km/h (1 Bft) 100,00 %
06.06.2016 11:26 21,3 C 69 % 1018,4 hPa 0,0 l/m 1,4 km/h (1 Bft) N-NW 331 1 min 0,000 mm 5,6 UV-I 811 W/m 15,4 C 21,3 C 4,8 km/h (1 Bft) 100,00 %
06.06.2016 11:27 21,3 C 73 % 1018,4 hPa 0,0 l/m 3,9 km/h (1 Bft) NW 316 1 min 0,000 mm 5,6 UV-I 813 W/m 16,3 C 21,3 C 6,4 km/h (2 Bft) 100,00 %
06.06.2016 11:28 21,3 C 72 % 1018,4 hPa 0,0 l/m 3,4 km/h (1 Bft) W-NW 296 1 min 0,000 mm 5,6 UV-I 816 W/m 16,0 C 21,3 C 6,4 km/h (2 Bft) 91,67 %
06.06.2016 11:29 21,3 C 72 % 1018,4 hPa 0,0 l/m 2,5 km/h (1 Bft) N-NW 327 1 min 0,000 mm 5,7 UV-I 827 W/m 16,0 C 21,3 C 4,8 km/h (1 Bft) 100,00 %
06.06.2016 11:30 21,3 C 72 % 1018,4 hPa 0,0 l/m 0,4 km/h (0 Bft) N-NW 333 1 min 0,000 mm 5,7 UV-I 829 W/m 16,0 C 21,3 C 1,6 km/h (1 Bft) 100,00 %
06.06.2016 11:31 21,4 C 76 % 1018,4 hPa 0,0 l/m 1,8 km/h (1 Bft) N-NW 327 1 min 0,000 mm 5,7 UV-I 825 W/m 17,0 C 21,4 C 4,8 km/h (1 Bft) 100,00 %
06.06.2016 11:32 21,4 C 73 % 1018,4 hPa 0,0 l/m 1,3 km/h (1 Bft) W-NW 292 1 min 0,000 mm 5,7 UV-I 824 W/m 16,4 C 21,4 C 3,2 km/h (1 Bft) 100,00 %
06.06.2016 11:33 21,4 C 71 % 1018,4 hPa 0,0 l/m 4,6 km/h (1 Bft) W-SW 256 1 min 0,000 mm 5,8 UV-I 827 W/m 15,9 C 21,4 C 6,4 km/h (2 Bft) 100,00 %
06.06.2016 11:34 21,4 C 70 % 1018,4 hPa 0,0 l/m 2,0 km/h (1 Bft) W 267 1 min 0,000 mm 5,7 UV-I 824 W/m 15,7 C 21,4 C 4,8 km/h (1 Bft) 100,00 %
06.06.2016 11:35 21,5 C 73 % 1018,4 hPa 0,0 l/m 3,6 km/h (1 Bft) NW 306 1 min 0,000 mm 5,7 UV-I 817 W/m 16,4 C 21,5 C 4,8 km/h (1 Bft) 95,65 %
06.06.2016 11:36 21,6 C 73 % 1018,4 hPa 0,0 l/m 4,3 km/h (1 Bft) W-NW 294 1 min 0,000 mm 5,7 UV-I 816 W/m 16,5 C 21,6 C 6,4 km/h (2 Bft) 100,00 %
06.06.2016 11:37 21,6 C 69 % 1018,4 hPa 0,0 l/m 3,1 km/h (1 Bft) W-NW 294 1 min 0,000 mm 5,7 UV-I 818 W/m 15,7 C 21,6 C 4,8 km/h (1 Bft) 92,31 %
06.06.2016 11:38 21,6 C 73 % 1018,4 hPa 0,0 l/m 3,2 km/h (1 Bft) N-NO 18 1 min 0,000 mm 5,8 UV-I 823 W/m 16,5 C 21,6 C 4,8 km/h (1 Bft) 100,00 %
06.06.2016 11:39 21,7 C 74 % 1018,4 hPa 0,0 l/m 3,0 km/h (1 Bft) N-NO 21 1 min 0,000 mm 5,8 UV-I 829 W/m 16,9 C 21,7 C 4,8 km/h (1 Bft) 100,00 %
06.06.2016 11:40 21,7 C 73 % 1018,4 hPa 0,0 l/m 4,8 km/h (1 Bft) N-NO 21 1 min 0,000 mm 5,9 UV-I 831 W/m 16,6 C 21,7 C 4,8 km/h (1 Bft) 100,00 %
06.06.2016 11:41 21,8 C 72 % 1018,4 hPa 0,0 l/m 2,6 km/h (1 Bft) N-NO 19 1 min 0,000 mm 5,9 UV-I 833 W/m 16,5 C 21,8 C 4,8 km/h (1 Bft) 100,00 %
06.06.2016 11:42 21,8 C 70 % 1018,4 hPa 0,0 l/m 1,2 km/h (1 Bft) N-NO 19 1 min 0,000 mm 5,9 UV-I 837 W/m 16,1 C 21,8 C 3,2 km/h (1 Bft) 100,00 %
06.06.2016 11:43 21,8 C 74 % 1018,4 hPa 0,0 l/m 1,0 km/h (0 Bft) N 350 1 min 0,000 mm 5,9 UV-I 839 W/m 17,0 C 21,8 C 1,6 km/h (1 Bft) 100,00 %
06.06.2016 11:44 21,9 C 73 % 1018,4 hPa 0,0 l/m 2,3 km/h (1 Bft) NW 325 1 min 0,000 mm 6,0 UV-I 843 W/m 16,8 C 21,9 C 3,2 km/h (1 Bft) 100,00 %
06.06.2016 11:45 21,9 C 71 % 1018,4 hPa 0,0 l/m 2,6 km/h (1 Bft) NW 304 1 min 0,000 mm 6,0 UV-I 862 W/m 16,4 C 21,9 C 4,8 km/h (1 Bft) 100,00 %
06.06.2016 11:46 21,9 C 66 % 1018,4 hPa 0,0 l/m 2,2 km/h (1 Bft) NW 304 1 min 0,000 mm 5,3 UV-I 867 W/m 15,3 C 21,9 C 3,2 km/h (1 Bft) 100,00 %
06.06.2016 11:47 21,8 C 67 % 1018,4 hPa 0,0 l/m 0,6 km/h (0 Bft) NW 304 1 min 0,000 mm 5,8 UV-I 871 W/m 15,4 C 21,8 C 1,6 km/h (1 Bft) 100,00 %
06.06.2016 11:48 21,7 C 70 % 1018,4 hPa 0,0 l/m 2,4 km/h (1 Bft) N-NO 15 1 min 0,000 mm 5,6 UV-I 882 W/m 16,0 C 21,7 C 4,8 km/h (1 Bft) 100,00 %
06.06.2016 11:49 21,7 C 68 % 1018,4 hPa 0,0 l/m 1,9 km/h (1 Bft) N-NO 15 1 min 0,000 mm 3,6 UV-I 546 W/m 15,5 C 21,7 C 3,2 km/h (1 Bft) 100,00 %
06.06.2016 11:50 21,6 C 67 % 1018,4 hPa 0,0 l/m 1,4 km/h (1 Bft) NW 325 0 min 0,000 mm 5,1 UV-I 209 W/m 15,2 C 21,6 C 3,2 km/h (1 Bft) 100,00 %
06.06.2016 11:51 21,6 C 72 % 1018,4 hPa 0,0 l/m 3,0 km/h (1 Bft) NW 306 0 min 0,000 mm 6,0 UV-I 209 W/m 16,3 C 21,6 C 4,8 km/h (1 Bft) 100,00 %
06.06.2016 11:52 21,6 C 70 % 1018,4 hPa 0,0 l/m 2,0 km/h (1 Bft) NW 320 1 min 0,000 mm 6,1 UV-I 833 W/m 15,9 C 21,6 C 4,8 km/h (1 Bft) 100,00 %
06.06.2016 11:53 21,7 C 73 % 1018,4 hPa 0,0 l/m 1,7 km/h (1 Bft) N-NW 335 1 min 0,000 mm 6,1 UV-I 867 W/m 16,6 C 21,7 C 3,2 km/h (1 Bft) 100,00 %
06.06.2016 11:54 21,7 C 70 % 1018,4 hPa 0,0 l/m 1,6 km/h (1 Bft) N-NO 13 1 min 0,000 mm 6,1 UV-I 868 W/m 16,0 C 21,7 C 4,8 km/h (1 Bft) 100,00 %
06.06.2016 11:55 21,8 C 71 % 1018,4 hPa 0,0 l/m 3,2 km/h (1 Bft) N-NW 328 1 min 0,000 mm 6,1 UV-I 865 W/m 16,3 C 21,8 C 4,8 km/h (1 Bft) 100,00 %
06.06.2016 11:56 21,9 C 74 % 1018,4 hPa 0,0 l/m 3,2 km/h (1 Bft) N-NW 327 1 min 0,000 mm 6,1 UV-I 854 W/m 17,0 C 21,9 C 6,4 km/h (2 Bft) 100,00 %
06.06.2016 11:57 22,1 C 73 % 1018,4 hPa 0,0 l/m 2,3 km/h (1 Bft) N-NW 343 1 min 0,000 mm 6,1 UV-I 853 W/m 17,0 C 22,1 C 4,8 km/h (1 Bft) 100,00 %
06.06.2016 11:58 22,1 C 71 % 1018,4 hPa 0,0 l/m 3,7 km/h (1 Bft) NW 311 1 min 0,000 mm 6,1 UV-I 853 W/m 16,6 C 22,1 C 4,8 km/h (1 Bft) 100,00 %
06.06.2016 11:59 22,1 C 69 % 1018,4 hPa 0,0 l/m 3,7 km/h (1 Bft) N-NW 339 1 min 0,000 mm 6,1 UV-I 848 W/m 16,1 C 22,1 C 6,4 km/h (2 Bft) 100,00 %
06.06.2016 12:00 22,1 C 70 % 1018,4 hPa 0,0 l/m 1,9 km/h (1 Bft) NW 324 1 min 0,482 mm 6,1 UV-I 849 W/m 16,4 C 22,1 C 4,8 km/h (1 Bft) 100,00 %
06.06.2016 12:01 22,0 C 70 % 1018,3 hPa 0,0 l/m 2,9 km/h (1 Bft) N-NW 344 1 min 0,000 mm 6,1 UV-I 852 W/m 16,3 C 22,0 C 4,8 km/h (1 Bft) 92,31 %
06.06.2016 12:02 22,0 C 73 % 1018,4 hPa 0,0 l/m 1,7 km/h (1 Bft) N-NW 347 1 min 0,000 mm 6,2 UV-I 853 W/m 16,9 C 22,0 C 3,2 km/h (1 Bft) 100,00 %
06.06.2016 12:03 22,1 C 74 % 1018,4 hPa 0,0 l/m 1,3 km/h (1 Bft) N-NW 338 1 min 0,000 mm 6,2 UV-I 856 W/m 17,2 C 22,1 C 3,2 km/h (1 Bft) 100,00 %
06.06.2016 12:04 22,2 C 75 % 1018,4 hPa 0,0 l/m 1,9 km/h (1 Bft) W-NW 290 1 min 0,000 mm 6,2 UV-I 857 W/m 17,5 C 22,2 C 6,4 km/h (2 Bft) 83,33 %
06.06.2016 12:05 22,2 C 68 % 1018,3 hPa 0,0 l/m 3,8 km/h (1 Bft) W-SW 242 1 min 0,000 mm 6,2 UV-I 862 W/m 16,0 C 22,2 C 4,8 km/h (1 Bft) 100,00 %
06.06.2016 12:06 22,1 C 68 % 1018,3 hPa 0,0 l/m 1,7 km/h (1 Bft) W-SW 242 1 min 0,000 mm 6,2 UV-I 862 W/m 15,9 C 22,1 C 3,2 km/h (1 Bft) 100,00 %
06.06.2016 12:07 22,0 C 66 % 1018,3 hPa 0,0 l/m 2,7 km/h (1 Bft) W-SW 251 1 min 0,000 mm 6,2 UV-I 859 W/m 15,3 C 22,0 C 4,8 km/h (1 Bft) 100,00 %
06.06.2016 12:08 21,9 C 66 % 1018,3 hPa 0,0 l/m 3,3 km/h (1 Bft) W-SW 251 1 min 0,000 mm 6,2 UV-I 859 W/m 15,3 C 21,9 C 4,8 km/h (1 Bft) 100,00 %
06.06.2016 12:09 21,9 C 68 % 1018,3 hPa 0,0 l/m 2,2 km/h (1 Bft) W-SW 251 1 min 0,000 mm 6,3 UV-I 866 W/m 15,7 C 21,9 C 3,2 km/h (1 Bft) 100,00 %
06.06.2016 12:10 21,9 C 66 % 1018,3 hPa 0,0 l/m 2,7 km/h (1 Bft) W-SW 238 1 min 0,000 mm 6,2 UV-I 884 W/m 15,3 C 21,9 C 4,8 km/h (1 Bft) 100,00 %
06.06.2016 12:11 21,8 C 67 % 1018,4 hPa 0,0 l/m 1,4 km/h (1 Bft) W-SW 238 1 min 0,000 mm 6,3 UV-I 903 W/m 15,4 C 21,8 C 3,2 km/h (1 Bft) 100,00 %
06.06.2016 12:12 21,8 C 67 % 1018,3 hPa 0,0 l/m 0,1 km/h (0 Bft) W-SW 238 1 min 0,000 mm 6,3 UV-I 894 W/m 15,4 C 21,8 C 1,6 km/h (1 Bft) 100,00 %
06.06.2016 12:13 22,0 C 71 % 1018,3 hPa 0,0 l/m 2,5 km/h (1 Bft) O 90 1 min 0,000 mm 6,3 UV-I 890 W/m 16,5 C 22,0 C 4,8 km/h (1 Bft) 100,00 %
06.06.2016 12:14 22,2 C 74 % 1018,4 hPa 0,0 l/m 2,1 km/h (1 Bft) NO 44 1 min 0,000 mm 6,4 UV-I 893 W/m 17,3 C 22,2 C 4,8 km/h (1 Bft) 100,00 %
06.06.2016 12:15 22,4 C 73 % 1018,3 hPa 0,0 l/m 1,1 km/h (1 Bft) N-NO 16 1 min 0,000 mm 6,3 UV-I 885 W/m 17,3 C 22,4 C 1,6 km/h (1 Bft) 100,00 %
06.06.2016 12:16 22,5 C 74 % 1018,3 hPa 0,0 l/m 3,5 km/h (1 Bft) N-NO 21 1 min 0,000 mm 6,3 UV-I 896 W/m 17,6 C 22,5 C 4,8 km/h (1 Bft) 100,00 %
06.06.2016 12:17 22,6 C 70 % 1018,4 hPa 0,0 l/m 3,5 km/h (1 Bft) N-NW 336 1 min 0,000 mm 6,4 UV-I 922 W/m 16,8 C 22,6 C 6,4 km/h (2 Bft) 100,00 %
06.06.2016 12:18 22,6 C 69 % 1018,3 hPa 0,0 l/m 1,0 km/h (0 Bft) NW 316 1 min 0,000 mm 6,4 UV-I 916 W/m 16,6 C 22,6 C 3,2 km/h (1 Bft) 100,00 %
06.06.2016 12:19 22,6 C 70 % 1018,3 hPa 0,0 l/m 2,3 km/h (1 Bft) NW 311 1 min 0,000 mm 6,3 UV-I 906 W/m 16,8 C 22,6 C 4,8 km/h (1 Bft) 100,00 %
06.06.2016 12:20 22,6 C 68 % 1018,4 hPa 0,0 l/m 2,5 km/h (1 Bft) N-NW 345 1 min 0,000 mm 6,2 UV-I 897 W/m 16,4 C 22,6 C 4,8 km/h (1 Bft) 95,65 %
06.06.2016 12:21 22,6 C 66 % 1018,3 hPa 0,0 l/m 2,4 km/h (1 Bft) N-NW 338 1 min 0,000 mm 6,3 UV-I 901 W/m 15,9 C 22,6 C 4,8 km/h (1 Bft) 100,00 %
06.06.2016 12:22 22,6 C 70 % 1018,3 hPa 0,0 l/m 3,9 km/h (1 Bft) NW 312 1 min 0,000 mm 6,3 UV-I 911 W/m 16,8 C 22,6 C 11,3 km/h (2 Bft) 100,00 %
06.06.2016 12:23 22,7 C 66 % 1018,3 hPa 0,0 l/m 1,3 km/h (1 Bft) N-NW 333 1 min 0,000 mm 6,4 UV-I 909 W/m 16,0 C 22,7 C 3,2 km/h (1 Bft) 100,00 %
06.06.2016 12:24 22,7 C 68 % 1018,3 hPa 0,0 l/m 2,5 km/h (1 Bft) W-NW 290 1 min 0,000 mm 6,4 UV-I 906 W/m 16,5 C 22,7 C 4,8 km/h (1 Bft) 100,00 %
06.06.2016 12:25 22,8 C 69 % 1018,3 hPa 0,0 l/m 2,0 km/h (1 Bft) W-NW 299 1 min 0,000 mm 6,4 UV-I 908 W/m 16,8 C 22,8 C 4,8 km/h (1 Bft) 100,00 %
06.06.2016 12:26 22,8 C 66 % 1018,3 hPa 0,0 l/m 1,9 km/h (1 Bft) NW 308 1 min 0,000 mm 6,4 UV-I 906 W/m 16,1 C 22,8 C 3,2 km/h (1 Bft) 100,00 %
06.06.2016 12:27 22,8 C 67 % 1018,3 hPa 0,0 l/m 1,3 km/h (1 Bft) NW 311 1 min 0,000 mm 6,4 UV-I 908 W/m 16,3 C 22,8 C 3,2 km/h (1 Bft) 100,00 %
06.06.2016 12:28 22,9 C 70 % 1018,3 hPa 0,0 l/m 3,1 km/h (1 Bft) NW 307 1 min 0,000 mm 6,4 UV-I 907 W/m 17,1 C 22,9 C 6,4 km/h (2 Bft) 96,15 %
06.06.2016 12:29 22,8 C 62 % 1018,3 hPa 0,0 l/m 2,5 km/h (1 Bft) W-NW 299 1 min 0,000 mm 6,4 UV-I 907 W/m 15,1 C 22,8 C 4,8 km/h (1 Bft) 100,00 %
06.06.2016 12:30 22,8 C 63 % 1018,3 hPa 0,0 l/m 2,9 km/h (1 Bft) N 355 1 min 0,000 mm 6,5 UV-I 913 W/m 15,4 C 22,8 C 4,8 km/h (1 Bft) 100,00 %
06.06.2016 12:31 22,8 C 70 % 1018,3 hPa 0,0 l/m 3,4 km/h (1 Bft) N-NW 342 1 min 0,000 mm 6,5 UV-I 919 W/m 17,0 C 22,8 C 4,8 km/h (1 Bft) 95,83 %
06.06.2016 12:32 22,8 C 66 % 1018,3 hPa 0,0 l/m 3,4 km/h (1 Bft) NW 319 1 min 0,000 mm 6,4 UV-I 928 W/m 16,1 C 22,8 C 6,4 km/h (2 Bft) 100,00 %
06.06.2016 12:33 22,8 C 61 % 1018,3 hPa 0,0 l/m 2,9 km/h (1 Bft) W-NW 292 1 min 0,000 mm 6,5 UV-I 945 W/m 14,9 C 22,8 C 4,8 km/h (1 Bft) 100,00 %
06.06.2016 12:34 22,7 C 63 % 1018,3 hPa 0,0 l/m 2,1 km/h (1 Bft) W-NW 303 1 min 0,000 mm 6,3 UV-I 941 W/m 15,3 C 22,7 C 4,8 km/h (1 Bft) 95,65 %
06.06.2016 12:35 22,7 C 63 % 1018,3 hPa 0,0 l/m 1,8 km/h (1 Bft) W 267 1 min 0,000 mm 4,9 UV-I 944 W/m 15,3 C 22,7 C 3,2 km/h (1 Bft) 100,00 %
06.06.2016 12:36 22,6 C 63 % 1018,3 hPa 0,0 l/m 4,3 km/h (1 Bft) S-SW 209 1 min 0,000 mm 6,2 UV-I 944 W/m 15,2 C 22,6 C 6,4 km/h (2 Bft) 100,00 %
06.06.2016 12:37 22,4 C 62 % 1018,3 hPa 0,0 l/m 4,3 km/h (1 Bft) W-NW 289 1 min 0,000 mm 5,3 UV-I 944 W/m 14,8 C 22,4 C 6,4 km/h (2 Bft) 100,00 %
06.06.2016 12:38 22,4 C 62 % 1018,2 hPa 0,0 l/m 2,6 km/h (1 Bft) NW 314 1 min 0,000 mm 5,4 UV-I 944 W/m 14,8 C 22,4 C 4,8 km/h (1 Bft) 100,00 %
06.06.2016 12:39 22,4 C 65 % 1018,2 hPa 0,0 l/m 1,8 km/h (1 Bft) NW 308 1 min 0,000 mm 6,4 UV-I 936 W/m 15,5 C 22,4 C 3,2 km/h (1 Bft) 100,00 %
06.06.2016 12:40 22,5 C 64 % 1018,2 hPa 0,0 l/m 1,0 km/h (0 Bft) NW 317 1 min 0,000 mm 6,5 UV-I 936 W/m 15,3 C 22,5 C 1,6 km/h (1 Bft) 100,00 %
06.06.2016 12:41 22,5 C 61 % 1018,2 hPa 0,0 l/m 2,1 km/h (1 Bft) N-NW 331 1 min 0,000 mm 6,5 UV-I 938 W/m 14,6 C 22,5 C 4,8 km/h (1 Bft) 100,00 %
06.06.2016 12:42 22,5 C 61 % 1018,2 hPa 0,0 l/m 1,2 km/h (1 Bft) N-NW 331 1 min 0,000 mm 6,5 UV-I 939 W/m 14,6 C 22,5 C 1,6 km/h (1 Bft) 98,62 %
06.06.2016 12:43 22,6 C 63 % 1018,1 hPa 0,0 l/m 1,4 km/h (1 Bft) N-NW 335 1 min 0,000 mm 6,5 UV-I 940 W/m 15,2 C 22,6 C 3,2 km/h (1 Bft) 100,00 %
06.06.2016 12:44 22,8 C 66 % 1018,1 hPa 0,0 l/m 2,8 km/h (1 Bft) NO 39 1 min 0,000 mm 6,6 UV-I 930 W/m 16,1 C 22,8 C 4,8 km/h (1 Bft) 96,30 %
06.06.2016 12:45 22,9 C 61 % 1018,0 hPa 0,0 l/m 1,7 km/h (1 Bft) S-SO 155 1 min 0,000 mm 6,6 UV-I 919 W/m 15,0 C 22,9 C 3,2 km/h (1 Bft) 100,00 %
06.06.2016 12:46 23,0 C 60 % 1018,1 hPa 0,0 l/m 2,1 km/h (1 Bft) SO 138 1 min 0,000 mm 6,6 UV-I 918 W/m 14,8 C 23,0 C 4,8 km/h (1 Bft) 100,00 %
06.06.2016 12:47 23,2 C 62 % 1018,1 hPa 0,0 l/m 1,3 km/h (1 Bft) O 80 1 min 0,000 mm 6,6 UV-I 914 W/m 15,5 C 23,2 C 3,2 km/h (1 Bft) 95,65 %
06.06.2016 12:48 23,2 C 61 % 1018,1 hPa 0,0 l/m 2,6 km/h (1 Bft) NO 46 1 min 0,000 mm 6,6 UV-I 911 W/m 15,3 C 23,2 C 4,8 km/h (1 Bft) 100,00 %
06.06.2016 12:49 23,3 C 67 % 1018,0 hPa 0,0 l/m 3,1 km/h (1 Bft) N-NO 24 1 min 0,000 mm 6,7 UV-I 913 W/m 16,8 C 23,3 C 4,8 km/h (1 Bft) 92,86 %
06.06.2016 12:50 23,4 C 66 % 1018,0 hPa 0,0 l/m 3,3 km/h (1 Bft) NO 38 1 min 0,000 mm 6,7 UV-I 911 W/m 16,7 C 23,4 C 6,4 km/h (2 Bft) 100,00 %
06.06.2016 12:51 23,4 C 65 % 1018,0 hPa 0,0 l/m 3,0 km/h (1 Bft) W-NW 296 1 min 0,000 mm 6,7 UV-I 908 W/m 16,4 C 23,4 C 4,8 km/h (1 Bft) 91,30 %
06.06.2016 12:52 23,4 C 60 % 1018,0 hPa 0,0 l/m 3,2 km/h (1 Bft) W-NW 292 1 min 0,000 mm 6,7 UV-I 905 W/m 15,2 C 23,4 C 4,8 km/h (1 Bft) 95,83 %
06.06.2016 12:53 23,3 C 58 % 1018,1 hPa 0,0 l/m 4,1 km/h (1 Bft) W-NW 295 1 min 0,000 mm 6,7 UV-I 906 W/m 14,6 C 23,3 C 4,8 km/h (1 Bft) 100,00 %
06.06.2016 12:54 23,3 C 60 % 1018,1 hPa 0,0 l/m 3,3 km/h (1 Bft) W-NW 282 1 min 0,000 mm 6,7 UV-I 907 W/m 15,1 C 23,3 C 4,8 km/h (1 Bft) 96,30 %
06.06.2016 12:55 23,2 C 59 % 1018,0 hPa 0,0 l/m 2,2 km/h (1 Bft) W-NW 282 1 min 0,000 mm 6,6 UV-I 903 W/m 14,7 C 23,2 C 3,2 km/h (1 Bft) 100,00 %
06.06.2016 12:56 23,0 C 58 % 1018,0 hPa 0,0 l/m 1,0 km/h (0 Bft) W-NW 284 1 min 0,000 mm 6,6 UV-I 900 W/m 14,3 C 23,0 C 1,6 km/h (1 Bft) 96,15 %
06.06.2016 12:57 22,9 C 59 % 1018,0 hPa 0,0 l/m 1,7 km/h (1 Bft) W-NW 300 1 min 0,000 mm 6,6 UV-I 905 W/m 14,5 C 22,9 C 3,2 km/h (1 Bft) 100,00 %
06.06.2016 12:58 22,8 C 59 % 1018,0 hPa 0,0 l/m 1,3 km/h (1 Bft) W-NW 300 1 min 0,000 mm 6,6 UV-I 910 W/m 14,4 C 22,8 C 3,2 km/h (1 Bft) 94,74 %
06.06.2016 12:59 22,8 C 61 % 1017,9 hPa 0,0 l/m 0,9 km/h (0 Bft) SW 230 1 min 0,000 mm 6,7 UV-I 916 W/m 14,9 C 22,8 C 3,2 km/h (1 Bft) 95,83 %
06.06.2016 13:00 22,9 C 59 % 1017,9 hPa 0,0 l/m 1,6 km/h (1 Bft) SW 230 1 min 0,000 mm 6,7 UV-I 918 W/m 14,5 C 22,9 C 3,2 km/h (1 Bft) 100,00 %
06.06.2016 13:01 23,1 C 61 % 1018,0 hPa 0,0 l/m 1,5 km/h (1 Bft) S-SO 159 1 min 0,534 mm 6,7 UV-I 924 W/m 15,2 C 23,1 C 3,2 km/h (1 Bft) 95,83 %
06.06.2016 13:02 23,3 C 61 % 1017,9 hPa 0,0 l/m 4,2 km/h (1 Bft) O-SO 104 1 min 0,000 mm 6,7 UV-I 925 W/m 15,3 C 23,3 C 6,4 km/h (2 Bft) 100,00 %
06.06.2016 13:03 23,3 C 59 % 1017,9 hPa 0,0 l/m 3,0 km/h (1 Bft) O-SO 123 1 min 0,000 mm 6,6 UV-I 926 W/m 14,8 C 23,3 C 4,8 km/h (1 Bft) 96,30 %
06.06.2016 13:04 23,3 C 60 % 1017,9 hPa 0,0 l/m 1,7 km/h (1 Bft) O-SO 117 1 min 0,000 mm 6,6 UV-I 919 W/m 15,1 C 23,3 C 3,2 km/h (1 Bft) 95,65 %
06.06.2016 13:05 23,4 C 61 % 1017,9 hPa 0,0 l/m 2,5 km/h (1 Bft) S 174 1 min 0,000 mm 6,6 UV-I 924 W/m 15,4 C 23,4 C 3,2 km/h (1 Bft) 96,30 %
06.06.2016 13:06 23,4 C 63 % 1017,9 hPa 0,0 l/m 3,6 km/h (1 Bft) W 281 1 min 0,000 mm 6,7 UV-I 927 W/m 15,9 C 23,4 C 6,4 km/h (2 Bft) 100,00 %
06.06.2016 13:07 23,3 C 60 % 1017,8 hPa 0,0 l/m 2,0 km/h (1 Bft) W 278 1 min 0,000 mm 6,7 UV-I 926 W/m 15,1 C 23,3 C 3,2 km/h (1 Bft) 96,30 %
06.06.2016 13:08 23,3 C 61 % 1017,8 hPa 0,0 l/m 1,3 km/h (1 Bft) W 279 1 min 0,000 mm 6,7 UV-I 914 W/m 15,3 C 23,3 C 3,2 km/h (1 Bft) 100,00 %
06.06.2016 13:09 23,4 C 63 % 1017,7 hPa 0,0 l/m 4,2 km/h (1 Bft) N-NO 32 1 min 0,000 mm 6,6 UV-I 906 W/m 15,9 C 23,4 C 4,8 km/h (1 Bft) 96,97 %
06.06.2016 13:10 23,5 C 61 % 1017,7 hPa 0,0 l/m 1,4 km/h (1 Bft) N-NO 32 1 min 0,000 mm 6,7 UV-I 912 W/m 15,5 C 23,5 C 3,2 km/h (1 Bft) 96,15 %
06.06.2016 13:11 23,6 C 61 % 1017,7 hPa 0,0 l/m 3,2 km/h (1 Bft) N-NO 23 1 min 0,000 mm 6,7 UV-I 909 W/m 15,6 C 23,6 C 4,8 km/h (1 Bft) 95,83 %
06.06.2016 13:12 23,7 C 61 % 1017,6 hPa 0,0 l/m 4,8 km/h (1 Bft) N-NO 24 1 min 0,000 mm 6,6 UV-I 911 W/m 15,7 C 23,7 C 8,0 km/h (2 Bft) 98,55 %
06.06.2016 13:13 23,7 C 61 % 1017,7 hPa 0,0 l/m 2,6 km/h (1 Bft) NO 49 1 min 0,000 mm 6,6 UV-I 904 W/m 15,7 C 23,7 C 6,4 km/h (2 Bft) 97,37 %
06.06.2016 13:14 23,7 C 60 % 1017,7 hPa 0,0 l/m 4,0 km/h (1 Bft) NO 36 1 min 0,000 mm 6,5 UV-I 895 W/m 15,5 C 23,7 C 4,8 km/h (1 Bft) 95,83 %
06.06.2016 13:15 23,7 C 66 % 1017,7 hPa 0,0 l/m 4,5 km/h (1 Bft) N 5 1 min 0,000 mm 6,5 UV-I 889 W/m 17,0 C 23,7 C 6,4 km/h (2 Bft) 100,00 %
06.06.2016 13:16 23,7 C 63 % 1017,6 hPa 0,0 l/m 4,2 km/h (1 Bft) N-NO 23 1 min 0,000 mm 6,5 UV-I 889 W/m 16,2 C 23,7 C 8,0 km/h (2 Bft) 96,15 %
06.06.2016 13:17 23,8 C 66 % 1017,7 hPa 0,0 l/m 4,7 km/h (1 Bft) N-NO 24 1 min 0,000 mm 6,4 UV-I 858 W/m 17,1 C 23,8 C 11,3 km/h (2 Bft) 100,00 %
06.06.2016 13:18 23,8 C 62 % 1017,7 hPa 0,0 l/m 5,8 km/h (2 Bft) NO 43 1 min 0,000 mm 6,1 UV-I 807 W/m 16,1 C 23,8 C 8,0 km/h (2 Bft) 100,00 %
06.06.2016 13:19 23,8 C 59 % 1017,7 hPa 0,0 l/m 8,2 km/h (2 Bft) NO 36 1 min 0,000 mm 5,7 UV-I 798 W/m 15,3 C 23,3 C 11,3 km/h (2 Bft) 100,00 %
06.06.2016 13:20 23,6 C 58 % 1017,7 hPa 0,0 l/m 3,7 km/h (1 Bft) N 5 1 min 0,000 mm 5,1 UV-I 798 W/m 14,8 C 23,6 C 4,8 km/h (1 Bft) 100,00 %
06.06.2016 13:21 23,4 C 61 % 1017,6 hPa 0,0 l/m 2,2 km/h (1 Bft) NW 323 0 min 0,000 mm 5,1 UV-I 202 W/m 15,4 C 23,4 C 4,8 km/h (1 Bft) 100,00 %
06.06.2016 13:22 23,2 C 61 % 1017,6 hPa 0,0 l/m 1,4 km/h (1 Bft) N-NW 330 0 min 0,000 mm 3,5 UV-I 136 W/m 15,3 C 23,2 C 3,2 km/h (1 Bft) 100,00 %
06.06.2016 13:23 23,1 C 59 % 1017,6 hPa 0,0 l/m 1,7 km/h (1 Bft) N-NW 330 0 min 0,000 mm 3,4 UV-I 132 W/m 14,6 C 23,1 C 3,2 km/h (1 Bft) 100,00 %
06.06.2016 13:24 22,8 C 60 % 1017,6 hPa 0,0 l/m 2,1 km/h (1 Bft) N-NW 329 0 min 0,000 mm 3,4 UV-I 138 W/m 14,6 C 22,8 C 3,2 km/h (1 Bft) 100,00 %
06.06.2016 13:25 22,8 C 61 % 1017,6 hPa 0,0 l/m 1,1 km/h (1 Bft) N-NW 345 0 min 0,000 mm 5,7 UV-I 139 W/m 14,9 C 22,8 C 1,6 km/h (1 Bft) 96,15 %
06.06.2016 13:26 22,8 C 60 % 1017,6 hPa 0,0 l/m 1,7 km/h (1 Bft) NW 324 1 min 0,000 mm 6,4 UV-I 926 W/m 14,6 C 22,8 C 3,2 km/h (1 Bft) 100,00 %
06.06.2016 13:27 22,9 C 64 % 1017,5 hPa 0,0 l/m 2,5 km/h (1 Bft) NW 321 1 min 0,000 mm 6,5 UV-I 928 W/m 15,7 C 22,9 C 3,2 km/h (1 Bft) 100,00 %
06.06.2016 13:28 23,1 C 64 % 1017,5 hPa 0,0 l/m 2,7 km/h (1 Bft) NW 309 1 min 0,000 mm 6,6 UV-I 924 W/m 15,9 C 23,1 C 4,8 km/h (1 Bft) 100,00 %
06.06.2016 13:29 23,2 C 62 % 1017,5 hPa 0,0 l/m 1,5 km/h (1 Bft) NW 310 1 min 0,000 mm 6,4 UV-I 890 W/m 15,5 C 23,2 C 3,2 km/h (1 Bft) 100,00 %
06.06.2016 13:30 23,2 C 61 % 1017,4 hPa 0,0 l/m 2,1 km/h (1 Bft) N-NW 347 1 min 0,000 mm 6,2 UV-I 865 W/m 15,3 C 23,2 C 3,2 km/h (1 Bft) 96,30 %
06.06.2016 13:31 23,1 C 62 % 1017,4 hPa 0,0 l/m 1,5 km/h (1 Bft) N-NW 335 1 min 0,000 mm 6,2 UV-I 865 W/m 15,4 C 23,1 C 3,2 km/h (1 Bft) 100,00 %
06.06.2016 13:32 23,1 C 65 % 1017,4 hPa 0,0 l/m 1,1 km/h (1 Bft) N-NW 345 1 min 0,000 mm 4,3 UV-I 746 W/m 16,2 C 23,1 C 3,2 km/h (1 Bft) 100,00 %
06.06.2016 13:33 23,0 C 65 % 1017,4 hPa 0,0 l/m 1,3 km/h (1 Bft) N-NW 346 0 min 0,000 mm 4,1 UV-I 149 W/m 16,1 C 23,0 C 3,2 km/h (1 Bft) 100,00 %
06.06.2016 13:34 23,1 C 63 % 1017,4 hPa 0,0 l/m 1,4 km/h (1 Bft) N-NW 347 1 min 0,000 mm 6,4 UV-I 488 W/m 15,7 C 23,1 C 3,2 km/h (1 Bft) 100,00 %
06.06.2016 13:35 23,1 C 65 % 1017,3 hPa 0,0 l/m 0,6 km/h (0 Bft) N-NW 347 1 min 0,000 mm 6,4 UV-I 862 W/m 16,2 C 23,1 C 1,6 km/h (1 Bft) 100,00 %
06.06.2016 13:36 23,2 C 65 % 1017,3 hPa 0,0 l/m 1,8 km/h (1 Bft) NW 315 1 min 0,000 mm 6,3 UV-I 860 W/m 16,2 C 23,2 C 3,2 km/h (1 Bft) 100,00 %
06.06.2016 13:37 23,3 C 60 % 1017,3 hPa 0,0 l/m 3,5 km/h (1 Bft) W-NW 286 1 min 0,000 mm 5,6 UV-I 849 W/m 15,1 C 23,3 C 4,8 km/h (1 Bft) 100,00 %
06.06.2016 13:38 23,3 C 62 % 1017,3 hPa 0,0 l/m 3,5 km/h (1 Bft) W-SW 258 1 min 0,000 mm 6,0 UV-I 868 W/m 15,6 C 23,3 C 6,4 km/h (2 Bft) 100,00 %
06.06.2016 13:39 23,4 C 61 % 1017,2 hPa 0,0 l/m 3,1 km/h (1 Bft) W-SW 258 1 min 0,000 mm 6,3 UV-I 876 W/m 15,4 C 23,4 C 3,2 km/h (1 Bft) 100,00 %
06.06.2016 13:40 23,4 C 59 % 1017,3 hPa 0,0 l/m 3,0 km/h (1 Bft) W 259 1 min 0,000 mm 6,5 UV-I 887 W/m 14,9 C 23,4 C 4,8 km/h (1 Bft) 100,00 %
06.06.2016 13:41 23,4 C 63 % 1017,3 hPa 0,0 l/m 1,6 km/h (1 Bft) W 263 1 min 0,000 mm 6,4 UV-I 885 W/m 15,9 C 23,4 C 3,2 km/h (1 Bft) 100,00 %
06.06.2016 13:42 23,4 C 64 % 1017,2 hPa 0,0 l/m 0,6 km/h (0 Bft) W 263 1 min 0,000 mm 6,4 UV-I 881 W/m 16,2 C 23,4 C 1,6 km/h (1 Bft) 95,65 %
06.06.2016 13:43 23,4 C 64 % 1017,2 hPa 0,0 l/m 2,5 km/h (1 Bft) NW 324 1 min 0,000 mm 6,3 UV-I 873 W/m 16,2 C 23,4 C 4,8 km/h (1 Bft) 100,00 %
06.06.2016 13:44 23,6 C 64 % 1017,2 hPa 0,0 l/m 3,0 km/h (1 Bft) NW 309 1 min 0,000 mm 6,2 UV-I 878 W/m 16,4 C 23,6 C 4,8 km/h (1 Bft) 100,00 %
06.06.2016 13:45 23,7 C 67 % 1017,2 hPa 0,0 l/m 2,4 km/h (1 Bft) NW 308 1 min 0,000 mm 5,7 UV-I 874 W/m 17,2 C 23,7 C 4,8 km/h (1 Bft) 100,00 %
06.06.2016 13:46 23,7 C 59 % 1017,2 hPa 0,0 l/m 1,3 km/h (1 Bft) NW 311 1 min 0,000 mm 4,4 UV-I 874 W/m 15,2 C 23,7 C 3,2 km/h (1 Bft) 100,00 %
06.06.2016 13:47 23,7 C 64 % 1017,2 hPa 0,0 l/m 1,3 km/h (1 Bft) NW 320 1 min 0,000 mm 6,2 UV-I 875 W/m 16,5 C 23,7 C 3,2 km/h (1 Bft) 100,00 %
06.06.2016 13:48 23,7 C 61 % 1017,2 hPa 0,0 l/m 0,9 km/h (0 Bft) N-NW 331 1 min 0,000 mm 6,2 UV-I 873 W/m 15,7 C 23,7 C 3,2 km/h (1 Bft) 100,00 %
06.06.2016 13:49 23,7 C 65 % 1017,1 hPa 0,0 l/m 1,9 km/h (1 Bft) N 5 1 min 0,000 mm 6,2 UV-I 888 W/m 16,7 C 23,7 C 4,8 km/h (1 Bft) 100,00 %
06.06.2016 13:50 23,8 C 64 % 1017,1 hPa 0,0 l/m 4,4 km/h (1 Bft) N 5 1 min 0,000 mm 5,9 UV-I 901 W/m 16,6 C 23,8 C 6,4 km/h (2 Bft) 96,15 %
06.06.2016 13:51 23,9 C 62 % 1017,2 hPa 0,0 l/m 2,0 km/h (1 Bft) N-NO 16 1 min 0,000 mm 6,1 UV-I 898 W/m 16,2 C 23,9 C 3,2 km/h (1 Bft) 100,00 %
06.06.2016 13:52 23,9 C 60 % 1017,1 hPa 0,0 l/m 6,7 km/h (2 Bft) O-SO 106 1 min 0,000 mm 5,0 UV-I 889 W/m 15,7 C 23,8 C 12,9 km/h (3 Bft) 100,00 %
06.06.2016 13:53 23,9 C 52 % 1017,2 hPa 0,0 l/m 6,6 km/h (2 Bft) O 91 0 min 0,000 mm 3,6 UV-I 337 W/m 13,4 C 23,9 C 11,3 km/h (2 Bft) 100,00 %
06.06.2016 13:54 23,7 C 52 % 1017,1 hPa 0,0 l/m 2,7 km/h (1 Bft) O 82 0 min 0,000 mm 4,1 UV-I 199 W/m 13,2 C 23,7 C 3,2 km/h (1 Bft) 100,00 %
06.06.2016 13:55 23,7 C 54 % 1017,2 hPa 0,0 l/m 1,4 km/h (1 Bft) O 82 1 min 0,000 mm 4,9 UV-I 707 W/m 13,8 C 23,7 C 3,2 km/h (1 Bft) 96,15 %
06.06.2016 13:56 23,7 C 57 % 1017,2 hPa 0,0 l/m 3,0 km/h (1 Bft) O-NO 67 1 min 0,000 mm 6,4 UV-I 707 W/m 14,7 C 23,7 C 4,8 km/h (1 Bft) 96,15 %
06.06.2016 13:57 23,7 C 54 % 1017,1 hPa 0,0 l/m 4,3 km/h (1 Bft) S-SO 154 1 min 0,000 mm 6,3 UV-I 773 W/m 13,8 C 23,7 C 8,0 km/h (2 Bft) 100,00 %
06.06.2016 13:58 23,7 C 52 % 1017,1 hPa 0,0 l/m 1,6 km/h (1 Bft) S-SO 154 1 min 0,000 mm 6,3 UV-I 884 W/m 13,2 C 23,7 C 3,2 km/h (1 Bft) 100,00 %
06.06.2016 13:59 23,7 C 56 % 1017,1 hPa 0,0 l/m 1,5 km/h (1 Bft) S-SO 165 1 min 0,000 mm 6,4 UV-I 882 W/m 14,4 C 23,7 C 3,2 km/h (1 Bft) 95,83 %
06.06.2016 14:00 23,8 C 58 % 1017,1 hPa 0,0 l/m 3,2 km/h (1 Bft) O 101 1 min 0,482 mm 6,3 UV-I 878 W/m 15,0 C 23,8 C 6,4 km/h (2 Bft) 100,00 %
06.06.2016 14:01 23,9 C 57 % 1017,1 hPa 0,0 l/m 3,0 km/h (1 Bft) O-NO 59 1 min 0,000 mm 6,3 UV-I 875 W/m 14,9 C 23,9 C 6,4 km/h (2 Bft) 100,00 %
06.06.2016 14:02 24,1 C 55 % 1017,1 hPa 0,0 l/m 5,0 km/h (1 Bft) NO 43 1 min 0,000 mm 6,2 UV-I 871 W/m 14,5 C 24,1 C 6,4 km/h (2 Bft) 100,00 %
06.06.2016 14:03 24,1 C 58 % 1017,1 hPa 0,0 l/m 6,0 km/h (2 Bft) N-NO 15 1 min 0,000 mm 6,2 UV-I 868 W/m 15,3 C 24,1 C 8,0 km/h (2 Bft) 100,00 %
06.06.2016 14:04 24,0 C 54 % 1017,1 hPa 0,0 l/m 2,3 km/h (1 Bft) N 5 1 min 0,000 mm 6,2 UV-I 865 W/m 14,1 C 24,0 C 3,2 km/h (1 Bft) 100,00 %
06.06.2016 14:05 23,9 C 55 % 1017,1 hPa 0,0 l/m 2,0 km/h (1 Bft) N 5 1 min 0,000 mm 6,1 UV-I 863 W/m 14,3 C 23,9 C 3,2 km/h (1 Bft) 100,00 %
06.06.2016 14:06 23,8 C 55 % 1017,1 hPa 0,0 l/m 1,6 km/h (1 Bft) N 5 1 min 0,000 mm 6,1 UV-I 861 W/m 14,2 C 23,8 C 3,2 km/h (1 Bft) 100,00 %
06.06.2016 14:07 23,8 C 56 % 1017,1 hPa 0,0 l/m 0,7 km/h (0 Bft) N 5 1 min 0,000 mm 6,1 UV-I 863 W/m 14,5 C 23,8 C 3,2 km/h (1 Bft) 100,00 %
06.06.2016 14:08 23,8 C 62 % 1017,1 hPa 0,0 l/m 1,9 km/h (1 Bft) N 5 1 min 0,000 mm 6,1 UV-I 861 W/m 16,1 C 23,8 C 3,2 km/h (1 Bft) 96,67 %
06.06.2016 14:09 23,9 C 56 % 1017,1 hPa 0,0 l/m 6,4 km/h (2 Bft) O-NO 57 1 min 0,000 mm 6,1 UV-I 865 W/m 14,6 C 23,9 C 11,3 km/h (2 Bft) 100,00 %
06.06.2016 14:10 24,0 C 57 % 1017,1 hPa 0,0 l/m 6,9 km/h (2 Bft) NO 40 1 min 0,000 mm 6,2 UV-I 867 W/m 14,9 C 23,9 C 8,0 km/h (2 Bft) 100,00 %
06.06.2016 14:11 24,1 C 62 % 1017,1 hPa 0,0 l/m 5,6 km/h (1 Bft) N-NO 32 1 min 0,000 mm 6,1 UV-I 865 W/m 16,4 C 24,1 C 8,0 km/h (2 Bft) 100,00 %
06.06.2016 14:14 24,3 C 59 % 1017,0 hPa 0,0 l/m 2,2 km/h (1 Bft) N-NO 21 3 min 0,000 mm 6,0 UV-I 861 W/m 15,8 C 24,3 C 3,2 km/h (1 Bft) 100,00 %
06.06.2016 14:15 24,3 C 57 % 1017,0 hPa 0,0 l/m 1,2 km/h (1 Bft) N-NO 15 1 min 0,000 mm 6,0 UV-I 855 W/m 15,2 C 24,3 C 3,2 km/h (1 Bft) 100,00 %
06.06.2016 14:16 24,2 C 61 % 1017,1 hPa 0,0 l/m 2,9 km/h (1 Bft) N-NO 12 1 min 0,000 mm 6,0 UV-I 853 W/m 16,2 C 24,2 C 4,8 km/h (1 Bft) 100,00 %
06.06.2016 14:17 24,3 C 61 % 1017,0 hPa 0,0 l/m 5,4 km/h (1 Bft) N-NO 17 1 min 0,000 mm 5,9 UV-I 849 W/m 16,3 C 24,3 C 14,5 km/h (3 Bft) 100,00 %
06.06.2016 14:18 24,4 C 61 % 1017,0 hPa 0,0 l/m 10,2 km/h (2 Bft) N-NO 13 1 min 0,000 mm 5,8 UV-I 840 W/m 16,4 C 23,5 C 16,1 km/h (3 Bft) 100,00 %
06.06.2016 14:19 24,4 C 61 % 1017,0 hPa 0,0 l/m 6,8 km/h (2 Bft) O-NO 57 1 min 0,000 mm 5,8 UV-I 835 W/m 16,4 C 24,3 C 12,9 km/h (3 Bft) 100,00 %
06.06.2016 14:20 24,4 C 60 % 1017,0 hPa 0,0 l/m 10,8 km/h (2 Bft) N-NO 14 1 min 0,000 mm 5,8 UV-I 831 W/m 16,1 C 23,3 C 14,5 km/h (3 Bft) 100,00 %
06.06.2016 14:21 24,3 C 63 % 1017,1 hPa 0,0 l/m 6,1 km/h (2 Bft) O-NO 66 1 min 0,000 mm 5,7 UV-I 820 W/m 16,8 C 24,3 C 11,3 km/h (2 Bft) 100,00 %
06.06.2016 14:22 24,3 C 62 % 1017,0 hPa 0,0 l/m 6,2 km/h (2 Bft) NO 56 1 min 0,000 mm 5,6 UV-I 816 W/m 16,5 C 24,3 C 9,7 km/h (2 Bft) 100,00 %
06.06.2016 14:23 24,3 C 61 % 1017,0 hPa 0,0 l/m 4,8 km/h (1 Bft) N 9 1 min 0,000 mm 5,7 UV-I 835 W/m 16,3 C 24,3 C 8,0 km/h (2 Bft) 100,00 %
06.06.2016 14:24 24,4 C 63 % 1016,9 hPa 0,0 l/m 13,0 km/h (3 Bft) NO 39 1 min 0,000 mm 5,8 UV-I 846 W/m 16,9 C 22,9 C 16,1 km/h (3 Bft) 100,00 %
06.06.2016 14:25 24,5 C 61 % 1017,0 hPa 0,0 l/m 8,2 km/h (2 Bft) N-NO 29 1 min 0,000 mm 5,8 UV-I 847 W/m 16,5 C 24,0 C 11,3 km/h (2 Bft) 100,00 %
06.06.2016 14:29 24,3 C 55 % 1016,9 hPa 0,0 l/m 1,1 km/h (1 Bft) N-NW 334 4 min 0,000 mm 5,8 UV-I 844 W/m 14,7 C 24,3 C 3,2 km/h (1 Bft) 100,00 %
06.06.2016 14:30 24,3 C 57 % 1016,9 hPa 0,0 l/m 4,0 km/h (1 Bft) N-NO 28 1 min 0,000 mm 5,7 UV-I 842 W/m 15,2 C 24,3 C 6,4 km/h (2 Bft) 96,15 %
06.06.2016 14:31 24,3 C 55 % 1016,9 hPa 0,0 l/m 3,3 km/h (1 Bft) N-NO 33 1 min 0,000 mm 5,7 UV-I 839 W/m 14,7 C 24,3 C 4,8 km/h (1 Bft) 100,00 %
06.06.2016 14:32 24,3 C 53 % 1016,9 hPa 0,0 l/m 1,2 km/h (1 Bft) N-NO 19 1 min 0,000 mm 5,7 UV-I 839 W/m 14,1 C 24,3 C 4,8 km/h (1 Bft) 100,00 %
06.06.2016 14:33 24,3 C 56 % 1016,8 hPa 0,0 l/m 5,5 km/h (1 Bft) NO 53 1 min 0,000 mm 5,7 UV-I 838 W/m 14,9 C 24,3 C 6,4 km/h (2 Bft) 96,97 %
06.06.2016 14:34 24,3 C 57 % 1016,8 hPa 0,0 l/m 3,6 km/h (1 Bft) N-NO 25 1 min 0,000 mm 5,7 UV-I 837 W/m 15,2 C 24,3 C 6,4 km/h (2 Bft) 100,00 %
06.06.2016 14:35 24,4 C 56 % 1016,8 hPa 0,0 l/m 5,6 km/h (1 Bft) N-NW 347 1 min 0,000 mm 5,7 UV-I 836 W/m 15,0 C 24,4 C 12,9 km/h (3 Bft) 100,00 %
06.06.2016 14:36 24,4 C 61 % 1016,8 hPa 0,0 l/m 5,9 km/h (2 Bft) N 11 1 min 0,000 mm 5,7 UV-I 835 W/m 16,4 C 24,4 C 9,7 km/h (2 Bft) 96,15 %
06.06.2016 14:37 24,3 C 56 % 1016,8 hPa 0,0 l/m 6,3 km/h (2 Bft) N-NO 27 1 min 0,000 mm 5,7 UV-I 834 W/m 14,9 C 24,3 C 11,3 km/h (2 Bft) 93,33 %
06.06.2016 14:38 24,4 C 56 % 1016,8 hPa 0,0 l/m 3,1 km/h (1 Bft) N-NW 340 1 min 0,000 mm 5,6 UV-I 827 W/m 15,0 C 24,4 C 4,8 km/h (1 Bft) 95,65 %
06.06.2016 14:39 24,3 C 62 % 1016,9 hPa 0,0 l/m 3,2 km/h (1 Bft) NW 323 1 min 0,000 mm 5,5 UV-I 823 W/m 16,5 C 24,3 C 4,8 km/h (1 Bft) 100,00 %
06.06.2016 14:40 24,3 C 54 % 1016,9 hPa 0,0 l/m 2,0 km/h (1 Bft) NW 324 1 min 0,000 mm 5,5 UV-I 823 W/m 14,4 C 24,3 C 4,8 km/h (1 Bft) 91,67 %
06.06.2016 14:41 24,3 C 57 % 1016,9 hPa 0,0 l/m 1,6 km/h (1 Bft) N 350 1 min 0,000 mm 5,4 UV-I 824 W/m 15,2 C 24,3 C 3,2 km/h (1 Bft) 100,00 %
06.06.2016 14:42 24,4 C 59 % 1016,8 hPa 0,0 l/m 1,6 km/h (1 Bft) NW 313 1 min 0,000 mm 5,3 UV-I 829 W/m 15,9 C 24,4 C 3,2 km/h (1 Bft) 96,55 %
06.06.2016 14:43 24,4 C 62 % 1016,9 hPa 0,0 l/m 5,4 km/h (1 Bft) N-NW 330 1 min 0,000 mm 5,2 UV-I 788 W/m 16,6 C 24,4 C 8,0 km/h (2 Bft) 100,00 %
06.06.2016 14:44 24,4 C 53 % 1016,9 hPa 0,0 l/m 2,6 km/h (1 Bft) NW 309 1 min 0,000 mm 4,3 UV-I 788 W/m 14,2 C 24,4 C 4,8 km/h (1 Bft) 96,30 %
06.06.2016 14:45 24,3 C 57 % 1016,9 hPa 0,0 l/m 1,4 km/h (1 Bft) NW 305 1 min 0,000 mm 4,6 UV-I 788 W/m 15,2 C 24,3 C 3,2 km/h (1 Bft) 96,15 %
06.06.2016 14:46 24,2 C 54 % 1016,8 hPa 0,0 l/m 1,1 km/h (1 Bft) NW 322 1 min 0,000 mm 5,3 UV-I 819 W/m 14,3 C 24,2 C 3,2 km/h (1 Bft) 93,33 %
06.06.2016 14:47 24,1 C 54 % 1016,9 hPa 0,0 l/m 1,5 km/h (1 Bft) N-NW 339 1 min 0,000 mm 5,3 UV-I 814 W/m 14,2 C 24,1 C 4,8 km/h (1 Bft) 96,15 %
06.06.2016 14:48 24,1 C 56 % 1016,8 hPa 0,0 l/m 3,0 km/h (1 Bft) N 11 1 min 0,000 mm 5,3 UV-I 809 W/m 14,8 C 24,1 C 4,8 km/h (1 Bft) 100,00 %
06.06.2016 14:49 24,2 C 61 % 1016,9 hPa 0,0 l/m 4,1 km/h (1 Bft) N-NO 18 1 min 0,000 mm 5,3 UV-I 806 W/m 16,2 C 24,2 C 6,4 km/h (2 Bft) 96,15 %
06.06.2016 14:50 24,2 C 57 % 1016,8 hPa 0,0 l/m 8,3 km/h (2 Bft) O 84 1 min 0,000 mm 5,3 UV-I 806 W/m 15,1 C 23,7 C 11,3 km/h (2 Bft) 96,30 %
06.06.2016 14:51 24,3 C 50 % 1016,8 hPa 0,0 l/m 7,0 km/h (2 Bft) NO 54 1 min 0,000 mm 5,3 UV-I 808 W/m 13,2 C 24,1 C 9,7 km/h (2 Bft) 100,00 %
06.06.2016 14:52 24,4 C 50 % 1016,8 hPa 0,0 l/m 6,3 km/h (2 Bft) O 94 1 min 0,000 mm 5,2 UV-I 806 W/m 13,3 C 24,4 C 9,7 km/h (2 Bft) 100,00 %
06.06.2016 14:53 24,4 C 48 % 1016,8 hPa 0,0 l/m 3,1 km/h (1 Bft) O 100 1 min 0,000 mm 5,2 UV-I 807 W/m 12,7 C 24,4 C 6,4 km/h (2 Bft) 96,15 %
06.06.2016 14:54 24,4 C 54 % 1016,8 hPa 0,0 l/m 4,7 km/h (1 Bft) O-NO 60 1 min 0,000 mm 5,3 UV-I 810 W/m 14,5 C 24,4 C 6,4 km/h (2 Bft) 95,83 %
06.06.2016 14:55 24,6 C 48 % 1016,8 hPa 0,0 l/m 9,0 km/h (2 Bft) O-NO 62 1 min 0,000 mm 5,3 UV-I 814 W/m 12,8 C 23,9 C 12,9 km/h (3 Bft) 100,00 %
06.06.2016 14:56 24,7 C 47 % 1016,8 hPa 0,0 l/m 6,5 km/h (2 Bft) NO 45 1 min 0,000 mm 5,3 UV-I 814 W/m 12,6 C 24,7 C 9,7 km/h (2 Bft) 96,30 %
06.06.2016 14:57 24,7 C 46 % 1016,8 hPa 0,0 l/m 4,3 km/h (1 Bft) O-NO 61 1 min 0,000 mm 5,2 UV-I 812 W/m 12,3 C 24,7 C 8,0 km/h (2 Bft) 100,00 %
06.06.2016 14:58 24,7 C 47 % 1016,8 hPa 0,0 l/m 6,5 km/h (2 Bft) O-NO 67 1 min 0,000 mm 5,2 UV-I 808 W/m 12,6 C 24,7 C 9,7 km/h (2 Bft) 96,30 %
06.06.2016 14:59 24,7 C 47 % 1016,8 hPa 0,0 l/m 8,6 km/h (2 Bft) NO 56 1 min 0,000 mm 5,2 UV-I 809 W/m 12,6 C 24,1 C 11,3 km/h (2 Bft) 100,00 %
06.06.2016 15:00 24,7 C 45 % 1016,8 hPa 0,0 l/m 6,7 km/h (2 Bft) O-NO 58 1 min 0,000 mm 5,1 UV-I 808 W/m 12,0 C 24,6 C 9,7 km/h (2 Bft) 96,67 %
06.06.2016 15:01 24,8 C 45 % 1016,8 hPa 0,0 l/m 4,5 km/h (1 Bft) NO 36 1 min 0,534 mm 5,1 UV-I 803 W/m 12,0 C 24,8 C 6,4 km/h (2 Bft) 95,65 %
06.06.2016 15:02 24,8 C 49 % 1016,8 hPa 0,0 l/m 2,7 km/h (1 Bft) O-NO 66 1 min 0,000 mm 5,0 UV-I 798 W/m 13,3 C 24,8 C 4,8 km/h (1 Bft) 100,00 %
06.06.2016 15:03 24,8 C 44 % 1016,8 hPa 0,0 l/m 3,2 km/h (1 Bft) NO 39 1 min 0,000 mm 5,0 UV-I 797 W/m 11,7 C 24,8 C 6,4 km/h (2 Bft) 95,65 %
06.06.2016 15:04 24,8 C 42 % 1016,9 hPa 0,0 l/m 2,8 km/h (1 Bft) NO 48 1 min 0,000 mm 5,0 UV-I 794 W/m 11,0 C 24,8 C 4,8 km/h (1 Bft) 100,00 %
06.06.2016 15:05 24,8 C 45 % 1016,8 hPa 0,0 l/m 3,3 km/h (1 Bft) O-NO 63 1 min 0,000 mm 5,0 UV-I 793 W/m 12,0 C 24,8 C 6,4 km/h (2 Bft) 95,65 %
06.06.2016 15:06 24,8 C 43 % 1016,8 hPa 0,0 l/m 2,9 km/h (1 Bft) N-NO 22 1 min 0,000 mm 4,9 UV-I 790 W/m 11,4 C 24,8 C 4,8 km/h (1 Bft) 100,00 %
06.06.2016 15:07 24,8 C 48 % 1016,8 hPa 0,0 l/m 1,5 km/h (1 Bft) N-NO 26 1 min 0,000 mm 4,9 UV-I 785 W/m 13,0 C 24,8 C 3,2 km/h (1 Bft) 100,00 %
06.06.2016 15:08 24,8 C 53 % 1016,8 hPa 0,0 l/m 1,2 km/h (1 Bft) N 9 1 min 0,000 mm 4,9 UV-I 781 W/m 14,6 C 24,8 C 3,2 km/h (1 Bft) 90,91 %
06.06.2016 15:09 24,8 C 45 % 1016,8 hPa 0,0 l/m 1,3 km/h (1 Bft) N 5 1 min 0,000 mm 4,9 UV-I 781 W/m 12,0 C 24,8 C 3,2 km/h (1 Bft) 100,00 %
06.06.2016 15:10 24,8 C 51 % 1016,8 hPa 0,0 l/m 0,7 km/h (0 Bft) N 5 1 min 0,000 mm 4,9 UV-I 780 W/m 14,0 C 24,8 C 1,6 km/h (1 Bft) 100,00 %
06.06.2016 15:11 24,8 C 51 % 1016,8 hPa 0,0 l/m 0,8 km/h (0 Bft) N 9 1 min 0,000 mm 4,8 UV-I 779 W/m 14,0 C 24,8 C 1,6 km/h (1 Bft) 100,00 %
06.06.2016 15:12 24,8 C 52 % 1016,8 hPa 0,0 l/m 1,9 km/h (1 Bft) N-NW 332 1 min 0,000 mm 4,8 UV-I 779 W/m 14,3 C 24,8 C 3,2 km/h (1 Bft) 95,65 %
06.06.2016 15:13 24,8 C 49 % 1016,8 hPa 0,0 l/m 3,9 km/h (1 Bft) NO 45 1 min 0,000 mm 4,8 UV-I 780 W/m 13,3 C 24,8 C 11,3 km/h (2 Bft) 100,00 %
06.06.2016 15:14 24,9 C 53 % 1016,7 hPa 0,0 l/m 8,4 km/h (2 Bft) NO 49 1 min 0,000 mm 4,8 UV-I 778 W/m 14,6 C 24,4 C 11,3 km/h (2 Bft) 100,00 %
06.06.2016 15:15 24,9 C 52 % 1016,7 hPa 0,0 l/m 7,0 km/h (2 Bft) O-NO 60 1 min 0,000 mm 4,8 UV-I 777 W/m 14,4 C 24,7 C 9,7 km/h (2 Bft) 100,00 %
06.06.2016 15:16 24,9 C 52 % 1016,7 hPa 0,0 l/m 6,4 km/h (2 Bft) NO 46 1 min 0,000 mm 4,8 UV-I 775 W/m 14,4 C 24,9 C 9,7 km/h (2 Bft) 100,00 %
06.06.2016 15:17 24,9 C 55 % 1016,7 hPa 0,0 l/m 8,4 km/h (2 Bft) O-NO 74 1 min 0,000 mm 4,7 UV-I 773 W/m 15,2 C 24,4 C 11,3 km/h (2 Bft) 100,00 %
06.06.2016 15:18 24,9 C 48 % 1016,6 hPa 0,0 l/m 8,5 km/h (2 Bft) O-NO 65 1 min 0,000 mm 4,7 UV-I 770 W/m 13,1 C 24,4 C 11,3 km/h (2 Bft) 100,00 %
06.06.2016 15:19 24,9 C 49 % 1016,7 hPa 0,0 l/m 5,4 km/h (1 Bft) O-NO 67 1 min 0,000 mm 4,7 UV-I 771 W/m 13,4 C 24,9 C 8,0 km/h (2 Bft) 100,00 %
06.06.2016 15:20 24,9 C 47 % 1016,6 hPa 0,0 l/m 5,2 km/h (1 Bft) O-NO 65 1 min 0,000 mm 4,7 UV-I 772 W/m 12,8 C 24,9 C 8,0 km/h (2 Bft) 100,00 %
06.06.2016 15:21 24,8 C 48 % 1016,6 hPa 0,0 l/m 2,8 km/h (1 Bft) NO 46 1 min 0,000 mm 4,6 UV-I 771 W/m 13,0 C 24,8 C 4,8 km/h (1 Bft) 100,00 %
06.06.2016 15:22 24,8 C 52 % 1016,6 hPa 0,0 l/m 2,1 km/h (1 Bft) N 360 1 min 0,000 mm 4,6 UV-I 768 W/m 14,3 C 24,8 C 4,8 km/h (1 Bft) 100,00 %
06.06.2016 15:23 24,8 C 52 % 1016,6 hPa 0,0 l/m 1,5 km/h (1 Bft) N 360 1 min 0,000 mm 4,6 UV-I 766 W/m 14,3 C 24,8 C 3,2 km/h (1 Bft) 100,00 %
06.06.2016 15:24 24,8 C 55 % 1016,6 hPa 0,0 l/m 1,9 km/h (1 Bft) NW 317 1 min 0,000 mm 4,6 UV-I 763 W/m 15,1 C 24,8 C 3,2 km/h (1 Bft) 100,00 %
06.06.2016 15:25 24,8 C 55 % 1016,6 hPa 0,0 l/m 1,7 km/h (1 Bft) N-NW 342 1 min 0,000 mm 4,5 UV-I 759 W/m 15,1 C 24,8 C 3,2 km/h (1 Bft) 95,65 %
06.06.2016 15:26 24,7 C 50 % 1016,6 hPa 0,0 l/m 2,7 km/h (1 Bft) N 10 1 min 0,000 mm 4,5 UV-I 759 W/m 13,6 C 24,7 C 6,4 km/h (2 Bft) 100,00 %
06.06.2016 15:27 24,7 C 47 % 1016,5 hPa 0,0 l/m 2,5 km/h (1 Bft) N 5 1 min 0,000 mm 4,5 UV-I 757 W/m 12,6 C 24,7 C 4,8 km/h (1 Bft) 100,00 %
06.06.2016 15:28 24,6 C 48 % 1016,6 hPa 0,0 l/m 1,2 km/h (1 Bft) N-NW 346 1 min 0,000 mm 4,5 UV-I 758 W/m 12,8 C 24,6 C 3,2 km/h (1 Bft) 100,00 %
06.06.2016 15:29 24,6 C 52 % 1016,6 hPa 0,0 l/m 1,3 km/h (1 Bft) N-NW 338 1 min 0,000 mm 4,5 UV-I 756 W/m 14,1 C 24,6 C 3,2 km/h (1 Bft) 100,00 %
06.06.2016 15:30 24,6 C 53 % 1016,6 hPa 0,0 l/m 1,3 km/h (1 Bft) N-NW 334 1 min 0,000 mm 4,5 UV-I 758 W/m 14,4 C 24,6 C 3,2 km/h (1 Bft) 100,00 %
06.06.2016 15:31 24,6 C 53 % 1016,6 hPa 0,0 l/m 0,8 km/h (0 Bft) NW 315 1 min 0,000 mm 4,5 UV-I 757 W/m 14,4 C 24,6 C 1,6 km/h (1 Bft) 100,00 %
06.06.2016 15:32 24,6 C 52 % 1016,6 hPa 0,0 l/m 0,9 km/h (0 Bft) NW 311 1 min 0,000 mm 4,4 UV-I 755 W/m 14,1 C 24,6 C 3,2 km/h (1 Bft) 100,00 %
06.06.2016 15:33 24,7 C 57 % 1016,6 hPa 0,0 l/m 1,7 km/h (1 Bft) N 350 1 min 0,000 mm 4,4 UV-I 752 W/m 15,6 C 24,7 C 3,2 km/h (1 Bft) 100,00 %
06.06.2016 15:34 24,8 C 51 % 1016,6 hPa 0,0 l/m 4,8 km/h (1 Bft) NO 36 1 min 0,000 mm 4,4 UV-I 751 W/m 14,0 C 24,8 C 8,0 km/h (2 Bft) 100,00 %
06.06.2016 15:35 24,9 C 49 % 1016,6 hPa 0,0 l/m 4,2 km/h (1 Bft) O-NO 69 1 min 0,000 mm 4,4 UV-I 749 W/m 13,4 C 24,9 C 4,8 km/h (1 Bft) 100,00 %
06.06.2016 15:36 24,9 C 41 % 1016,6 hPa 0,0 l/m 6,9 km/h (2 Bft) O-NO 66 1 min 0,000 mm 4,3 UV-I 750 W/m 10,7 C 24,8 C 8,0 km/h (2 Bft) 100,00 %
06.06.2016 15:37 25,0 C 42 % 1016,5 hPa 0,0 l/m 4,4 km/h (1 Bft) NO 44 1 min 0,000 mm 4,3 UV-I 748 W/m 11,2 C 25,0 C 4,8 km/h (1 Bft) 97,73 %
06.06.2016 15:38 25,1 C 49 % 1016,5 hPa 0,0 l/m 3,1 km/h (1 Bft) O 90 1 min 0,000 mm 4,3 UV-I 746 W/m 13,6 C 25,1 C 4,8 km/h (1 Bft) 100,00 %
06.06.2016 15:39 25,1 C 45 % 1016,5 hPa 0,0 l/m 3,6 km/h (1 Bft) O 90 1 min 0,000 mm 4,3 UV-I 748 W/m 12,3 C 25,1 C 4,8 km/h (1 Bft) 91,67 %
06.06.2016 15:40 25,1 C 46 % 1016,5 hPa 0,0 l/m 5,6 km/h (1 Bft) N-NO 32 1 min 0,000 mm 4,3 UV-I 747 W/m 12,7 C 25,1 C 8,0 km/h (2 Bft) 100,00 %
06.06.2016 15:41 25,2 C 46 % 1016,5 hPa 0,0 l/m 6,1 km/h (2 Bft) NO 42 1 min 0,000 mm 4,3 UV-I 747 W/m 12,7 C 25,2 C 8,0 km/h (2 Bft) 96,30 %
06.06.2016 15:42 25,2 C 48 % 1016,5 hPa 0,0 l/m 7,1 km/h (2 Bft) NO 44 1 min 0,000 mm 4,2 UV-I 745 W/m 13,4 C 25,0 C 8,0 km/h (2 Bft) 100,00 %
06.06.2016 15:43 25,2 C 47 % 1016,5 hPa 0,0 l/m 4,8 km/h (1 Bft) N-NO 31 1 min 0,000 mm 4,2 UV-I 742 W/m 13,1 C 25,2 C 9,7 km/h (2 Bft) 100,00 %
06.06.2016 15:44 25,2 C 49 % 1016,6 hPa 0,0 l/m 3,7 km/h (1 Bft) N-NO 31 1 min 0,000 mm 4,2 UV-I 740 W/m 13,7 C 25,2 C 6,4 km/h (2 Bft) 100,00 %
06.06.2016 15:45 25,2 C 53 % 1016,6 hPa 0,0 l/m 3,1 km/h (1 Bft) N 10 1 min 0,000 mm 4,1 UV-I 739 W/m 14,9 C 25,2 C 6,4 km/h (2 Bft) 100,00 %
06.06.2016 15:46 25,2 C 54 % 1016,6 hPa 0,0 l/m 1,8 km/h (1 Bft) N-NO 23 1 min 0,000 mm 4,1 UV-I 737 W/m 15,2 C 25,2 C 4,8 km/h (1 Bft) 100,00 %
06.06.2016 15:47 25,3 C 55 % 1016,6 hPa 0,0 l/m 7,3 km/h (2 Bft) N-NO 13 1 min 0,000 mm 4,1 UV-I 738 W/m 15,6 C 25,1 C 9,7 km/h (2 Bft) 100,00 %
06.06.2016 15:48 25,2 C 53 % 1016,6 hPa 0,0 l/m 5,0 km/h (1 Bft) N-NO 13 1 min 0,000 mm 4,1 UV-I 736 W/m 14,9 C 25,2 C 6,4 km/h (2 Bft) 100,00 %
06.06.2016 15:49 25,1 C 50 % 1016,6 hPa 0,0 l/m 1,5 km/h (1 Bft) N-NO 13 1 min 0,000 mm 4,1 UV-I 734 W/m 13,9 C 25,1 C 1,6 km/h (1 Bft) 100,00 %
06.06.2016 15:50 25,0 C 50 % 1016,6 hPa 0,0 l/m 1,9 km/h (1 Bft) N 5 1 min 0,000 mm 4,0 UV-I 732 W/m 13,8 C 25,0 C 3,2 km/h (1 Bft) 100,00 %
06.06.2016 15:51 25,0 C 50 % 1016,6 hPa 0,0 l/m 5,1 km/h (1 Bft) N-NO 21 1 min 0,000 mm 4,0 UV-I 731 W/m 13,8 C 25,0 C 11,3 km/h (2 Bft) 100,00 %
06.06.2016 15:52 24,9 C 51 % 1016,6 hPa 0,0 l/m 7,8 km/h (2 Bft) N-NO 13 1 min 0,000 mm 4,0 UV-I 729 W/m 14,1 C 24,5 C 12,9 km/h (3 Bft) 90,91 %
06.06.2016 15:53 24,9 C 51 % 1016,6 hPa 0,0 l/m 5,4 km/h (1 Bft) N 355 1 min 0,000 mm 4,0 UV-I 724 W/m 14,1 C 24,9 C 11,3 km/h (2 Bft) 95,83 %
06.06.2016 15:54 24,9 C 55 % 1016,6 hPa 0,0 l/m 3,2 km/h (1 Bft) N 11 1 min 0,000 mm 3,9 UV-I 721 W/m 15,2 C 24,9 C 6,4 km/h (2 Bft) 91,30 %
06.06.2016 15:55 24,9 C 52 % 1016,7 hPa 0,0 l/m 2,8 km/h (1 Bft) N 9 1 min 0,000 mm 3,9 UV-I 719 W/m 14,4 C 24,9 C 4,8 km/h (1 Bft) 100,00 %
06.06.2016 15:56 24,9 C 55 % 1016,6 hPa 0,0 l/m 2,1 km/h (1 Bft) N 9 1 min 0,000 mm 3,9 UV-I 717 W/m 15,2 C 24,9 C 3,2 km/h (1 Bft) 100,00 %
06.06.2016 15:57 25,0 C 54 % 1016,7 hPa 0,0 l/m 2,9 km/h (1 Bft) N-NO 32 1 min 0,000 mm 3,8 UV-I 713 W/m 15,0 C 25,0 C 6,4 km/h (2 Bft) 100,00 %
06.06.2016 15:58 25,1 C 52 % 1016,7 hPa 0,0 l/m 8,9 km/h (2 Bft) NO 51 1 min 0,000 mm 3,8 UV-I 712 W/m 14,5 C 24,5 C 12,9 km/h (3 Bft) 100,00 %
06.06.2016 15:59 25,2 C 48 % 1016,6 hPa 0,0 l/m 5,9 km/h (2 Bft) O-NO 60 1 min 0,000 mm 3,8 UV-I 709 W/m 13,4 C 25,2 C 9,7 km/h (2 Bft) 100,00 %
06.06.2016 16:00 25,2 C 47 % 1016,6 hPa 0,0 l/m 7,6 km/h (2 Bft) N-NO 28 1 min 0,508 mm 3,8 UV-I 707 W/m 13,1 C 24,9 C 11,3 km/h (2 Bft) 100,00 %
06.06.2016 16:01 25,2 C 46 % 1016,6 hPa 0,0 l/m 4,2 km/h (1 Bft) O-NO 67 1 min 0,000 mm 3,8 UV-I 709 W/m 12,7 C 25,2 C 4,8 km/h (1 Bft) 100,00 %
06.06.2016 16:02 25,3 C 46 % 1016,6 hPa 0,0 l/m 11,1 km/h (2 Bft) O-NO 76 1 min 0,000 mm 3,7 UV-I 710 W/m 12,8 C 24,3 C 16,1 km/h (3 Bft) 100,00 %
06.06.2016 16:03 25,3 C 43 % 1016,6 hPa 0,0 l/m 11,7 km/h (2 Bft) O 94 1 min 0,000 mm 3,7 UV-I 708 W/m 11,8 C 24,2 C 14,5 km/h (3 Bft) 100,00 %
06.06.2016 16:04 25,3 C 42 % 1016,6 hPa 0,0 l/m 9,5 km/h (2 Bft) NO 55 1 min 0,000 mm 3,7 UV-I 712 W/m 11,5 C 24,6 C 16,1 km/h (3 Bft) 100,00 %
06.06.2016 16:05 25,4 C 43 % 1016,6 hPa 0,0 l/m 11,2 km/h (2 Bft) NO 56 1 min 0,000 mm 3,7 UV-I 714 W/m 11,9 C 24,4 C 16,1 km/h (3 Bft) 100,00 %
06.06.2016 16:06 25,4 C 43 % 1016,6 hPa 0,0 l/m 7,2 km/h (2 Bft) NO 54 1 min 0,000 mm 3,7 UV-I 715 W/m 11,9 C 25,2 C 9,7 km/h (2 Bft) 100,00 %
06.06.2016 16:07 25,5 C 43 % 1016,6 hPa 0,0 l/m 6,9 km/h (2 Bft) O-NO 74 1 min 0,000 mm 3,7 UV-I 714 W/m 12,0 C 25,4 C 8,0 km/h (2 Bft) 90,91 %
06.06.2016 16:08 25,5 C 39 % 1016,6 hPa 0,0 l/m 12,2 km/h (2 Bft) O-NO 77 1 min 0,000 mm 3,7 UV-I 715 W/m 10,5 C 24,3 C 16,1 km/h (3 Bft) 96,67 %
06.06.2016 16:09 25,5 C 41 % 1016,6 hPa 0,0 l/m 15,1 km/h (3 Bft) O-NO 70 1 min 0,000 mm 3,6 UV-I 713 W/m 11,3 C 23,9 C 17,7 km/h (3 Bft) 100,00 %
06.06.2016 16:10 25,4 C 38 % 1016,6 hPa 0,0 l/m 9,3 km/h (2 Bft) O-NO 78 1 min 0,000 mm 3,6 UV-I 710 W/m 10,0 C 24,7 C 14,5 km/h (3 Bft) 98,64 %
06.06.2016 16:11 25,5 C 43 % 1016,7 hPa 0,0 l/m 11,9 km/h (2 Bft) O-NO 61 1 min 0,000 mm 3,6 UV-I 713 W/m 12,0 C 24,4 C 14,5 km/h (3 Bft) 100,00 %
06.06.2016 16:12 25,5 C 40 % 1016,7 hPa 0,0 l/m 7,0 km/h (2 Bft) O-SO 103 1 min 0,000 mm 3,6 UV-I 715 W/m 10,9 C 25,4 C 9,7 km/h (2 Bft) 100,00 %
06.06.2016 16:13 25,4 C 45 % 1016,7 hPa 0,0 l/m 8,9 km/h (2 Bft) O-NO 65 1 min 0,000 mm 3,6 UV-I 716 W/m 12,6 C 24,8 C 16,1 km/h (3 Bft) 100,00 %
06.06.2016 16:14 25,4 C 44 % 1016,7 hPa 0,0 l/m 10,1 km/h (2 Bft) O-NO 58 1 min 0,000 mm 3,6 UV-I 718 W/m 12,2 C 24,6 C 14,5 km/h (3 Bft) 100,00 %
06.06.2016 16:15 25,4 C 45 % 1016,7 hPa 0,0 l/m 12,6 km/h (3 Bft) NO 34 1 min 0,000 mm 3,6 UV-I 721 W/m 12,6 C 24,2 C 14,5 km/h (3 Bft) 100,00 %
06.06.2016 16:16 25,4 C 50 % 1016,7 hPa 0,0 l/m 14,1 km/h (3 Bft) N-NO 32 1 min 0,000 mm 3,6 UV-I 721 W/m 14,2 C 23,9 C 16,1 km/h (3 Bft) 100,00 %
06.06.2016 16:17 25,3 C 47 % 1016,7 hPa 0,0 l/m 5,6 km/h (1 Bft) N 10 1 min 0,000 mm 3,5 UV-I 720 W/m 13,2 C 25,3 C 9,7 km/h (2 Bft) 100,00 %
06.06.2016 16:18 25,2 C 49 % 1016,7 hPa 0,0 l/m 3,8 km/h (1 Bft) N-NO 27 1 min 0,000 mm 3,5 UV-I 717 W/m 13,7 C 25,2 C 8,0 km/h (2 Bft) 100,00 %
06.06.2016 16:19 25,1 C 53 % 1016,7 hPa 0,0 l/m 3,1 km/h (1 Bft) N-NO 15 1 min 0,000 mm 3,5 UV-I 718 W/m 14,8 C 25,1 C 6,4 km/h (2 Bft) 100,00 %
06.06.2016 16:20 25,1 C 55 % 1016,8 hPa 0,0 l/m 4,1 km/h (1 Bft) N-NO 26 1 min 0,000 mm 3,5 UV-I 720 W/m 15,4 C 25,1 C 8,0 km/h (2 Bft) 100,00 %
06.06.2016 16:21 25,1 C 53 % 1016,8 hPa 0,0 l/m 7,5 km/h (2 Bft) NO 40 1 min 0,000 mm 3,4 UV-I 716 W/m 14,8 C 24,8 C 16,1 km/h (3 Bft) 100,00 %
06.06.2016 16:22 25,2 C 49 % 1016,8 hPa 0,0 l/m 9,0 km/h (2 Bft) O-NO 58 1 min 0,000 mm 3,4 UV-I 717 W/m 13,7 C 24,6 C 11,3 km/h (2 Bft) 100,00 %
06.06.2016 16:23 25,3 C 47 % 1016,8 hPa 0,0 l/m 14,6 km/h (3 Bft) NO 52 1 min 0,000 mm 3,4 UV-I 716 W/m 13,2 C 23,7 C 19,3 km/h (3 Bft) 100,00 %
06.06.2016 16:24 25,3 C 46 % 1016,8 hPa 0,0 l/m 12,5 km/h (3 Bft) O-NO 67 1 min 0,000 mm 3,4 UV-I 717 W/m 12,8 C 24,0 C 20,9 km/h (4 Bft) 100,00 %
06.06.2016 16:25 25,4 C 47 % 1016,8 hPa 0,0 l/m 17,5 km/h (3 Bft) O-NO 64 1 min 0,000 mm 3,4 UV-I 720 W/m 13,3 C 23,5 C 19,3 km/h (3 Bft) 100,00 %
06.06.2016 16:26 25,4 C 43 % 1016,8 hPa 0,0 l/m 12,3 km/h (3 Bft) N-NO 32 1 min 0,000 mm 3,3 UV-I 725 W/m 11,9 C 24,2 C 17,7 km/h (3 Bft) 100,00 %
06.06.2016 16:27 25,4 C 50 % 1016,8 hPa 0,0 l/m 8,9 km/h (2 Bft) NO 49 1 min 0,000 mm 3,3 UV-I 731 W/m 14,2 C 24,8 C 14,5 km/h (3 Bft) 96,30 %
06.06.2016 16:28 25,4 C 47 % 1016,8 hPa 0,0 l/m 14,8 km/h (3 Bft) O 89 1 min 0,000 mm 3,3 UV-I 738 W/m 13,3 C 23,8 C 19,3 km/h (3 Bft) 100,00 %
06.06.2016 16:29 25,4 C 43 % 1016,8 hPa 0,0 l/m 14,2 km/h (3 Bft) NO 37 1 min 0,000 mm 3,3 UV-I 747 W/m 11,9 C 23,9 C 19,3 km/h (3 Bft) 100,00 %
06.06.2016 16:30 25,5 C 43 % 1016,8 hPa 0,0 l/m 8,8 km/h (2 Bft) NO 51 1 min 0,000 mm 3,3 UV-I 755 W/m 12,0 C 25,0 C 11,3 km/h (2 Bft) 96,15 %
06.06.2016 16:31 25,4 C 46 % 1016,8 hPa 0,0 l/m 7,6 km/h (2 Bft) NO 44 1 min 0,000 mm 3,3 UV-I 758 W/m 12,9 C 25,1 C 11,3 km/h (2 Bft) 95,83 %
06.06.2016 16:32 25,5 C 51 % 1016,9 hPa 0,0 l/m 6,1 km/h (2 Bft) N-NO 26 1 min 0,000 mm 3,2 UV-I 762 W/m 14,6 C 25,5 C 12,9 km/h (3 Bft) 100,00 %
06.06.2016 16:33 25,4 C 57 % 1017,0 hPa 0,0 l/m 8,2 km/h (2 Bft) NW 307 1 min 0,000 mm 3,2 UV-I 769 W/m 16,2 C 25,0 C 19,3 km/h (3 Bft) 96,30 %
06.06.2016 16:34 25,3 C 55 % 1016,9 hPa 0,0 l/m 6,8 km/h (2 Bft) NW 323 1 min 0,000 mm 3,1 UV-I 766 W/m 15,6 C 25,2 C 14,5 km/h (3 Bft) 100,00 %
06.06.2016 16:35 24,9 C 55 % 1016,8 hPa 0,0 l/m 13,6 km/h (3 Bft) NO 38 1 min 0,000 mm 3,1 UV-I 768 W/m 15,2 C 23,4 C 40,2 km/h (6 Bft) 96,67 %
06.06.2016 16:36 24,7 C 58 % 1016,9 hPa 0,0 l/m 28,9 km/h (5 Bft) O-NO 57 1 min 0,000 mm 3,0 UV-I 786 W/m 15,9 C 21,4 C 46,7 km/h (6 Bft) 92,31 %
06.06.2016 16:37 24,4 C 55 % 1017,1 hPa 0,0 l/m 30,1 km/h (5 Bft) N-NO 28 1 min 0,000 mm 2,8 UV-I 807 W/m 14,8 C 20,9 C 41,8 km/h (6 Bft) 98,65 %
06.06.2016 16:38 24,1 C 55 % 1017,1 hPa 0,0 l/m 37,0 km/h (5 Bft) N 9 1 min 0,000 mm 2,7 UV-I 802 W/m 14,5 C 20,0 C 53,1 km/h (7 Bft) 97,56 %
06.06.2016 16:39 23,8 C 58 % 1017,1 hPa 0,0 l/m 27,9 km/h (4 Bft) N-NO 19 1 min 0,000 mm 2,7 UV-I 824 W/m 15,0 C 20,2 C 35,4 km/h (5 Bft) 96,30 %
06.06.2016 16:40 23,6 C 58 % 1017,3 hPa 0,0 l/m 21,7 km/h (4 Bft) N-NO 30 1 min 0,000 mm 2,6 UV-I 797 W/m 14,8 C 20,6 C 27,4 km/h (4 Bft) 91,67 %
06.06.2016 16:41 23,3 C 60 % 1017,2 hPa 0,0 l/m 23,7 km/h (4 Bft) N 10 1 min 0,000 mm 2,3 UV-I 742 W/m 15,1 C 20,0 C 30,6 km/h (5 Bft) 100,00 %
06.06.2016 16:42 23,2 C 59 % 1017,2 hPa 0,0 l/m 21,4 km/h (4 Bft) N 11 1 min 0,000 mm 2,3 UV-I 759 W/m 14,7 C 20,2 C 29,0 km/h (5 Bft) 96,55 %
06.06.2016 16:43 23,0 C 61 % 1017,3 hPa 0,0 l/m 14,8 km/h (3 Bft) N-NO 30 1 min 0,000 mm 2,4 UV-I 614 W/m 15,1 C 20,9 C 17,7 km/h (3 Bft) 100,00 %
06.06.2016 16:44 22,9 C 62 % 1017,3 hPa 0,0 l/m 14,7 km/h (3 Bft) N 360 1 min 0,000 mm 2,6 UV-I 517 W/m 15,2 C 20,8 C 25,7 km/h (4 Bft) 96,30 %
06.06.2016 16:45 22,9 C 61 % 1017,3 hPa 0,0 l/m 21,1 km/h (4 Bft) N-NO 32 1 min 0,000 mm 2,7 UV-I 824 W/m 15,0 C 19,8 C 27,4 km/h (4 Bft) 92,31 %
06.06.2016 16:46 22,9 C 63 % 1017,3 hPa 0,0 l/m 19,0 km/h (3 Bft) N-NO 25 1 min 0,000 mm 2,6 UV-I 782 W/m 15,5 C 20,1 C 30,6 km/h (5 Bft) 100,00 %
06.06.2016 16:47 22,9 C 63 % 1017,3 hPa 0,0 l/m 20,8 km/h (4 Bft) N-NO 14 1 min 0,000 mm 2,6 UV-I 797 W/m 15,5 C 19,8 C 30,6 km/h (5 Bft) 96,15 %
06.06.2016 16:48 22,9 C 65 % 1017,3 hPa 0,0 l/m 15,6 km/h (3 Bft) N 10 1 min 0,000 mm 2,6 UV-I 780 W/m 16,0 C 20,7 C 25,7 km/h (4 Bft) 100,00 %
06.06.2016 16:49 22,8 C 62 % 1017,3 hPa 0,0 l/m 19,6 km/h (3 Bft) NO 40 1 min 0,000 mm 2,5 UV-I 773 W/m 15,1 C 19,9 C 27,4 km/h (4 Bft) 95,65 %
06.06.2016 16:50 22,7 C 62 % 1017,3 hPa 0,0 l/m 18,6 km/h (3 Bft) NO 39 1 min 0,000 mm 2,3 UV-I 745 W/m 15,0 C 19,9 C 25,7 km/h (4 Bft) 100,00 %
06.06.2016 16:51 22,6 C 62 % 1017,3 hPa 0,0 l/m 15,0 km/h (3 Bft) NO 40 1 min 0,000 mm 2,2 UV-I 715 W/m 14,9 C 20,4 C 22,5 km/h (4 Bft) 96,15 %
06.06.2016 16:52 22,5 C 62 % 1017,3 hPa 0,0 l/m 15,4 km/h (3 Bft) N-NO 17 1 min 0,000 mm 2,1 UV-I 694 W/m 14,8 C 20,2 C 20,9 km/h (4 Bft) 100,00 %
06.06.2016 16:53 22,4 C 61 % 1017,3 hPa 0,0 l/m 14,2 km/h (3 Bft) N-NO 32 1 min 0,000 mm 1,9 UV-I 510 W/m 14,5 C 20,3 C 22,5 km/h (4 Bft) 92,31 %
06.06.2016 16:54 22,3 C 61 % 1017,3 hPa 0,0 l/m 18,1 km/h (3 Bft) O-NO 68 0 min 0,000 mm 1,4 UV-I 328 W/m 14,4 C 19,5 C 25,7 km/h (4 Bft) 96,30 %
06.06.2016 16:55 22,3 C 60 % 1017,3 hPa 0,0 l/m 19,3 km/h (3 Bft) N-NO 30 0 min 0,000 mm 1,2 UV-I 239 W/m 14,2 C 19,3 C 25,7 km/h (4 Bft) 100,00 %
06.06.2016 16:56 22,1 C 62 % 1017,3 hPa 0,0 l/m 17,8 km/h (3 Bft) NO 42 0 min 0,000 mm 1,0 UV-I 186 W/m 14,5 C 19,3 C 24,1 km/h (4 Bft) 95,83 %
06.06.2016 16:57 21,9 C 62 % 1017,3 hPa 0,0 l/m 13,4 km/h (3 Bft) N-NO 20 0 min 0,000 mm 0,9 UV-I 167 W/m 14,3 C 19,9 C 17,7 km/h (3 Bft) 100,00 %
06.06.2016 16:58 21,8 C 63 % 1017,3 hPa 0,0 l/m 15,5 km/h (3 Bft) O-NO 69 0 min 0,000 mm 0,9 UV-I 160 W/m 14,4 C 19,3 C 22,5 km/h (4 Bft) 96,15 %
06.06.2016 16:59 21,6 C 64 % 1017,3 hPa 0,0 l/m 13,0 km/h (3 Bft) N-NO 25 0 min 0,000 mm 0,8 UV-I 153 W/m 14,5 C 19,6 C 17,7 km/h (3 Bft) 96,30 %
06.06.2016 17:00 21,4 C 64 % 1017,3 hPa 0,0 l/m 19,6 km/h (3 Bft) N-NO 24 0 min 0,000 mm 0,8 UV-I 148 W/m 14,3 C 18,1 C 27,4 km/h (4 Bft) 91,30 %
06.06.2016 17:01 21,2 C 64 % 1017,2 hPa 0,0 l/m 15,5 km/h (3 Bft) W 275 0 min 0,508 mm 0,7 UV-I 143 W/m 14,1 C 18,6 C 24,1 km/h (4 Bft) 100,00 %
06.06.2016 17:02 21,0 C 64 % 1017,2 hPa 0,0 l/m 13,0 km/h (3 Bft) N-NO 19 0 min 0,000 mm 0,7 UV-I 139 W/m 13,9 C 18,9 C 24,1 km/h (4 Bft) 100,00 %
06.06.2016 17:03 20,8 C 65 % 1017,3 hPa 0,0 l/m 14,0 km/h (3 Bft) N-NO 30 0 min 0,000 mm 0,7 UV-I 134 W/m 14,0 C 18,4 C 20,9 km/h (4 Bft) 100,00 %
06.06.2016 17:04 20,6 C 66 % 1017,4 hPa 0,0 l/m 15,9 km/h (3 Bft) N-NO 19 0 min 0,000 mm 0,6 UV-I 131 W/m 14,0 C 17,8 C 29,0 km/h (5 Bft) 100,00 %
06.06.2016 17:05 20,3 C 66 % 1017,3 hPa 0,0 l/m 19,4 km/h (3 Bft) N-NO 15 0 min 0,000 mm 0,6 UV-I 129 W/m 13,7 C 16,7 C 24,1 km/h (4 Bft) 100,00 %
06.06.2016 17:06 20,2 C 66 % 1017,3 hPa 0,0 l/m 15,2 km/h (3 Bft) NO 43 0 min 0,000 mm 0,6 UV-I 124 W/m 13,6 C 17,4 C 24,1 km/h (4 Bft) 100,00 %
06.06.2016 17:07 20,0 C 67 % 1017,3 hPa 0,0 l/m 12,5 km/h (3 Bft) N 5 0 min 0,000 mm 0,5 UV-I 120 W/m 13,7 C 17,9 C 24,1 km/h (4 Bft) 100,00 %
06.06.2016 17:08 19,9 C 67 % 1017,3 hPa 0,0 l/m 14,7 km/h (3 Bft) N 355 0 min 0,000 mm 0,5 UV-I 118 W/m 13,6 C 17,2 C 22,5 km/h (4 Bft) 100,00 %
06.06.2016 17:09 19,7 C 68 % 1017,3 hPa 0,0 l/m 12,2 km/h (2 Bft) N-NO 19 0 min 0,000 mm 0,5 UV-I 114 W/m 13,6 C 17,6 C 19,3 km/h (3 Bft) 96,15 %
06.06.2016 17:10 19,6 C 68 % 1017,3 hPa 0,0 l/m 16,0 km/h (3 Bft) N-NO 19 0 min 0,000 mm 0,5 UV-I 112 W/m 13,5 C 16,5 C 24,1 km/h (4 Bft) 100,00 %
06.06.2016 17:11 19,5 C 68 % 1017,3 hPa 0,0 l/m 15,3 km/h (3 Bft) N-NO 26 0 min 0,000 mm 0,4 UV-I 108 W/m 13,4 C 16,6 C 22,5 km/h (4 Bft) 100,00 %
06.06.2016 17:12 19,4 C 69 % 1017,2 hPa 0,0 l/m 19,9 km/h (4 Bft) N-NO 26 0 min 0,000 mm 0,0 UV-I 105 W/m 13,6 C 15,4 C 29,0 km/h (5 Bft) 100,00 %
06.06.2016 17:13 19,3 C 69 % 1017,2 hPa 0,0 l/m 8,6 km/h (2 Bft) N 355 0 min 0,000 mm 0,0 UV-I 103 W/m 13,5 C 18,4 C 14,5 km/h (3 Bft) 96,88 %
06.06.2016 17:14 19,3 C 70 % 1017,3 hPa 0,0 l/m 13,0 km/h (3 Bft) N-NW 336 0 min 0,000 mm 0,0 UV-I 100 W/m 13,7 C 16,9 C 17,7 km/h (3 Bft) 100,00 %
06.06.2016 17:15 19,2 C 71 % 1017,2 hPa 0,0 l/m 7,0 km/h (2 Bft) N-NO 16 0 min 0,000 mm 0,0 UV-I 97 W/m 13,8 C 18,9 C 12,9 km/h (3 Bft) 100,00 %
06.06.2016 17:16 19,2 C 71 % 1017,3 hPa 0,0 l/m 10,9 km/h (2 Bft) N-NO 33 0 min 0,000 mm 0,0 UV-I 94 W/m 13,8 C 17,5 C 14,5 km/h (3 Bft) 100,00 %
06.06.2016 17:17 19,1 C 71 % 1017,3 hPa 0,0 l/m 10,0 km/h (2 Bft) N 355 0 min 0,000 mm 0,0 UV-I 92 W/m 13,7 C 17,6 C 16,1 km/h (3 Bft) 95,65 %
06.06.2016 17:18 19,1 C 71 % 1017,3 hPa 0,0 l/m 8,9 km/h (2 Bft) N-NO 24 0 min 0,000 mm 0,0 UV-I 89 W/m 13,7 C 18,0 C 14,5 km/h (3 Bft) 100,00 %
06.06.2016 17:19 19,0 C 72 % 1017,3 hPa 0,0 l/m 10,6 km/h (2 Bft) N 11 0 min 0,000 mm 0,0 UV-I 86 W/m 13,8 C 17,3 C 14,5 km/h (3 Bft) 100,00 %
06.06.2016 17:20 19,0 C 72 % 1017,3 hPa 0,0 l/m 5,5 km/h (1 Bft) N 11 0 min 0,000 mm 0,0 UV-I 84 W/m 13,8 C 19,0 C 11,3 km/h (2 Bft) 100,00 %
06.06.2016 17:21 18,9 C 73 % 1017,4 hPa 0,0 l/m 7,1 km/h (2 Bft) N-NO 31 0 min 0,000 mm 0,0 UV-I 81 W/m 13,9 C 18,6 C 14,5 km/h (3 Bft) 100,00 %
06.06.2016 17:22 18,9 C 74 % 1017,4 hPa 0,0 l/m 5,6 km/h (1 Bft) N-NO 15 0 min 0,000 mm 0,0 UV-I 78 W/m 14,2 C 18,9 C 11,3 km/h (2 Bft) 100,00 %
06.06.2016 17:23 18,8 C 74 % 1017,4 hPa 0,0 l/m 6,2 km/h (2 Bft) N-NO 26 0 min 0,000 mm 0,0 UV-I 76 W/m 14,1 C 18,8 C 9,7 km/h (2 Bft) 100,00 %
06.06.2016 17:24 18,8 C 74 % 1017,4 hPa 0,0 l/m 0,8 km/h (0 Bft) N 5 0 min 0,000 mm 0,0 UV-I 75 W/m 14,1 C 18,8 C 1,6 km/h (1 Bft) 100,00 %
06.06.2016 17:25 18,8 C 74 % 1017,3 hPa 0,0 l/m 3,4 km/h (1 Bft) N-NW 333 0 min 0,000 mm 0,0 UV-I 71 W/m 14,1 C 18,8 C 9,7 km/h (2 Bft) 100,00 %
06.06.2016 17:26 18,7 C 74 % 1017,3 hPa 0,0 l/m 4,0 km/h (1 Bft) N-NO 18 0 min 0,000 mm 0,0 UV-I 69 W/m 14,0 C 18,7 C 6,4 km/h (2 Bft) 100,00 %
06.06.2016 17:27 18,7 C 74 % 1017,3 hPa 0,0 l/m 4,2 km/h (1 Bft) N-NO 14 0 min 0,000 mm 0,0 UV-I 66 W/m 14,0 C 18,7 C 8,0 km/h (2 Bft) 95,65 %
06.06.2016 17:28 18,7 C 75 % 1017,4 hPa 0,0 l/m 5,5 km/h (1 Bft) N-NO 19 0 min 0,000 mm 0,0 UV-I 64 W/m 14,2 C 18,7 C 11,3 km/h (2 Bft) 100,00 %
06.06.2016 17:29 18,6 C 75 % 1017,3 hPa 0,0 l/m 4,0 km/h (1 Bft) NO 40 0 min 0,000 mm 0,0 UV-I 63 W/m 14,1 C 18,6 C 8,0 km/h (2 Bft) 100,00 %
06.06.2016 17:30 18,6 C 76 % 1017,3 hPa 0,0 l/m 1,5 km/h (1 Bft) N-NO 13 0 min 0,000 mm 0,0 UV-I 62 W/m 14,3 C 18,6 C 3,2 km/h (1 Bft) 95,83 %
06.06.2016 17:31 18,5 C 76 % 1017,3 hPa 0,0 l/m 2,5 km/h (1 Bft) N 11 0 min 0,000 mm 0,0 UV-I 60 W/m 14,2 C 18,5 C 6,4 km/h (2 Bft) 100,00 %
06.06.2016 17:32 18,4 C 76 % 1017,3 hPa 0,0 l/m 5,6 km/h (1 Bft) N-NW 346 0 min 0,000 mm 0,0 UV-I 58 W/m 14,1 C 18,4 C 11,3 km/h (2 Bft) 100,00 %
06.06.2016 17:33 18,4 C 76 % 1017,3 hPa 0,0 l/m 3,3 km/h (1 Bft) N-NO 19 0 min 0,000 mm 0,0 UV-I 56 W/m 14,1 C 18,4 C 6,4 km/h (2 Bft) 100,00 %
06.06.2016 17:34 18,4 C 76 % 1017,3 hPa 0,0 l/m 2,5 km/h (1 Bft) N 355 0 min 0,000 mm 0,0 UV-I 55 W/m 14,1 C 18,4 C 4,8 km/h (1 Bft) 100,00 %
06.06.2016 17:35 18,3 C 77 % 1017,3 hPa 0,0 l/m 4,3 km/h (1 Bft) NW 325 0 min 0,000 mm 0,0 UV-I 53 W/m 14,2 C 18,3 C 8,0 km/h (2 Bft) 96,30 %
06.06.2016 17:36 18,3 C 77 % 1017,3 hPa 0,0 l/m 1,1 km/h (1 Bft) N-NW 346 0 min 0,000 mm 0,0 UV-I 53 W/m 14,2 C 18,3 C 1,6 km/h (1 Bft) 100,00 %
06.06.2016 17:37 18,3 C 77 % 1017,3 hPa 0,0 l/m 2,0 km/h (1 Bft) N-NO 12 0 min 0,000 mm 0,0 UV-I 51 W/m 14,2 C 18,3 C 3,2 km/h (1 Bft) 100,00 %
06.06.2016 17:38 18,3 C 77 % 1017,3 hPa 0,0 l/m 7,6 km/h (2 Bft) N-NO 27 0 min 0,000 mm 0,0 UV-I 49 W/m 14,2 C 17,7 C 16,1 km/h (3 Bft) 100,00 %
06.06.2016 17:39 18,2 C 76 % 1017,3 hPa 0,0 l/m 11,2 km/h (2 Bft) N 355 0 min 0,000 mm 0,0 UV-I 49 W/m 13,9 C 16,2 C 16,1 km/h (3 Bft) 100,00 %
06.06.2016 17:40 18,2 C 75 % 1017,3 hPa 0,0 l/m 5,1 km/h (1 Bft) N 355 0 min 0,000 mm 0,0 UV-I 47 W/m 13,7 C 18,2 C 9,7 km/h (2 Bft) 92,86 %
06.06.2016 17:41 18,2 C 76 % 1017,2 hPa 0,0 l/m 4,4 km/h (1 Bft) N-NO 19 0 min 0,000 mm 0,0 UV-I 46 W/m 13,9 C 18,2 C 6,4 km/h (2 Bft) 100,00 %
06.06.2016 17:42 18,1 C 77 % 1017,3 hPa 0,0 l/m 5,2 km/h (1 Bft) N-NO 13 0 min 0,000 mm 0,0 UV-I 46 W/m 14,0 C 18,1 C 9,7 km/h (2 Bft) 100,00 %
06.06.2016 17:43 18,1 C 77 % 1017,4 hPa 0,0 l/m 4,7 km/h (1 Bft) N-NO 30 0 min 0,000 mm 0,0 UV-I 44 W/m 14,0 C 18,1 C 9,7 km/h (2 Bft) 100,00 %
06.06.2016 17:44 18,0 C 77 % 1017,4 hPa 0,0 l/m 2,4 km/h (1 Bft) N-NO 19 0 min 0,000 mm 0,0 UV-I 44 W/m 13,9 C 18,0 C 4,8 km/h (1 Bft) 100,00 %
06.06.2016 17:45 17,9 C 76 % 1017,4 hPa 0,0 l/m 3,3 km/h (1 Bft) N-NO 24 0 min 0,000 mm 0,0 UV-I 43 W/m 13,6 C 17,9 C 4,8 km/h (1 Bft) 100,00 %
06.06.2016 17:46 17,9 C 76 % 1017,5 hPa 0,0 l/m 5,0 km/h (1 Bft) SW 229 0 min 0,000 mm 0,0 UV-I 42 W/m 13,6 C 17,9 C 9,7 km/h (2 Bft) 100,00 %
06.06.2016 17:47 17,9 C 75 % 1017,5 hPa 0,0 l/m 6,3 km/h (2 Bft) N-NW 337 0 min 0,000 mm 0,0 UV-I 42 W/m 13,4 C 17,9 C 11,3 km/h (2 Bft) 100,00 %
06.06.2016 17:48 17,9 C 75 % 1017,5 hPa 0,0 l/m 6,9 km/h (2 Bft) N-NW 343 0 min 0,000 mm 0,0 UV-I 42 W/m 13,4 C 17,7 C 14,5 km/h (3 Bft) 100,00 %
06.06.2016 17:49 17,9 C 76 % 1017,5 hPa 0,0 l/m 8,6 km/h (2 Bft) N-NO 15 0 min 0,000 mm 0,0 UV-I 42 W/m 13,6 C 16,9 C 16,1 km/h (3 Bft) 100,00 %
06.06.2016 17:50 17,9 C 75 % 1017,5 hPa 0,0 l/m 4,6 km/h (1 Bft) NW 320 0 min 0,000 mm 0,0 UV-I 42 W/m 13,4 C 17,9 C 8,0 km/h (2 Bft) 100,00 %
06.06.2016 17:51 17,9 C 75 % 1017,5 hPa 0,0 l/m 3,5 km/h (1 Bft) N-NW 336 0 min 0,000 mm 0,0 UV-I 41 W/m 13,4 C 17,9 C 6,4 km/h (2 Bft) 100,00 %
06.06.2016 17:52 17,9 C 75 % 1017,5 hPa 0,0 l/m 1,4 km/h (1 Bft) N-NW 338 0 min 0,000 mm 0,0 UV-I 40 W/m 13,4 C 17,9 C 3,2 km/h (1 Bft) 100,00 %
06.06.2016 17:53 17,9 C 75 % 1017,6 hPa 0,0 l/m 3,4 km/h (1 Bft) N 355 0 min 0,000 mm 0,0 UV-I 40 W/m 13,4 C 17,9 C 4,8 km/h (1 Bft) 100,00 %
06.06.2016 17:54 17,9 C 76 % 1017,6 hPa 0,0 l/m 5,8 km/h (2 Bft) N-NO 17 0 min 0,000 mm 0,0 UV-I 40 W/m 13,6 C 17,9 C 11,3 km/h (2 Bft) 100,00 %
06.06.2016 17:55 17,9 C 75 % 1017,5 hPa 0,0 l/m 3,7 km/h (1 Bft) N-NW 346 0 min 0,000 mm 0,0 UV-I 40 W/m 13,4 C 17,9 C 6,4 km/h (2 Bft) 100,00 %
06.06.2016 17:56 17,9 C 75 % 1017,5 hPa 0,0 l/m 3,4 km/h (1 Bft) NW 317 0 min 0,000 mm 0,0 UV-I 40 W/m 13,4 C 17,9 C 6,4 km/h (2 Bft) 100,00 %
06.06.2016 17:57 17,9 C 76 % 1017,6 hPa 0,0 l/m 3,6 km/h (1 Bft) N 5 0 min 0,000 mm 0,0 UV-I 40 W/m 13,6 C 17,9 C 6,4 km/h (2 Bft) 100,00 %
06.06.2016 17:58 17,9 C 75 % 1017,6 hPa 0,0 l/m 2,7 km/h (1 Bft) N-NW 340 0 min 0,000 mm 0,0 UV-I 40 W/m 13,4 C 17,9 C 4,8 km/h (1 Bft) 100,00 %
06.06.2016 17:59 17,9 C 76 % 1017,5 hPa 0,0 l/m 2,4 km/h (1 Bft) N-NO 17 0 min 0,000 mm 0,0 UV-I 39 W/m 13,6 C 17,9 C 6,4 km/h (2 Bft) 100,00 %
06.06.2016 18:00 17,9 C 76 % 1017,5 hPa 0,0 l/m 2,1 km/h (1 Bft) N 351 0 min 0,000 mm 0,0 UV-I 39 W/m 13,6 C 17,9 C 4,8 km/h (1 Bft) 100,00 %
06.06.2016 18:02 17,9 C 77 % 1017,6 hPa 0,0 l/m 2,9 km/h (1 Bft) N-NO 24 0 min 0,076 mm 0,0 UV-I 39 W/m 13,8 C 17,9 C 8,0 km/h (2 Bft) 100,00 %
06.06.2016 18:03 17,9 C 77 % 1017,7 hPa 0,0 l/m 4,6 km/h (1 Bft) NO 55 0 min 0,000 mm 0,0 UV-I 39 W/m 13,8 C 17,9 C 6,4 km/h (2 Bft) 96,15 %
06.06.2016 18:04 17,9 C 76 % 1017,7 hPa 0,0 l/m 8,0 km/h (2 Bft) NO 45 0 min 0,000 mm 0,0 UV-I 40 W/m 13,6 C 17,1 C 12,9 km/h (3 Bft) 100,00 %
06.06.2016 18:05 17,9 C 77 % 1017,7 hPa 0,0 l/m 6,2 km/h (2 Bft) NO 37 0 min 0,000 mm 0,0 UV-I 40 W/m 13,8 C 17,9 C 9,7 km/h (2 Bft) 100,00 %
06.06.2016 18:06 17,9 C 77 % 1017,6 hPa 0,0 l/m 5,7 km/h (1 Bft) NO 40 0 min 0,000 mm 0,0 UV-I 40 W/m 13,8 C 17,9 C 9,7 km/h (2 Bft) 100,00 %
06.06.2016 18:07 17,9 C 76 % 1017,6 hPa 0,0 l/m 3,8 km/h (1 Bft) N-NO 17 0 min 0,000 mm 0,0 UV-I 42 W/m 13,6 C 17,9 C 6,4 km/h (2 Bft) 100,00 %
06.06.2016 18:08 17,9 C 77 % 1017,6 hPa 0,0 l/m 5,2 km/h (1 Bft) NO 36 0 min 0,000 mm 0,0 UV-I 42 W/m 13,8 C 17,9 C 6,4 km/h (2 Bft) 100,00 %
06.06.2016 18:09 17,9 C 78 % 1017,6 hPa 0,0 l/m 6,7 km/h (2 Bft) NO 49 0 min 0,000 mm 0,0 UV-I 44 W/m 14,0 C 17,8 C 8,0 km/h (2 Bft) 100,00 %
06.06.2016 18:10 17,9 C 77 % 1017,6 hPa 0,0 l/m 6,3 km/h (2 Bft) NO 48 0 min 0,000 mm 0,0 UV-I 45 W/m 13,8 C 17,9 C 8,0 km/h (2 Bft) 100,00 %
06.06.2016 18:11 17,9 C 77 % 1017,5 hPa 0,0 l/m 6,0 km/h (2 Bft) O-NO 71 0 min 0,000 mm 0,0 UV-I 47 W/m 13,8 C 17,9 C 8,0 km/h (2 Bft) 100,00 %
06.06.2016 18:12 17,8 C 77 % 1017,5 hPa 0,0 l/m 4,5 km/h (1 Bft) O-NO 71 0 min 0,000 mm 0,0 UV-I 49 W/m 13,7 C 17,8 C 6,4 km/h (2 Bft) 100,00 %
06.06.2016 18:13 17,8 C 78 % 1017,5 hPa 0,0 l/m 5,1 km/h (1 Bft) O 83 0 min 0,000 mm 0,0 UV-I 52 W/m 13,9 C 17,8 C 6,4 km/h (2 Bft) 100,00 %
06.06.2016 18:14 17,8 C 79 % 1017,4 hPa 0,0 l/m 5,7 km/h (1 Bft) O 80 0 min 0,000 mm 0,0 UV-I 54 W/m 14,1 C 17,8 C 11,3 km/h (2 Bft) 100,00 %
06.06.2016 18:15 17,8 C 79 % 1017,4 hPa 0,0 l/m 9,0 km/h (2 Bft) O-NO 74 0 min 0,000 mm 0,0 UV-I 58 W/m 14,1 C 16,6 C 11,3 km/h (2 Bft) 96,30 %
06.06.2016 18:16 17,8 C 79 % 1017,4 hPa 0,0 l/m 8,0 km/h (2 Bft) O-SO 102 0 min 0,000 mm 0,0 UV-I 61 W/m 14,1 C 17,0 C 11,3 km/h (2 Bft) 100,00 %
06.06.2016 18:17 17,7 C 80 % 1017,4 hPa 0,0 l/m 7,5 km/h (2 Bft) O 92 0 min 0,000 mm 0,0 UV-I 64 W/m 14,2 C 17,2 C 11,3 km/h (2 Bft) 100,00 %
06.06.2016 18:18 17,7 C 79 % 1017,4 hPa 0,0 l/m 10,3 km/h (2 Bft) O-NO 76 0 min 0,000 mm 0,0 UV-I 69 W/m 14,0 C 16,0 C 12,9 km/h (3 Bft) 100,00 %
06.06.2016 18:19 17,7 C 79 % 1017,4 hPa 0,0 l/m 8,9 km/h (2 Bft) O-NO 59 0 min 0,000 mm 0,0 UV-I 73 W/m 14,0 C 16,5 C 12,9 km/h (3 Bft) 100,00 %
06.06.2016 18:20 17,6 C 80 % 1017,4 hPa 0,0 l/m 7,2 km/h (2 Bft) O-NO 69 0 min 0,000 mm 0,0 UV-I 76 W/m 14,1 C 17,2 C 9,7 km/h (2 Bft) 100,00 %
06.06.2016 18:21 17,6 C 78 % 1017,4 hPa 0,0 l/m 8,4 km/h (2 Bft) O-NO 65 0 min 0,000 mm 0,0 UV-I 81 W/m 13,7 C 16,7 C 12,9 km/h (3 Bft) 100,00 %
06.06.2016 18:22 17,6 C 79 % 1017,4 hPa 0,0 l/m 6,8 km/h (2 Bft) O-NO 61 0 min 0,000 mm 0,0 UV-I 86 W/m 13,9 C 17,4 C 11,3 km/h (2 Bft) 100,00 %
06.06.2016 18:23 17,6 C 79 % 1017,4 hPa 0,0 l/m 7,8 km/h (2 Bft) O 97 0 min 0,000 mm 0,0 UV-I 90 W/m 13,9 C 16,9 C 12,9 km/h (3 Bft) 100,00 %
06.06.2016 18:24 17,6 C 79 % 1017,4 hPa 0,0 l/m 8,6 km/h (2 Bft) O-NO 59 0 min 0,000 mm 0,0 UV-I 95 W/m 13,9 C 16,6 C 12,9 km/h (3 Bft) 100,00 %
06.06.2016 18:25 17,6 C 79 % 1017,3 hPa 0,0 l/m 7,2 km/h (2 Bft) O-NO 68 0 min 0,000 mm 0,0 UV-I 99 W/m 13,9 C 17,2 C 9,7 km/h (2 Bft) 100,00 %
06.06.2016 18:26 17,7 C 79 % 1017,3 hPa 0,0 l/m 6,8 km/h (2 Bft) O 82 0 min 0,000 mm 0,0 UV-I 103 W/m 14,0 C 17,5 C 11,3 km/h (2 Bft) 100,00 %
06.06.2016 18:27 17,7 C 79 % 1017,3 hPa 0,0 l/m 10,2 km/h (2 Bft) O 85 0 min 0,000 mm 0,0 UV-I 108 W/m 14,0 C 16,0 C 12,9 km/h (3 Bft) 100,00 %
06.06.2016 18:28 17,7 C 77 % 1017,4 hPa 0,0 l/m 9,9 km/h (2 Bft) O 92 0 min 0,000 mm 0,0 UV-I 112 W/m 13,6 C 16,1 C 14,5 km/h (3 Bft) 92,31 %
06.06.2016 18:29 17,7 C 77 % 1017,4 hPa 0,0 l/m 8,9 km/h (2 Bft) O-NO 78 0 min 0,000 mm 0,0 UV-I 114 W/m 13,6 C 16,5 C 14,5 km/h (3 Bft) 92,59 %
06.06.2016 18:30 17,7 C 78 % 1017,4 hPa 0,0 l/m 9,4 km/h (2 Bft) O 100 0 min 0,000 mm 0,0 UV-I 116 W/m 13,8 C 16,3 C 12,9 km/h (3 Bft) 100,00 %
06.06.2016 18:31 17,8 C 78 % 1017,4 hPa 0,0 l/m 7,0 km/h (2 Bft) O 84 0 min 0,000 mm 0,0 UV-I 118 W/m 13,9 C 17,5 C 11,3 km/h (2 Bft) 96,15 %
06.06.2016 18:32 17,8 C 78 % 1017,5 hPa 0,0 l/m 10,9 km/h (2 Bft) O 101 0 min 0,000 mm 0,0 UV-I 120 W/m 13,9 C 15,9 C 14,5 km/h (3 Bft) 91,67 %
06.06.2016 18:33 17,8 C 78 % 1017,5 hPa 0,0 l/m 11,7 km/h (2 Bft) O-SO 122 0 min 0,000 mm 0,0 UV-I 122 W/m 13,9 C 15,6 C 14,5 km/h (3 Bft) 96,55 %
06.06.2016 18:34 17,8 C 77 % 1017,5 hPa 0,0 l/m 9,1 km/h (2 Bft) O 90 0 min 0,000 mm 0,0 UV-I 123 W/m 13,7 C 16,6 C 14,5 km/h (3 Bft) 95,83 %
06.06.2016 18:35 17,8 C 78 % 1017,6 hPa 0,0 l/m 8,0 km/h (2 Bft) O-NO 60 0 min 0,000 mm 0,0 UV-I 123 W/m 13,9 C 17,0 C 14,5 km/h (3 Bft) 91,30 %
06.06.2016 18:36 17,8 C 77 % 1017,6 hPa 0,0 l/m 11,8 km/h (2 Bft) O-NO 59 0 min 0,000 mm 0,0 UV-I 125 W/m 13,7 C 15,6 C 16,1 km/h (3 Bft) 100,00 %
06.06.2016 18:37 17,8 C 77 % 1017,5 hPa 0,0 l/m 9,4 km/h (2 Bft) O 87 0 min 0,000 mm 0,0 UV-I 125 W/m 13,7 C 16,4 C 12,9 km/h (3 Bft) 96,55 %
06.06.2016 18:38 17,8 C 77 % 1017,5 hPa 0,0 l/m 6,8 km/h (2 Bft) O 95 0 min 0,000 mm 0,0 UV-I 126 W/m 13,7 C 17,6 C 9,7 km/h (2 Bft) 100,00 %
06.06.2016 18:39 17,8 C 77 % 1017,6 hPa 0,0 l/m 10,3 km/h (2 Bft) O 84 0 min 0,000 mm 0,0 UV-I 127 W/m 13,7 C 16,1 C 12,9 km/h (3 Bft) 96,55 %
06.06.2016 18:40 17,8 C 76 % 1017,5 hPa 0,0 l/m 7,9 km/h (2 Bft) O-NO 69 0 min 0,000 mm 0,0 UV-I 127 W/m 13,5 C 17,1 C 11,3 km/h (2 Bft) 96,30 %
06.06.2016 18:41 17,9 C 76 % 1017,6 hPa 0,0 l/m 5,9 km/h (2 Bft) NO 44 0 min 0,000 mm 0,0 UV-I 127 W/m 13,6 C 17,9 C 8,0 km/h (2 Bft) 91,67 %
06.06.2016 18:42 17,9 C 77 % 1017,6 hPa 0,0 l/m 5,0 km/h (1 Bft) O-SO 103 0 min 0,000 mm 0,0 UV-I 127 W/m 13,8 C 17,9 C 8,0 km/h (2 Bft) 92,31 %
06.06.2016 18:43 17,9 C 77 % 1017,6 hPa 0,0 l/m 7,9 km/h (2 Bft) O-NO 67 0 min 0,000 mm 0,0 UV-I 127 W/m 13,8 C 17,2 C 11,3 km/h (2 Bft) 100,00 %
06.06.2016 18:44 17,9 C 76 % 1017,6 hPa 0,0 l/m 4,6 km/h (1 Bft) O 90 0 min 0,000 mm 0,0 UV-I 126 W/m 13,6 C 17,9 C 9,7 km/h (2 Bft) 95,12 %
06.06.2016 18:45 17,9 C 76 % 1017,6 hPa 0,0 l/m 2,1 km/h (1 Bft) O 90 0 min 0,000 mm 0,0 UV-I 125 W/m 13,6 C 17,9 C 6,4 km/h (2 Bft) 100,00 %
06.06.2016 18:46 17,9 C 77 % 1017,6 hPa 0,0 l/m 3,8 km/h (1 Bft) O 84 0 min 0,000 mm 0,0 UV-I 125 W/m 13,8 C 17,9 C 6,4 km/h (2 Bft) 95,65 %
06.06.2016 18:47 18,0 C 77 % 1017,6 hPa 0,0 l/m 5,2 km/h (1 Bft) SO 131 0 min 0,000 mm 0,0 UV-I 125 W/m 13,9 C 18,0 C 6,4 km/h (2 Bft) 100,00 %
06.06.2016 18:48 18,0 C 76 % 1017,6 hPa 0,0 l/m 7,2 km/h (2 Bft) O-SO 118 0 min 0,000 mm 0,0 UV-I 123 W/m 13,7 C 17,6 C 9,7 km/h (2 Bft) 95,65 %
06.06.2016 18:49 18,0 C 76 % 1017,6 hPa 0,0 l/m 5,0 km/h (1 Bft) O-SO 115 0 min 0,000 mm 0,0 UV-I 121 W/m 13,7 C 18,0 C 9,7 km/h (2 Bft) 96,88 %
06.06.2016 18:50 18,1 C 76 % 1017,6 hPa 0,0 l/m 6,8 km/h (2 Bft) O 87 0 min 0,000 mm 0,0 UV-I 121 W/m 13,8 C 17,9 C 11,3 km/h (2 Bft) 100,00 %
06.06.2016 18:51 18,1 C 76 % 1017,6 hPa 0,0 l/m 4,7 km/h (1 Bft) S-SO 156 0 min 0,000 mm 0,0 UV-I 119 W/m 13,8 C 18,1 C 8,0 km/h (2 Bft) 96,30 %
06.06.2016 18:52 18,1 C 77 % 1017,6 hPa 0,0 l/m 5,2 km/h (1 Bft) O-SO 111 0 min 0,000 mm 0,0 UV-I 118 W/m 14,0 C 18,1 C 6,4 km/h (2 Bft) 100,00 %
06.06.2016 18:53 18,1 C 77 % 1017,5 hPa 0,0 l/m 5,7 km/h (1 Bft) O-SO 123 0 min 0,000 mm 0,0 UV-I 116 W/m 14,0 C 18,1 C 6,4 km/h (2 Bft) 96,30 %
06.06.2016 18:54 18,2 C 76 % 1017,5 hPa 0,0 l/m 7,4 km/h (2 Bft) O-SO 108 0 min 0,000 mm 0,0 UV-I 116 W/m 13,9 C 17,7 C 11,3 km/h (2 Bft) 100,00 %
06.06.2016 18:55 18,2 C 77 % 1017,5 hPa 0,0 l/m 7,4 km/h (2 Bft) O-SO 103 0 min 0,000 mm 0,0 UV-I 114 W/m 14,1 C 17,7 C 9,7 km/h (2 Bft) 96,30 %
06.06.2016 18:56 18,2 C 77 % 1017,5 hPa 0,0 l/m 6,2 km/h (2 Bft) SO 128 0 min 0,000 mm 0,0 UV-I 114 W/m 14,1 C 18,2 C 9,7 km/h (2 Bft) 95,65 %
06.06.2016 18:57 18,2 C 77 % 1017,5 hPa 0,0 l/m 7,0 km/h (2 Bft) O-SO 112 0 min 0,000 mm 0,0 UV-I 113 W/m 14,1 C 17,9 C 9,7 km/h (2 Bft) 100,00 %
06.06.2016 18:58 18,2 C 77 % 1017,5 hPa 0,0 l/m 7,1 km/h (2 Bft) O-SO 106 0 min 0,000 mm 0,0 UV-I 111 W/m 14,1 C 17,9 C 9,7 km/h (2 Bft) 94,12 %
06.06.2016 18:59 18,2 C 77 % 1017,5 hPa 0,0 l/m 8,0 km/h (2 Bft) SO 125 0 min 0,000 mm 0,0 UV-I 109 W/m 14,1 C 17,5 C 11,3 km/h (2 Bft) 100,00 %
06.06.2016 19:00 18,2 C 76 % 1017,5 hPa 0,0 l/m 9,0 km/h (2 Bft) SO 125 0 min 0,000 mm 0,0 UV-I 107 W/m 13,9 C 17,0 C 12,9 km/h (3 Bft) 98,61 %
06.06.2016 19:02 18,2 C 76 % 1017,5 hPa 0,0 l/m 9,4 km/h (2 Bft) SO 144 0 min 0,076 mm 0,0 UV-I 104 W/m 13,9 C 16,9 C 16,1 km/h (3 Bft) 98,57 %
06.06.2016 19:03 18,2 C 75 % 1017,5 hPa 0,0 l/m 11,3 km/h (2 Bft) S-SO 157 0 min 0,000 mm 0,0 UV-I 101 W/m 13,7 C 16,2 C 16,1 km/h (3 Bft) 100,00 %
06.06.2016 19:04 18,2 C 75 % 1017,5 hPa 0,0 l/m 5,7 km/h (1 Bft) SO 133 0 min 0,000 mm 0,0 UV-I 99 W/m 13,7 C 18,2 C 8,0 km/h (2 Bft) 100,00 %
06.06.2016 19:05 18,3 C 75 % 1017,5 hPa 0,0 l/m 6,0 km/h (2 Bft) S-SO 163 0 min 0,000 mm 0,0 UV-I 97 W/m 13,8 C 18,3 C 11,3 km/h (2 Bft) 96,55 %
06.06.2016 19:06 18,3 C 74 % 1017,6 hPa 0,0 l/m 6,9 km/h (2 Bft) SO 146 0 min 0,000 mm 0,0 UV-I 95 W/m 13,6 C 18,1 C 11,3 km/h (2 Bft) 100,00 %
06.06.2016 19:07 18,3 C 75 % 1017,6 hPa 0,0 l/m 5,7 km/h (1 Bft) SO 133 0 min 0,000 mm 0,0 UV-I 92 W/m 13,8 C 18,3 C 9,7 km/h (2 Bft) 100,00 %
06.06.2016 19:08 18,3 C 75 % 1017,7 hPa 0,0 l/m 4,2 km/h (1 Bft) S-SO 167 0 min 0,000 mm 0,0 UV-I 90 W/m 13,8 C 18,3 C 6,4 km/h (2 Bft) 100,00 %
06.06.2016 19:09 18,3 C 75 % 1017,6 hPa 0,0 l/m 4,5 km/h (1 Bft) SO 141 0 min 0,000 mm 0,0 UV-I 89 W/m 13,8 C 18,3 C 6,4 km/h (2 Bft) 100,00 %
06.06.2016 19:10 18,3 C 75 % 1017,7 hPa 0,0 l/m 3,1 km/h (1 Bft) SO 138 0 min 0,000 mm 0,0 UV-I 85 W/m 13,8 C 18,3 C 6,4 km/h (2 Bft) 100,00 %
06.06.2016 19:11 18,3 C 74 % 1017,7 hPa 0,0 l/m 6,3 km/h (2 Bft) SO 144 0 min 0,000 mm 0,0 UV-I 83 W/m 13,6 C 18,3 C 9,7 km/h (2 Bft) 100,00 %
06.06.2016 19:12 18,3 C 74 % 1017,7 hPa 0,0 l/m 5,9 km/h (2 Bft) O-SO 121 0 min 0,000 mm 0,0 UV-I 81 W/m 13,6 C 18,3 C 9,7 km/h (2 Bft) 100,00 %
06.06.2016 19:13 18,3 C 75 % 1017,7 hPa 0,0 l/m 6,9 km/h (2 Bft) SO 141 0 min 0,000 mm 0,0 UV-I 79 W/m 13,8 C 18,1 C 9,7 km/h (2 Bft) 92,86 %
06.06.2016 19:14 18,3 C 74 % 1017,6 hPa 0,0 l/m 7,3 km/h (2 Bft) O-SO 119 0 min 0,000 mm 0,0 UV-I 76 W/m 13,6 C 17,9 C 11,3 km/h (2 Bft) 100,00 %
06.06.2016 19:15 18,3 C 74 % 1017,6 hPa 0,0 l/m 5,2 km/h (1 Bft) S-SO 151 0 min 0,000 mm 0,0 UV-I 76 W/m 13,6 C 18,3 C 8,0 km/h (2 Bft) 100,00 %
06.06.2016 19:16 18,3 C 74 % 1017,6 hPa 0,0 l/m 2,8 km/h (1 Bft) S-SO 159 0 min 0,000 mm 0,0 UV-I 74 W/m 13,6 C 18,3 C 4,8 km/h (1 Bft) 100,00 %
06.06.2016 19:17 18,4 C 73 % 1017,6 hPa 0,0 l/m 3,5 km/h (1 Bft) SO 138 0 min 0,000 mm 0,0 UV-I 72 W/m 13,5 C 18,4 C 6,4 km/h (2 Bft) 100,00 %
06.06.2016 19:18 18,4 C 73 % 1017,6 hPa 0,0 l/m 5,5 km/h (1 Bft) S-SO 153 0 min 0,000 mm 0,0 UV-I 71 W/m 13,5 C 18,4 C 8,0 km/h (2 Bft) 100,00 %
06.06.2016 19:19 18,4 C 73 % 1017,6 hPa 0,0 l/m 4,8 km/h (1 Bft) SO 146 0 min 0,000 mm 0,0 UV-I 70 W/m 13,5 C 18,4 C 6,4 km/h (2 Bft) 100,00 %
06.06.2016 19:20 18,4 C 73 % 1017,6 hPa 0,0 l/m 5,1 km/h (1 Bft) SO 129 0 min 0,000 mm 0,0 UV-I 70 W/m 13,5 C 18,4 C 6,4 km/h (2 Bft) 100,00 %
06.06.2016 19:21 18,4 C 73 % 1017,7 hPa 0,0 l/m 6,3 km/h (2 Bft) SO 126 0 min 0,000 mm 0,0 UV-I 68 W/m 13,5 C 18,4 C 11,3 km/h (2 Bft) 100,00 %
06.06.2016 19:22 18,4 C 73 % 1017,7 hPa 0,0 l/m 5,6 km/h (1 Bft) SO 146 0 min 0,000 mm 0,0 UV-I 67 W/m 13,5 C 18,4 C 9,7 km/h (2 Bft) 100,00 %
06.06.2016 19:23 18,4 C 73 % 1017,7 hPa 0,0 l/m 2,7 km/h (1 Bft) S-SO 151 0 min 0,000 mm 0,0 UV-I 65 W/m 13,5 C 18,4 C 4,8 km/h (1 Bft) 100,00 %
06.06.2016 19:24 18,4 C 73 % 1017,7 hPa 0,0 l/m 4,9 km/h (1 Bft) S-SO 161 0 min 0,000 mm 0,0 UV-I 63 W/m 13,5 C 18,4 C 6,4 km/h (2 Bft) 98,63 %
06.06.2016 19:25 18,4 C 72 % 1017,7 hPa 0,0 l/m 2,7 km/h (1 Bft) S-SO 157 0 min 0,000 mm 0,0 UV-I 62 W/m 13,3 C 18,4 C 6,4 km/h (2 Bft) 97,56 %
06.06.2016 19:26 18,4 C 72 % 1017,8 hPa 0,0 l/m 4,4 km/h (1 Bft) SO 135 0 min 0,000 mm 0,0 UV-I 61 W/m 13,3 C 18,4 C 6,4 km/h (2 Bft) 100,00 %
06.06.2016 19:27 18,4 C 73 % 1017,8 hPa 0,0 l/m 3,3 km/h (1 Bft) SO 135 0 min 0,000 mm 0,0 UV-I 60 W/m 13,5 C 18,4 C 4,8 km/h (1 Bft) 95,65 %
06.06.2016 19:28 18,4 C 74 % 1017,8 hPa 0,0 l/m 2,4 km/h (1 Bft) SO 135 0 min 0,000 mm 0,0 UV-I 60 W/m 13,7 C 18,4 C 3,2 km/h (1 Bft) 100,00 %
06.06.2016 19:29 18,4 C 72 % 1017,8 hPa 0,0 l/m 1,8 km/h (1 Bft) SO 135 0 min 0,000 mm 0,0 UV-I 58 W/m 13,3 C 18,4 C 3,2 km/h (1 Bft) 100,00 %
06.06.2016 19:30 18,3 C 71 % 1017,8 hPa 0,0 l/m 2,9 km/h (1 Bft) SO 133 0 min 0,000 mm 0,0 UV-I 58 W/m 12,9 C 18,3 C 4,8 km/h (1 Bft) 100,00 %
06.06.2016 19:31 18,3 C 71 % 1017,9 hPa 0,0 l/m 1,3 km/h (1 Bft) SO 133 0 min 0,000 mm 0,0 UV-I 58 W/m 12,9 C 18,3 C 3,2 km/h (1 Bft) 100,00 %
06.06.2016 19:32 18,4 C 70 % 1017,8 hPa 0,0 l/m 2,8 km/h (1 Bft) O-SO 113 0 min 0,000 mm 0,0 UV-I 57 W/m 12,8 C 18,4 C 4,8 km/h (1 Bft) 100,00 %
06.06.2016 19:33 18,4 C 70 % 1017,8 hPa 0,0 l/m 3,4 km/h (1 Bft) O-SO 113 0 min 0,000 mm 0,0 UV-I 56 W/m 12,8 C 18,4 C 4,8 km/h (1 Bft) 100,00 %
06.06.2016 19:34 18,4 C 71 % 1017,9 hPa 0,0 l/m 2,7 km/h (1 Bft) O-SO 113 0 min 0,000 mm 0,0 UV-I 56 W/m 13,0 C 18,4 C 4,8 km/h (1 Bft) 100,00 %
06.06.2016 19:35 18,4 C 70 % 1017,9 hPa 0,0 l/m 3,2 km/h (1 Bft) O-SO 123 0 min 0,000 mm 0,0 UV-I 54 W/m 12,8 C 18,4 C 6,4 km/h (2 Bft) 100,00 %
06.06.2016 19:36 18,4 C 70 % 1017,9 hPa 0,0 l/m 5,2 km/h (1 Bft) O-SO 112 0 min 0,000 mm 0,0 UV-I 54 W/m 12,8 C 18,4 C 6,4 km/h (2 Bft) 96,15 %
06.06.2016 19:37 18,4 C 71 % 1017,9 hPa 0,0 l/m 5,6 km/h (1 Bft) O-SO 111 0 min 0,000 mm 0,0 UV-I 54 W/m 13,0 C 18,4 C 6,4 km/h (2 Bft) 100,00 %
06.06.2016 19:38 18,3 C 72 % 1017,9 hPa 0,0 l/m 4,0 km/h (1 Bft) O-SO 111 0 min 0,000 mm 0,0 UV-I 54 W/m 13,2 C 18,3 C 4,8 km/h (1 Bft) 100,00 %
06.06.2016 19:39 18,3 C 71 % 1017,8 hPa 0,0 l/m 4,2 km/h (1 Bft) O-SO 111 0 min 0,000 mm 0,0 UV-I 54 W/m 12,9 C 18,3 C 4,8 km/h (1 Bft) 100,00 %
06.06.2016 19:40 18,3 C 72 % 1017,9 hPa 0,0 l/m 4,5 km/h (1 Bft) O-SO 111 0 min 0,000 mm 0,0 UV-I 54 W/m 13,2 C 18,3 C 4,8 km/h (1 Bft) 100,00 %
06.06.2016 19:41 18,3 C 70 % 1017,9 hPa 0,0 l/m 4,5 km/h (1 Bft) O-SO 111 0 min 0,000 mm 0,0 UV-I 59 W/m 12,7 C 18,3 C 4,8 km/h (1 Bft) 100,00 %
06.06.2016 19:42 18,3 C 69 % 1017,8 hPa 0,0 l/m 4,4 km/h (1 Bft) O 101 0 min 0,000 mm 0,0 UV-I 73 W/m 12,5 C 18,3 C 6,4 km/h (2 Bft) 100,00 %
06.06.2016 19:43 18,4 C 70 % 1017,8 hPa 0,0 l/m 4,5 km/h (1 Bft) O-SO 107 0 min 0,000 mm 0,0 UV-I 80 W/m 12,8 C 18,4 C 4,8 km/h (1 Bft) 100,00 %
06.06.2016 19:44 18,4 C 69 % 1017,8 hPa 0,0 l/m 4,7 km/h (1 Bft) O-SO 102 0 min 0,000 mm 0,0 UV-I 75 W/m 12,6 C 18,4 C 6,4 km/h (2 Bft) 100,00 %
06.06.2016 19:45 18,4 C 70 % 1017,8 hPa 0,0 l/m 3,3 km/h (1 Bft) O-SO 102 0 min 0,000 mm 0,0 UV-I 70 W/m 12,8 C 18,4 C 4,8 km/h (1 Bft) 100,00 %
06.06.2016 19:46 18,4 C 69 % 1017,8 hPa 0,0 l/m 3,1 km/h (1 Bft) O-SO 102 0 min 0,000 mm 0,0 UV-I 60 W/m 12,6 C 18,4 C 4,8 km/h (1 Bft) 100,00 %
06.06.2016 19:47 18,4 C 69 % 1017,8 hPa 0,0 l/m 3,8 km/h (1 Bft) O-SO 107 0 min 0,000 mm 0,0 UV-I 54 W/m 12,6 C 18,4 C 4,8 km/h (1 Bft) 100,00 %
06.06.2016 19:48 18,4 C 69 % 1017,8 hPa 0,0 l/m 3,9 km/h (1 Bft) O-SO 107 0 min 0,000 mm 0,0 UV-I 51 W/m 12,6 C 18,4 C 4,8 km/h (1 Bft) 96,15 %
06.06.2016 19:49 18,4 C 69 % 1017,8 hPa 0,0 l/m 3,8 km/h (1 Bft) O-SO 107 0 min 0,000 mm 0,0 UV-I 50 W/m 12,6 C 18,4 C 4,8 km/h (1 Bft) 100,00 %
06.06.2016 19:50 18,4 C 68 % 1017,8 hPa 0,0 l/m 4,8 km/h (1 Bft) O 85 0 min 0,000 mm 0,0 UV-I 48 W/m 12,4 C 18,4 C 6,4 km/h (2 Bft) 100,00 %
06.06.2016 19:51 18,4 C 67 % 1017,9 hPa 0,0 l/m 6,8 km/h (2 Bft) O-NO 77 0 min 0,000 mm 0,0 UV-I 47 W/m 12,2 C 18,2 C 9,7 km/h (2 Bft) 100,00 %
06.06.2016 19:52 18,4 C 67 % 1017,9 hPa 0,0 l/m 6,0 km/h (2 Bft) O 86 0 min 0,000 mm 0,0 UV-I 46 W/m 12,2 C 18,4 C 9,7 km/h (2 Bft) 100,00 %
06.06.2016 19:53 18,4 C 68 % 1017,8 hPa 0,0 l/m 6,8 km/h (2 Bft) O-SO 102 0 min 0,000 mm 0,0 UV-I 44 W/m 12,4 C 18,2 C 11,3 km/h (2 Bft) 100,00 %
06.06.2016 19:54 18,4 C 67 % 1017,8 hPa 0,0 l/m 6,0 km/h (2 Bft) O 94 0 min 0,000 mm 0,0 UV-I 42 W/m 12,2 C 18,4 C 9,7 km/h (2 Bft) 100,00 %
06.06.2016 19:55 18,4 C 67 % 1017,8 hPa 0,0 l/m 6,6 km/h (2 Bft) O 94 0 min 0,000 mm 0,0 UV-I 41 W/m 12,2 C 18,3 C 9,7 km/h (2 Bft) 100,00 %
06.06.2016 19:56 18,4 C 67 % 1017,8 hPa 0,0 l/m 6,2 km/h (2 Bft) O-SO 104 0 min 0,000 mm 0,0 UV-I 39 W/m 12,2 C 18,4 C 9,7 km/h (2 Bft) 100,00 %
06.06.2016 19:57 18,4 C 68 % 1017,8 hPa 0,0 l/m 5,1 km/h (1 Bft) O-SO 121 0 min 0,000 mm 0,0 UV-I 39 W/m 12,4 C 18,4 C 6,4 km/h (2 Bft) 95,65 %
06.06.2016 19:58 18,3 C 68 % 1017,7 hPa 0,0 l/m 5,2 km/h (1 Bft) O-SO 107 0 min 0,000 mm 0,0 UV-I 37 W/m 12,3 C 18,3 C 6,4 km/h (2 Bft) 100,00 %
06.06.2016 19:59 18,3 C 68 % 1017,7 hPa 0,0 l/m 3,9 km/h (1 Bft) O-SO 109 0 min 0,000 mm 0,0 UV-I 37 W/m 12,3 C 18,3 C 4,8 km/h (1 Bft) 95,65 %
06.06.2016 20:00 18,3 C 69 % 1017,8 hPa 0,0 l/m 3,4 km/h (1 Bft) O-SO 109 0 min 0,000 mm 0,0 UV-I 35 W/m 12,5 C 18,3 C 4,8 km/h (1 Bft) 100,00 %
06.06.2016 20:01 18,2 C 72 % 1017,7 hPa 0,0 l/m 4,2 km/h (1 Bft) O-SO 103 0 min 0,051 mm 0,0 UV-I 35 W/m 13,1 C 18,2 C 6,4 km/h (2 Bft) 100,00 %
06.06.2016 20:02 18,2 C 68 % 1017,7 hPa 0,0 l/m 4,6 km/h (1 Bft) O 98 0 min 0,000 mm 0,0 UV-I 34 W/m 12,2 C 18,2 C 6,4 km/h (2 Bft) 100,00 %
06.06.2016 20:03 18,2 C 69 % 1017,7 hPa 0,0 l/m 4,6 km/h (1 Bft) O 98 0 min 0,000 mm 0,0 UV-I 33 W/m 12,4 C 18,2 C 4,8 km/h (1 Bft) 100,00 %
06.06.2016 20:04 18,2 C 70 % 1017,7 hPa 0,0 l/m 4,0 km/h (1 Bft) O 98 0 min 0,000 mm 0,0 UV-I 32 W/m 12,6 C 18,2 C 4,8 km/h (1 Bft) 100,00 %
06.06.2016 20:05 18,1 C 71 % 1017,8 hPa 0,0 l/m 4,0 km/h (1 Bft) O 98 0 min 0,000 mm 0,0 UV-I 32 W/m 12,8 C 18,1 C 4,8 km/h (1 Bft) 100,00 %
06.06.2016 20:06 18,1 C 71 % 1017,8 hPa 0,0 l/m 4,6 km/h (1 Bft) O 85 0 min 0,000 mm 0,0 UV-I 31 W/m 12,8 C 18,1 C 6,4 km/h (2 Bft) 100,00 %
06.06.2016 20:07 18,0 C 69 % 1017,8 hPa 0,0 l/m 4,7 km/h (1 Bft) O 84 0 min 0,000 mm 0,0 UV-I 30 W/m 12,2 C 18,0 C 6,4 km/h (2 Bft) 100,00 %
06.06.2016 20:08 18,0 C 66 % 1017,8 hPa 0,0 l/m 6,5 km/h (2 Bft) O 93 0 min 0,000 mm 0,0 UV-I 30 W/m 11,6 C 18,0 C 9,7 km/h (2 Bft) 100,00 %
06.06.2016 20:09 18,1 C 66 % 1017,8 hPa 0,0 l/m 6,0 km/h (2 Bft) O 97 0 min 0,000 mm 0,0 UV-I 28 W/m 11,6 C 18,1 C 9,7 km/h (2 Bft) 100,00 %
06.06.2016 20:10 18,1 C 67 % 1017,8 hPa 0,0 l/m 5,4 km/h (1 Bft) O-SO 117 0 min 0,000 mm 0,0 UV-I 28 W/m 11,9 C 18,1 C 6,4 km/h (2 Bft) 100,00 %
06.06.2016 20:11 18,1 C 66 % 1017,9 hPa 0,0 l/m 4,8 km/h (1 Bft) O-SO 117 0 min 0,000 mm 0,0 UV-I 28 W/m 11,6 C 18,1 C 6,4 km/h (2 Bft) 100,00 %
06.06.2016 20:12 18,1 C 65 % 1017,8 hPa 0,0 l/m 3,3 km/h (1 Bft) O-SO 117 0 min 0,000 mm 0,0 UV-I 27 W/m 11,4 C 18,1 C 6,4 km/h (2 Bft) 100,00 %
06.06.2016 20:13 18,2 C 68 % 1017,8 hPa 0,0 l/m 2,5 km/h (1 Bft) O-SO 117 0 min 0,000 mm 0,0 UV-I 26 W/m 12,2 C 18,2 C 3,2 km/h (1 Bft) 100,00 %
06.06.2016 20:14 18,1 C 68 % 1017,8 hPa 0,0 l/m 2,3 km/h (1 Bft) O-SO 117 0 min 0,000 mm 0,0 UV-I 26 W/m 12,1 C 18,1 C 4,8 km/h (1 Bft) 100,00 %
06.06.2016 20:15 18,1 C 68 % 1017,8 hPa 0,0 l/m 1,3 km/h (1 Bft) O-SO 117 0 min 0,000 mm 0,0 UV-I 25 W/m 12,1 C 18,1 C 3,2 km/h (1 Bft) 100,00 %
06.06.2016 20:16 18,0 C 68 % 1017,8 hPa 0,0 l/m 1,4 km/h (1 Bft) O-SO 117 0 min 0,000 mm 0,0 UV-I 25 W/m 12,0 C 18,0 C 3,2 km/h (1 Bft) 100,00 %
06.06.2016 20:17 18,1 C 70 % 1017,8 hPa 0,0 l/m 1,2 km/h (1 Bft) O-SO 117 0 min 0,000 mm 0,0 UV-I 25 W/m 12,5 C 18,1 C 3,2 km/h (1 Bft) 96,30 %
06.06.2016 20:18 18,1 C 69 % 1017,8 hPa 0,0 l/m 2,0 km/h (1 Bft) O-SO 117 0 min 0,000 mm 0,0 UV-I 24 W/m 12,3 C 18,1 C 3,2 km/h (1 Bft) 100,00 %
06.06.2016 20:19 18,0 C 69 % 1017,8 hPa 0,0 l/m 2,4 km/h (1 Bft) SO 132 0 min 0,000 mm 0,0 UV-I 23 W/m 12,2 C 18,0 C 3,2 km/h (1 Bft) 100,00 %
06.06.2016 20:20 18,0 C 70 % 1017,8 hPa 0,0 l/m 3,0 km/h (1 Bft) S-SO 149 0 min 0,000 mm 0,0 UV-I 23 W/m 12,4 C 18,0 C 4,8 km/h (1 Bft) 100,00 %
06.06.2016 20:21 17,9 C 72 % 1017,8 hPa 0,0 l/m 1,4 km/h (1 Bft) S-SO 149 0 min 0,000 mm 0,0 UV-I 21 W/m 12,8 C 17,9 C 3,2 km/h (1 Bft) 97,56 %
06.06.2016 20:22 17,9 C 73 % 1017,8 hPa 0,0 l/m 0,2 km/h (0 Bft) S-SO 149 0 min 0,000 mm 0,0 UV-I 21 W/m 13,0 C 17,9 C 1,6 km/h (1 Bft) 100,00 %
06.06.2016 20:23 17,8 C 74 % 1017,8 hPa 0,0 l/m 0,0 km/h (0 Bft) S-SO 149 0 min 0,000 mm 0,0 UV-I 21 W/m 13,1 C 17,8 C 0,0 km/h (0 Bft) 96,15 %
06.06.2016 20:24 17,7 C 74 % 1017,8 hPa 0,0 l/m 0,0 km/h (0 Bft) S-SO 149 0 min 0,000 mm 0,0 UV-I 20 W/m 13,0 C 17,7 C 0,0 km/h (0 Bft) 100,00 %
06.06.2016 20:25 17,6 C 76 % 1017,9 hPa 0,0 l/m 0,0 km/h (0 Bft) S-SO 149 0 min 0,000 mm 0,0 UV-I 19 W/m 13,3 C 17,6 C 0,0 km/h (0 Bft) 100,00 %
06.06.2016 20:26 17,5 C 74 % 1017,9 hPa 0,0 l/m 0,0 km/h (0 Bft) S-SO 149 0 min 0,000 mm 0,0 UV-I 19 W/m 12,8 C 17,5 C 0,0 km/h (0 Bft) 95,83 %
06.06.2016 20:30 17,3 C 73 % 1017,9 hPa 0,0 l/m 0,0 km/h (0 Bft) N 0 0 min 0,000 mm 0,0 UV-I 18 W/m 12,4 C 17,3 C 0,0 km/h (0 Bft) 100,00 %
06.06.2016 20:33 17,2 C 74 % 1017,9 hPa 0,0 l/m 1,8 km/h (1 Bft) SO 138 0 min 0,000 mm 0,0 UV-I 18 W/m 12,5 C 17,2 C 3,2 km/h (1 Bft) 97,47 %
06.06.2016 20:34 17,1 C 74 % 1017,9 hPa 0,0 l/m 0,5 km/h (0 Bft) SO 138 0 min 0,000 mm 0,0 UV-I 16 W/m 12,4 C 17,1 C 1,6 km/h (1 Bft) 96,77 %
06.06.2016 20:35 17,1 C 75 % 1017,9 hPa 0,0 l/m 1,6 km/h (1 Bft) S-SO 157 0 min 0,000 mm 0,0 UV-I 16 W/m 12,6 C 17,1 C 4,8 km/h (1 Bft) 100,00 %
06.06.2016 20:38 17,1 C 75 % 1017,9 hPa 0,0 l/m 0,2 km/h (0 Bft) SO 138 0 min 0,000 mm 0,0 UV-I 14 W/m 12,6 C 17,1 C 1,6 km/h (1 Bft) 97,80 %
06.06.2016 20:39 17,1 C 75 % 1018,0 hPa 0,0 l/m 0,0 km/h (0 Bft) SO 138 0 min 0,000 mm 0,0 UV-I 12 W/m 12,6 C 17,1 C 0,0 km/h (0 Bft) 91,30 %
06.06.2016 20:40 16,9 C 76 % 1017,9 hPa 0,0 l/m 0,0 km/h (0 Bft) SO 138 0 min 0,000 mm 0,0 UV-I 12 W/m 12,6 C 16,9 C 0,0 km/h (0 Bft) 100,00 %
06.06.2016 20:41 16,9 C 77 % 1018,0 hPa 0,0 l/m 0,0 km/h (0 Bft) SO 138 0 min 0,000 mm 0,0 UV-I 12 W/m 12,8 C 16,9 C 0,0 km/h (0 Bft) 96,55 %
06.06.2016 20:42 16,8 C 77 % 1017,9 hPa 0,0 l/m 0,0 km/h (0 Bft) SO 138 0 min 0,000 mm 0,0 UV-I 12 W/m 12,7 C 16,8 C 0,0 km/h (0 Bft) 95,83 %
06.06.2016 20:43 16,8 C 77 % 1018,0 hPa 0,0 l/m 0,0 km/h (0 Bft) SO 138 0 min 0,000 mm 0,0 UV-I 11 W/m 12,7 C 16,8 C 0,0 km/h (0 Bft) 100,00 %
06.06.2016 20:44 16,7 C 76 % 1018,0 hPa 0,0 l/m 2,1 km/h (1 Bft) SO 138 0 min 0,000 mm 0,0 UV-I 11 W/m 12,4 C 16,7 C 4,8 km/h (1 Bft) 91,67 %
06.06.2016 20:45 16,6 C 76 % 1018,0 hPa 0,0 l/m 3,2 km/h (1 Bft) O 81 0 min 0,000 mm 0,0 UV-I 11 W/m 12,3 C 16,6 C 3,2 km/h (1 Bft) 100,00 %
06.06.2016 20:47 16,6 C 76 % 1018,0 hPa 0,0 l/m 3,1 km/h (1 Bft) O 81 2 min 0,000 mm 0,0 UV-I 10 W/m 12,3 C 16,6 C 4,8 km/h (1 Bft) 97,50 %
06.06.2016 20:48 16,6 C 76 % 1018,0 hPa 0,0 l/m 2,9 km/h (1 Bft) O 81 0 min 0,000 mm 0,0 UV-I 9 W/m 12,3 C 16,6 C 3,2 km/h (1 Bft) 96,15 %
06.06.2016 20:49 16,6 C 77 % 1017,9 hPa 0,0 l/m 3,3 km/h (1 Bft) O 81 0 min 0,000 mm 0,0 UV-I 8 W/m 12,5 C 16,6 C 4,8 km/h (1 Bft) 96,30 %
06.06.2016 20:50 16,6 C 78 % 1017,9 hPa 0,0 l/m 4,0 km/h (1 Bft) O 80 0 min 0,000 mm 0,0 UV-I 7 W/m 12,7 C 16,6 C 4,8 km/h (1 Bft) 100,00 %
06.06.2016 20:51 16,6 C 78 % 1018,0 hPa 0,0 l/m 5,4 km/h (1 Bft) NO 50 0 min 0,000 mm 0,0 UV-I 7 W/m 12,7 C 16,6 C 6,4 km/h (2 Bft) 93,33 %
06.06.2016 20:52 16,5 C 79 % 1017,9 hPa 0,0 l/m 5,8 km/h (2 Bft) N-NO 27 0 min 0,000 mm 0,0 UV-I 6 W/m 12,8 C 16,5 C 6,4 km/h (2 Bft) 100,00 %
06.06.2016 20:53 16,5 C 79 % 1018,0 hPa 0,0 l/m 5,0 km/h (1 Bft) N-NO 28 0 min 0,000 mm 0,0 UV-I 5 W/m 12,8 C 16,5 C 6,4 km/h (2 Bft) 96,30 %
06.06.2016 20:54 16,4 C 80 % 1018,0 hPa 0,0 l/m 6,6 km/h (2 Bft) N-NO 19 0 min 0,000 mm 0,0 UV-I 5 W/m 12,9 C 16,3 C 8,0 km/h (2 Bft) 92,31 %
06.06.2016 20:55 16,3 C 81 % 1018,0 hPa 0,0 l/m 6,6 km/h (2 Bft) N-NO 30 0 min 0,000 mm 0,0 UV-I 5 W/m 13,0 C 16,2 C 8,0 km/h (2 Bft) 95,83 %
06.06.2016 20:56 16,3 C 82 % 1018,1 hPa 0,0 l/m 4,8 km/h (1 Bft) N-NO 32 0 min 0,000 mm 0,0 UV-I 1 W/m 13,2 C 16,3 C 6,4 km/h (2 Bft) 91,30 %
06.06.2016 20:57 16,2 C 82 % 1018,1 hPa 0,0 l/m 5,5 km/h (1 Bft) NO 37 0 min 0,000 mm 0,0 UV-I 0 W/m 13,1 C 16,2 C 6,4 km/h (2 Bft) 100,00 %
06.06.2016 20:58 16,1 C 83 % 1018,0 hPa 0,0 l/m 5,1 km/h (1 Bft) N-NO 30 0 min 0,000 mm 0,0 UV-I 0 W/m 13,2 C 16,1 C 6,4 km/h (2 Bft) 100,00 %
06.06.2016 20:59 16,1 C 83 % 1018,1 hPa 0,0 l/m 5,5 km/h (1 Bft) NO 38 0 min 0,000 mm 0,0 UV-I 0 W/m 13,2 C 16,1 C 6,4 km/h (2 Bft) 96,15 %
06.06.2016 21:00 16,1 C 84 % 1018,1 hPa 0,0 l/m 5,4 km/h (1 Bft) NO 42 0 min 0,000 mm 0,0 UV-I 0 W/m 13,4 C 16,1 C 9,7 km/h (2 Bft) 100,00 %
06.06.2016 21:01 16,1 C 84 % 1018,2 hPa 0,0 l/m 6,6 km/h (2 Bft) NO 39 0 min 0,025 mm 0,0 UV-I 0 W/m 13,4 C 16,0 C 8,0 km/h (2 Bft) 100,00 %
06.06.2016 21:02 16,1 C 84 % 1018,1 hPa 0,0 l/m 5,4 km/h (1 Bft) NO 42 0 min 0,000 mm 0,0 UV-I 0 W/m 13,4 C 16,1 C 6,4 km/h (2 Bft) 95,65 %
06.06.2016 21:03 16,0 C 84 % 1018,2 hPa 0,0 l/m 5,9 km/h (2 Bft) N-NO 33 0 min 0,000 mm 0,0 UV-I 0 W/m 13,3 C 16,0 C 8,0 km/h (2 Bft) 100,00 %
06.06.2016 21:04 16,0 C 85 % 1018,2 hPa 0,0 l/m 6,0 km/h (2 Bft) NO 42 0 min 0,000 mm 0,0 UV-I 0 W/m 13,5 C 16,0 C 8,0 km/h (2 Bft) 100,00 %
06.06.2016 21:05 15,9 C 85 % 1018,2 hPa 0,0 l/m 5,4 km/h (1 Bft) N-NO 30 0 min 0,000 mm 0,0 UV-I 0 W/m 13,4 C 15,9 C 8,0 km/h (2 Bft) 100,00 %
06.06.2016 21:06 15,9 C 85 % 1018,2 hPa 0,0 l/m 6,2 km/h (2 Bft) N-NO 17 0 min 0,000 mm 0,0 UV-I 0 W/m 13,4 C 15,9 C 8,0 km/h (2 Bft) 100,00 %
06.06.2016 21:07 15,9 C 85 % 1018,2 hPa 0,0 l/m 5,3 km/h (1 Bft) NO 36 0 min 0,000 mm 0,0 UV-I 0 W/m 13,4 C 15,9 C 8,0 km/h (2 Bft) 100,00 %
06.06.2016 21:08 15,8 C 85 % 1018,2 hPa 0,0 l/m 4,7 km/h (1 Bft) N-NO 29 0 min 0,000 mm 0,0 UV-I 0 W/m 13,3 C 15,8 C 6,4 km/h (2 Bft) 100,00 %
06.06.2016 21:09 15,8 C 86 % 1018,2 hPa 0,0 l/m 4,2 km/h (1 Bft) NO 36 0 min 0,000 mm 0,0 UV-I 0 W/m 13,5 C 15,8 C 6,4 km/h (2 Bft) 100,00 %
06.06.2016 21:10 15,8 C 86 % 1018,2 hPa 0,0 l/m 4,7 km/h (1 Bft) NO 36 0 min 0,000 mm 0,0 UV-I 0 W/m 13,5 C 15,8 C 6,4 km/h (2 Bft) 100,00 %
06.06.2016 21:11 15,8 C 86 % 1018,1 hPa 0,0 l/m 4,0 km/h (1 Bft) NO 38 0 min 0,000 mm 0,0 UV-I 0 W/m 13,5 C 15,8 C 4,8 km/h (1 Bft) 92,31 %
06.06.2016 21:12 15,9 C 86 % 1018,2 hPa 0,0 l/m 4,4 km/h (1 Bft) NO 38 0 min 0,000 mm 0,0 UV-I 0 W/m 13,6 C 15,9 C 4,8 km/h (1 Bft) 100,00 %
06.06.2016 21:13 15,9 C 86 % 1018,2 hPa 0,0 l/m 3,3 km/h (1 Bft) NO 50 0 min 0,000 mm 0,0 UV-I 0 W/m 13,6 C 15,9 C 4,8 km/h (1 Bft) 100,00 %
06.06.2016 21:14 15,9 C 85 % 1018,1 hPa 0,0 l/m 2,0 km/h (1 Bft) NO 50 0 min 0,000 mm 0,0 UV-I 0 W/m 13,4 C 15,9 C 3,2 km/h (1 Bft) 100,00 %
06.06.2016 21:15 15,9 C 85 % 1018,2 hPa 0,0 l/m 3,4 km/h (1 Bft) NO 53 0 min 0,000 mm 0,0 UV-I 0 W/m 13,4 C 15,9 C 4,8 km/h (1 Bft) 100,00 %
06.06.2016 21:16 15,9 C 85 % 1018,2 hPa 0,0 l/m 3,9 km/h (1 Bft) NO 53 0 min 0,000 mm 0,0 UV-I 0 W/m 13,4 C 15,9 C 4,8 km/h (1 Bft) 95,65 %
06.06.2016 21:17 15,9 C 85 % 1018,2 hPa 0,0 l/m 3,2 km/h (1 Bft) NO 53 0 min 0,000 mm 0,0 UV-I 0 W/m 13,4 C 15,9 C 4,8 km/h (1 Bft) 100,00 %
06.06.2016 21:18 15,9 C 85 % 1018,3 hPa 0,0 l/m 2,7 km/h (1 Bft) NO 53 0 min 0,000 mm 0,0 UV-I 0 W/m 13,4 C 15,9 C 3,2 km/h (1 Bft) 100,00 %
06.06.2016 21:19 15,9 C 85 % 1018,3 hPa 0,0 l/m 2,0 km/h (1 Bft) NO 53 0 min 0,000 mm 0,0 UV-I 0 W/m 13,4 C 15,9 C 3,2 km/h (1 Bft) 100,00 %
06.06.2016 21:20 15,9 C 85 % 1018,3 hPa 0,0 l/m 1,5 km/h (1 Bft) NO 53 0 min 0,000 mm 0,0 UV-I 0 W/m 13,4 C 15,9 C 3,2 km/h (1 Bft) 100,00 %
06.06.2016 21:21 15,9 C 85 % 1018,3 hPa 0,0 l/m 2,2 km/h (1 Bft) NO 53 0 min 0,000 mm 0,0 UV-I 0 W/m 13,4 C 15,9 C 3,2 km/h (1 Bft) 100,00 %
06.06.2016 21:22 15,9 C 85 % 1018,3 hPa 0,0 l/m 2,1 km/h (1 Bft) NO 53 0 min 0,000 mm 0,0 UV-I 0 W/m 13,4 C 15,9 C 3,2 km/h (1 Bft) 100,00 %
06.06.2016 21:23 15,9 C 85 % 1018,3 hPa 0,0 l/m 1,9 km/h (1 Bft) NO 53 0 min 0,000 mm 0,0 UV-I 0 W/m 13,4 C 15,9 C 3,2 km/h (1 Bft) 100,00 %
06.06.2016 21:24 15,9 C 85 % 1018,3 hPa 0,0 l/m 1,5 km/h (1 Bft) NO 53 0 min 0,000 mm 0,0 UV-I 0 W/m 13,4 C 15,9 C 3,2 km/h (1 Bft) 95,65 %
06.06.2016 21:25 15,9 C 85 % 1018,3 hPa 0,0 l/m 1,5 km/h (1 Bft) NO 53 0 min 0,000 mm 0,0 UV-I 0 W/m 13,4 C 15,9 C 1,6 km/h (1 Bft) 100,00 %
06.06.2016 21:26 15,9 C 85 % 1018,3 hPa 0,0 l/m 1,7 km/h (1 Bft) NO 53 0 min 0,000 mm 0,0 UV-I 0 W/m 13,4 C 15,9 C 3,2 km/h (1 Bft) 100,00 %
06.06.2016 21:27 15,9 C 85 % 1018,4 hPa 0,0 l/m 1,9 km/h (1 Bft) NO 53 0 min 0,000 mm 0,0 UV-I 0 W/m 13,4 C 15,9 C 3,2 km/h (1 Bft) 100,00 %
06.06.2016 21:28 15,9 C 84 % 1018,3 hPa 0,0 l/m 3,3 km/h (1 Bft) NO 53 0 min 0,000 mm 0,0 UV-I 0 W/m 13,2 C 15,9 C 6,4 km/h (2 Bft) 100,00 %
06.06.2016 21:29 15,9 C 84 % 1018,3 hPa 0,0 l/m 3,5 km/h (1 Bft) NO 53 0 min 0,000 mm 0,0 UV-I 0 W/m 13,2 C 15,9 C 4,8 km/h (1 Bft) 100,00 %
06.06.2016 21:30 15,9 C 84 % 1018,3 hPa 0,0 l/m 3,0 km/h (1 Bft) NO 53 0 min 0,000 mm 0,0 UV-I 0 W/m 13,2 C 15,9 C 3,2 km/h (1 Bft) 100,00 %
06.06.2016 21:31 15,9 C 84 % 1018,3 hPa 0,0 l/m 3,1 km/h (1 Bft) NO 53 0 min 0,000 mm 0,0 UV-I 0 W/m 13,2 C 15,9 C 4,8 km/h (1 Bft) 100,00 %
06.06.2016 21:32 16,0 C 83 % 1018,3 hPa 0,0 l/m 3,3 km/h (1 Bft) NO 53 0 min 0,000 mm 0,0 UV-I 0 W/m 13,1 C 16,0 C 4,8 km/h (1 Bft) 100,00 %
06.06.2016 21:33 16,0 C 83 % 1018,3 hPa 0,0 l/m 3,5 km/h (1 Bft) NO 53 0 min 0,000 mm 0,0 UV-I 0 W/m 13,1 C 16,0 C 4,8 km/h (1 Bft) 100,00 %
06.06.2016 21:34 16,0 C 83 % 1018,4 hPa 0,0 l/m 3,9 km/h (1 Bft) NO 53 0 min 0,000 mm 0,0 UV-I 0 W/m 13,1 C 16,0 C 4,8 km/h (1 Bft) 95,65 %
06.06.2016 21:35 16,0 C 83 % 1018,4 hPa 0,0 l/m 2,9 km/h (1 Bft) NO 53 0 min 0,000 mm 0,0 UV-I 0 W/m 13,1 C 16,0 C 3,2 km/h (1 Bft) 100,00 %
06.06.2016 21:36 16,0 C 83 % 1018,4 hPa 0,0 l/m 3,2 km/h (1 Bft) NO 53 0 min 0,000 mm 0,0 UV-I 0 W/m 13,1 C 16,0 C 4,8 km/h (1 Bft) 100,00 %
06.06.2016 21:37 15,9 C 83 % 1018,4 hPa 0,0 l/m 3,5 km/h (1 Bft) NO 53 0 min 0,000 mm 0,0 UV-I 0 W/m 13,0 C 15,9 C 6,4 km/h (2 Bft) 100,00 %
06.06.2016 21:38 15,9 C 84 % 1018,4 hPa 0,0 l/m 4,2 km/h (1 Bft) NO 44 0 min 0,000 mm 0,0 UV-I 0 W/m 13,2 C 15,9 C 6,4 km/h (2 Bft) 100,00 %
06.06.2016 21:39 15,9 C 84 % 1018,4 hPa 0,0 l/m 4,5 km/h (1 Bft) NO 42 0 min 0,000 mm 0,0 UV-I 0 W/m 13,2 C 15,9 C 6,4 km/h (2 Bft) 100,00 %
06.06.2016 21:40 15,9 C 83 % 1018,4 hPa 0,0 l/m 3,3 km/h (1 Bft) NO 42 0 min 0,000 mm 0,0 UV-I 0 W/m 13,0 C 15,9 C 4,8 km/h (1 Bft) 100,00 %
06.06.2016 21:41 15,9 C 84 % 1018,5 hPa 0,0 l/m 2,8 km/h (1 Bft) NO 40 0 min 0,000 mm 0,0 UV-I 0 W/m 13,2 C 15,9 C 4,8 km/h (1 Bft) 95,83 %
06.06.2016 21:42 15,9 C 84 % 1018,4 hPa 0,0 l/m 2,0 km/h (1 Bft) NO 40 0 min 0,000 mm 0,0 UV-I 0 W/m 13,2 C 15,9 C 3,2 km/h (1 Bft) 100,00 %
06.06.2016 21:43 15,9 C 84 % 1018,5 hPa 0,0 l/m 1,7 km/h (1 Bft) NO 40 0 min 0,000 mm 0,0 UV-I 0 W/m 13,2 C 15,9 C 3,2 km/h (1 Bft) 100,00 %
06.06.2016 21:44 15,9 C 84 % 1018,5 hPa 0,0 l/m 1,6 km/h (1 Bft) NO 40 0 min 0,000 mm 0,0 UV-I 0 W/m 13,2 C 15,9 C 3,2 km/h (1 Bft) 100,00 %
06.06.2016 21:45 15,9 C 84 % 1018,5 hPa 0,0 l/m 0,3 km/h (0 Bft) NO 40 0 min 0,000 mm 0,0 UV-I 0 W/m 13,2 C 15,9 C 1,6 km/h (1 Bft) 90,91 %
06.06.2016 21:46 15,8 C 84 % 1018,5 hPa 0,0 l/m 0,0 km/h (0 Bft) NO 40 0 min 0,000 mm 0,0 UV-I 0 W/m 13,1 C 15,8 C 0,0 km/h (0 Bft) 100,00 %
06.06.2016 21:47 15,7 C 85 % 1018,5 hPa 0,0 l/m 0,0 km/h (0 Bft) NO 40 0 min 0,000 mm 0,0 UV-I 0 W/m 13,2 C 15,7 C 0,0 km/h (0 Bft) 95,65 %
06.06.2016 21:48 15,6 C 85 % 1018,5 hPa 0,0 l/m 0,0 km/h (0 Bft) NO 40 0 min 0,000 mm 0,0 UV-I 0 W/m 13,1 C 15,6 C 0,0 km/h (0 Bft) 100,00 %
06.06.2016 21:49 15,5 C 86 % 1018,5 hPa 0,0 l/m 0,1 km/h (0 Bft) NO 40 0 min 0,000 mm 0,0 UV-I 0 W/m 13,2 C 15,5 C 1,6 km/h (1 Bft) 100,00 %
06.06.2016 21:50 15,4 C 86 % 1018,5 hPa 0,0 l/m 0,0 km/h (0 Bft) NO 40 0 min 0,000 mm 0,0 UV-I 0 W/m 13,1 C 15,4 C 0,0 km/h (0 Bft) 100,00 %
06.06.2016 21:51 15,3 C 87 % 1018,6 hPa 0,0 l/m 0,0 km/h (0 Bft) NO 40 0 min 0,000 mm 0,0 UV-I 0 W/m 13,1 C 15,3 C 0,0 km/h (0 Bft) 100,00 %
06.06.2016 21:52 15,3 C 87 % 1018,5 hPa 0,0 l/m 0,0 km/h (0 Bft) NO 40 0 min 0,000 mm 0,0 UV-I 0 W/m 13,1 C 15,3 C 0,0 km/h (0 Bft) 100,00 %
06.06.2016 21:53 15,3 C 87 % 1018,6 hPa 0,0 l/m 0,0 km/h (0 Bft) NO 40 0 min 0,000 mm 0,0 UV-I 0 W/m 13,1 C 15,3 C 0,0 km/h (0 Bft) 100,00 %
06.06.2016 21:54 15,2 C 87 % 1018,6 hPa 0,0 l/m 0,0 km/h (0 Bft) NO 40 0 min 0,000 mm 0,0 UV-I 0 W/m 13,0 C 15,2 C 0,0 km/h (0 Bft) 100,00 %
06.06.2016 21:55 15,2 C 87 % 1018,6 hPa 0,0 l/m 0,1 km/h (0 Bft) NO 40 0 min 0,000 mm 0,0 UV-I 0 W/m 13,0 C 15,2 C 1,6 km/h (1 Bft) 100,00 %
06.06.2016 21:56 15,2 C 88 % 1018,6 hPa 0,0 l/m 0,7 km/h (0 Bft) NO 40 0 min 0,000 mm 0,0 UV-I 0 W/m 13,2 C 15,2 C 1,6 km/h (1 Bft) 100,00 %
06.06.2016 21:57 15,2 C 88 % 1018,6 hPa 0,0 l/m 0,2 km/h (0 Bft) NO 40 0 min 0,000 mm 0,0 UV-I 0 W/m 13,2 C 15,2 C 1,6 km/h (1 Bft) 100,00 %
06.06.2016 22:00 15,1 C 88 % 1018,6 hPa 0,0 l/m 0,0 km/h (0 Bft) NO 45 0 min 0,000 mm 0,0 UV-I 0 W/m 13,1 C 15,1 C 1,6 km/h (1 Bft) 99,12 %
06.06.2016 22:05 15,0 C 88 % 1018,6 hPa 0,0 l/m 0,0 km/h (0 Bft) N 0 0 min 0,000 mm 0,0 UV-I 0 W/m 13,0 C 15,0 C 0,0 km/h (0 Bft) 100,00 %
06.06.2016 22:10 14,8 C 89 % 1018,7 hPa 0,0 l/m 0,0 km/h (0 Bft) NO 45 0 min 0,000 mm 0,0 UV-I 0 W/m 13,0 C 14,8 C 1,6 km/h (1 Bft) 99,12 %
06.06.2016 22:15 14,7 C 89 % 1018,8 hPa 0,0 l/m 0,0 km/h (0 Bft) NO 45 0 min 0,000 mm 0,0 UV-I 0 W/m 12,9 C 14,7 C 3,2 km/h (1 Bft) 100,00 %
06.06.2016 22:20 14,5 C 88 % 1018,8 hPa 0,0 l/m 0,0 km/h (0 Bft) NO 45 0 min 0,000 mm 0,0 UV-I 0 W/m 12,5 C 14,5 C 1,6 km/h (1 Bft) 100,00 %
06.06.2016 22:25 14,2 C 90 % 1018,8 hPa 0,0 l/m 0,0 km/h (0 Bft) NO 45 0 min 0,000 mm 0,0 UV-I 0 W/m 12,6 C 14,2 C 3,2 km/h (1 Bft) 100,00 %
06.06.2016 22:30 14,3 C 90 % 1018,8 hPa 0,0 l/m 3,2 km/h (1 Bft) NO 45 0 min 0,000 mm 0,0 UV-I 0 W/m 12,7 C 14,3 C 4,8 km/h (1 Bft) 100,00 %
06.06.2016 22:33 14,2 C 90 % 1018,8 hPa 0,0 l/m 3,5 km/h (1 Bft) NO 54 0 min 0,000 mm 0,0 UV-I 0 W/m 12,6 C 14,2 C 4,8 km/h (1 Bft) 98,92 %
06.06.2016 22:34 14,2 C 90 % 1018,8 hPa 0,0 l/m 3,4 km/h (1 Bft) NO 54 0 min 0,000 mm 0,0 UV-I 0 W/m 12,6 C 14,2 C 4,8 km/h (1 Bft) 96,77 %
06.06.2016 22:35 14,1 C 90 % 1018,8 hPa 0,0 l/m 2,9 km/h (1 Bft) NO 54 0 min 0,000 mm 0,0 UV-I 0 W/m 12,5 C 14,1 C 3,2 km/h (1 Bft) 95,65 %
06.06.2016 22:36 14,1 C 90 % 1018,8 hPa 0,0 l/m 2,9 km/h (1 Bft) NO 54 0 min 0,000 mm 0,0 UV-I 0 W/m 12,5 C 14,1 C 3,2 km/h (1 Bft) 100,00 %
06.06.2016 22:37 14,1 C 91 % 1018,8 hPa 0,0 l/m 2,5 km/h (1 Bft) NO 54 0 min 0,000 mm 0,0 UV-I 0 W/m 12,7 C 14,1 C 3,2 km/h (1 Bft) 95,65 %
06.06.2016 22:38 14,2 C 91 % 1018,8 hPa 0,0 l/m 3,2 km/h (1 Bft) NO 54 0 min 0,000 mm 0,0 UV-I 0 W/m 12,8 C 14,2 C 4,8 km/h (1 Bft) 100,00 %
06.06.2016 22:39 14,3 C 91 % 1018,8 hPa 0,0 l/m 1,0 km/h (0 Bft) NO 54 0 min 0,000 mm 0,0 UV-I 0 W/m 12,8 C 14,3 C 3,2 km/h (1 Bft) 92,86 %
06.06.2016 22:40 14,3 C 90 % 1018,8 hPa 0,0 l/m 0,9 km/h (0 Bft) NO 54 0 min 0,000 mm 0,0 UV-I 0 W/m 12,7 C 14,3 C 3,2 km/h (1 Bft) 100,00 %
06.06.2016 22:41 14,3 C 90 % 1018,8 hPa 0,0 l/m 2,2 km/h (1 Bft) NO 54 0 min 0,000 mm 0,0 UV-I 0 W/m 12,7 C 14,3 C 4,8 km/h (1 Bft) 95,65 %
06.06.2016 22:42 14,3 C 90 % 1018,8 hPa 0,0 l/m 3,7 km/h (1 Bft) NO 54 0 min 0,000 mm 0,0 UV-I 0 W/m 12,7 C 14,3 C 4,8 km/h (1 Bft) 96,30 %
06.06.2016 22:43 14,3 C 90 % 1018,8 hPa 0,0 l/m 3,6 km/h (1 Bft) NO 54 0 min 0,000 mm 0,0 UV-I 0 W/m 12,7 C 14,3 C 4,8 km/h (1 Bft) 100,00 %
06.06.2016 22:44 14,3 C 91 % 1018,8 hPa 0,0 l/m 3,6 km/h (1 Bft) NO 54 0 min 0,000 mm 0,0 UV-I 0 W/m 12,8 C 14,3 C 4,8 km/h (1 Bft) 93,33 %
06.06.2016 22:45 14,4 C 91 % 1018,8 hPa 0,0 l/m 3,2 km/h (1 Bft) NO 45 0 min 0,000 mm 0,0 UV-I 0 W/m 12,9 C 14,4 C 4,8 km/h (1 Bft) 100,00 %
06.06.2016 22:47 14,5 C 90 % 1018,8 hPa 0,0 l/m 3,3 km/h (1 Bft) NO 54 0 min 0,000 mm 0,0 UV-I 0 W/m 12,9 C 14,5 C 4,8 km/h (1 Bft) 97,44 %
06.06.2016 22:48 14,6 C 90 % 1018,8 hPa 0,0 l/m 2,8 km/h (1 Bft) NO 54 0 min 0,000 mm 0,0 UV-I 0 W/m 13,0 C 14,6 C 3,2 km/h (1 Bft) 100,00 %
06.06.2016 22:49 14,6 C 90 % 1018,9 hPa 0,0 l/m 2,7 km/h (1 Bft) NO 54 0 min 0,000 mm 0,0 UV-I 0 W/m 13,0 C 14,6 C 3,2 km/h (1 Bft) 96,30 %
06.06.2016 22:50 14,6 C 90 % 1018,8 hPa 0,0 l/m 3,4 km/h (1 Bft) NO 54 0 min 0,000 mm 0,0 UV-I 0 W/m 13,0 C 14,6 C 4,8 km/h (1 Bft) 100,00 %
06.06.2016 22:51 14,7 C 90 % 1018,9 hPa 0,0 l/m 3,4 km/h (1 Bft) NO 54 0 min 0,000 mm 0,0 UV-I 0 W/m 13,1 C 14,7 C 4,8 km/h (1 Bft) 95,83 %
06.06.2016 22:52 14,7 C 90 % 1018,9 hPa 0,0 l/m 3,4 km/h (1 Bft) NO 54 0 min 0,000 mm 0,0 UV-I 0 W/m 13,1 C 14,7 C 4,8 km/h (1 Bft) 100,00 %
06.06.2016 22:53 14,8 C 90 % 1018,8 hPa 0,0 l/m 3,5 km/h (1 Bft) NO 54 0 min 0,000 mm 0,0 UV-I 0 W/m 13,2 C 14,8 C 4,8 km/h (1 Bft) 96,15 %
06.06.2016 22:54 14,8 C 90 % 1018,8 hPa 0,0 l/m 3,2 km/h (1 Bft) NO 54 0 min 0,000 mm 0,0 UV-I 0 W/m 13,2 C 14,8 C 4,8 km/h (1 Bft) 100,00 %
06.06.2016 22:55 14,8 C 90 % 1018,8 hPa 0,0 l/m 2,3 km/h (1 Bft) NO 54 0 min 0,000 mm 0,0 UV-I 0 W/m 13,2 C 14,8 C 3,2 km/h (1 Bft) 92,31 %
06.06.2016 22:56 14,9 C 90 % 1018,8 hPa 0,0 l/m 2,4 km/h (1 Bft) NO 54 0 min 0,000 mm 0,0 UV-I 0 W/m 13,3 C 14,9 C 3,2 km/h (1 Bft) 100,00 %
06.06.2016 22:57 14,8 C 89 % 1018,8 hPa 0,0 l/m 2,1 km/h (1 Bft) NO 54 0 min 0,000 mm 0,0 UV-I 0 W/m 13,0 C 14,8 C 3,2 km/h (1 Bft) 95,65 %
06.06.2016 22:58 14,8 C 89 % 1018,8 hPa 0,0 l/m 1,1 km/h (1 Bft) NO 54 0 min 0,000 mm 0,0 UV-I 0 W/m 13,0 C 14,8 C 1,6 km/h (1 Bft) 95,83 %
06.06.2016 22:59 14,8 C 89 % 1018,8 hPa 0,0 l/m 1,3 km/h (1 Bft) NO 54 0 min 0,000 mm 0,0 UV-I 0 W/m 13,0 C 14,8 C 1,6 km/h (1 Bft) 95,65 %
06.06.2016 23:00 14,7 C 89 % 1018,8 hPa 0,0 l/m 0,9 km/h (0 Bft) NO 54 0 min 0,000 mm 0,0 UV-I 0 W/m 12,9 C 14,7 C 1,6 km/h (1 Bft) 91,67 %
06.06.2016 23:02 14,7 C 89 % 1018,8 hPa 0,0 l/m 1,7 km/h (1 Bft) NO 54 0 min 0,000 mm 0,0 UV-I 0 W/m 12,9 C 14,7 C 3,2 km/h (1 Bft) 100,00 %
06.06.2016 23:03 14,7 C 89 % 1018,8 hPa 0,0 l/m 1,9 km/h (1 Bft) NO 54 0 min 0,000 mm 0,0 UV-I 0 W/m 12,9 C 14,7 C 3,2 km/h (1 Bft) 100,00 %
06.06.2016 23:04 14,7 C 89 % 1018,8 hPa 0,0 l/m 1,6 km/h (1 Bft) NO 54 0 min 0,000 mm 0,0 UV-I 0 W/m 12,9 C 14,7 C 3,2 km/h (1 Bft) 100,00 %
06.06.2016 23:05 14,7 C 89 % 1018,8 hPa 0,0 l/m 1,9 km/h (1 Bft) NO 54 0 min 0,000 mm 0,0 UV-I 0 W/m 12,9 C 14,7 C 3,2 km/h (1 Bft) 100,00 %
06.06.2016 23:06 14,8 C 89 % 1018,8 hPa 0,0 l/m 1,3 km/h (1 Bft) NO 54 0 min 0,000 mm 0,0 UV-I 0 W/m 13,0 C 14,8 C 1,6 km/h (1 Bft) 100,00 %
06.06.2016 23:07 14,8 C 89 % 1018,8 hPa 0,0 l/m 1,7 km/h (1 Bft) NO 54 0 min 0,000 mm 0,0 UV-I 0 W/m 13,0 C 14,8 C 3,2 km/h (1 Bft) 91,30 %
06.06.2016 23:08 14,8 C 89 % 1018,8 hPa 0,0 l/m 2,0 km/h (1 Bft) NO 54 0 min 0,000 mm 0,0 UV-I 0 W/m 13,0 C 14,8 C 3,2 km/h (1 Bft) 91,67 %
06.06.2016 23:09 14,8 C 89 % 1018,8 hPa 0,0 l/m 1,5 km/h (1 Bft) NO 54 0 min 0,000 mm 0,0 UV-I 0 W/m 13,0 C 14,8 C 3,2 km/h (1 Bft) 96,30 %
06.06.2016 23:10 14,8 C 89 % 1018,8 hPa 0,0 l/m 1,4 km/h (1 Bft) NO 54 0 min 0,000 mm 0,0 UV-I 0 W/m 13,0 C 14,8 C 3,2 km/h (1 Bft) 100,00 %
06.06.2016 23:11 14,8 C 89 % 1018,8 hPa 0,0 l/m 1,9 km/h (1 Bft) NO 54 0 min 0,000 mm 0,0 UV-I 0 W/m 13,0 C 14,8 C 3,2 km/h (1 Bft) 100,00 %
06.06.2016 23:12 14,8 C 89 % 1018,8 hPa 0,0 l/m 1,3 km/h (1 Bft) NO 54 0 min 0,000 mm 0,0 UV-I 0 W/m 13,0 C 14,8 C 3,2 km/h (1 Bft) 100,00 %
06.06.2016 23:13 14,8 C 89 % 1018,8 hPa 0,0 l/m 0,2 km/h (0 Bft) NO 54 0 min 0,000 mm 0,0 UV-I 0 W/m 13,0 C 14,8 C 1,6 km/h (1 Bft) 100,00 %
06.06.2016 23:14 14,8 C 88 % 1018,8 hPa 0,0 l/m 0,1 km/h (0 Bft) NO 54 0 min 0,000 mm 0,0 UV-I 0 W/m 12,8 C 14,8 C 1,6 km/h (1 Bft) 100,00 %
06.06.2016 23:15 14,7 C 89 % 1018,8 hPa 0,0 l/m 0,0 km/h (0 Bft) NO 54 0 min 0,000 mm 0,0 UV-I 0 W/m 12,9 C 14,7 C 0,0 km/h (0 Bft) 100,00 %
06.06.2016 23:16 14,6 C 89 % 1018,8 hPa 0,0 l/m 0,0 km/h (0 Bft) NO 54 0 min 0,000 mm 0,0 UV-I 0 W/m 12,8 C 14,6 C 0,0 km/h (0 Bft) 100,00 %
06.06.2016 23:17 14,5 C 89 % 1018,8 hPa 0,0 l/m 0,6 km/h (0 Bft) NO 54 0 min 0,000 mm 0,0 UV-I 0 W/m 12,7 C 14,5 C 3,2 km/h (1 Bft) 100,00 %
06.06.2016 23:18 14,4 C 89 % 1018,8 hPa 0,0 l/m 1,9 km/h (1 Bft) NO 54 0 min 0,000 mm 0,0 UV-I 0 W/m 12,6 C 14,4 C 3,2 km/h (1 Bft) 100,00 %
06.06.2016 23:19 14,3 C 90 % 1018,9 hPa 0,0 l/m 2,2 km/h (1 Bft) NO 54 0 min 0,000 mm 0,0 UV-I 0 W/m 12,7 C 14,3 C 3,2 km/h (1 Bft) 100,00 %
06.06.2016 23:20 14,3 C 90 % 1018,8 hPa 0,0 l/m 2,1 km/h (1 Bft) NO 54 0 min 0,000 mm 0,0 UV-I 0 W/m 12,7 C 14,3 C 3,2 km/h (1 Bft) 100,00 %
06.06.2016 23:21 14,3 C 90 % 1018,8 hPa 0,0 l/m 3,0 km/h (1 Bft) O-NO 57 0 min 0,000 mm 0,0 UV-I 0 W/m 12,7 C 14,3 C 4,8 km/h (1 Bft) 100,00 %
06.06.2016 23:22 14,3 C 91 % 1018,7 hPa 0,0 l/m 3,7 km/h (1 Bft) O-NO 71 0 min 0,000 mm 0,0 UV-I 0 W/m 12,8 C 14,3 C 4,8 km/h (1 Bft) 100,00 %
06.06.2016 23:23 14,3 C 91 % 1018,7 hPa 0,0 l/m 2,9 km/h (1 Bft) O-SO 102 0 min 0,000 mm 0,0 UV-I 0 W/m 12,8 C 14,3 C 4,8 km/h (1 Bft) 96,30 %
06.06.2016 23:24 14,3 C 90 % 1018,8 hPa 0,0 l/m 1,4 km/h (1 Bft) O-SO 102 0 min 0,000 mm 0,0 UV-I 0 W/m 12,7 C 14,3 C 3,2 km/h (1 Bft) 100,00 %
06.06.2016 23:25 14,3 C 90 % 1018,7 hPa 0,0 l/m 0,1 km/h (0 Bft) O-SO 102 0 min 0,000 mm 0,0 UV-I 0 W/m 12,7 C 14,3 C 1,6 km/h (1 Bft) 100,00 %
06.06.2016 23:26 14,2 C 90 % 1018,8 hPa 0,0 l/m 0,0 km/h (0 Bft) O-SO 102 0 min 0,000 mm 0,0 UV-I 0 W/m 12,6 C 14,2 C 0,0 km/h (0 Bft) 98,63 %
06.06.2016 23:27 14,2 C 90 % 1018,7 hPa 0,0 l/m 0,0 km/h (0 Bft) O-SO 102 0 min 0,000 mm 0,0 UV-I 0 W/m 12,6 C 14,2 C 0,0 km/h (0 Bft) 97,37 %
06.06.2016 23:28 14,1 C 90 % 1018,7 hPa 0,0 l/m 0,0 km/h (0 Bft) O-SO 102 0 min 0,000 mm 0,0 UV-I 0 W/m 12,5 C 14,1 C 0,0 km/h (0 Bft) 100,00 %
06.06.2016 23:29 14,1 C 91 % 1018,7 hPa 0,0 l/m 0,0 km/h (0 Bft) O-SO 102 0 min 0,000 mm 0,0 UV-I 0 W/m 12,7 C 14,1 C 0,0 km/h (0 Bft) 100,00 %
06.06.2016 23:30 14,0 C 91 % 1018,8 hPa 0,0 l/m 0,9 km/h (0 Bft) O-SO 102 0 min 0,000 mm 0,0 UV-I 0 W/m 12,6 C 14,0 C 3,2 km/h (1 Bft) 100,00 %
06.06.2016 23:31 13,9 C 91 % 1018,8 hPa 0,0 l/m 0,6 km/h (0 Bft) O-SO 102 0 min 0,000 mm 0,0 UV-I 0 W/m 12,5 C 13,9 C 3,2 km/h (1 Bft) 95,65 %
06.06.2016 23:32 13,9 C 91 % 1018,8 hPa 0,0 l/m 0,9 km/h (0 Bft) O-SO 106 0 min 0,000 mm 0,0 UV-I 0 W/m 12,5 C 13,9 C 3,2 km/h (1 Bft) 100,00 %
06.06.2016 23:33 13,8 C 91 % 1018,8 hPa 0,0 l/m 3,6 km/h (1 Bft) SO 130 0 min 0,000 mm 0,0 UV-I 0 W/m 12,4 C 13,8 C 4,8 km/h (1 Bft) 100,00 %
06.06.2016 23:34 13,8 C 91 % 1018,8 hPa 0,0 l/m 4,6 km/h (1 Bft) S-SO 147 0 min 0,000 mm 0,0 UV-I 0 W/m 12,4 C 13,8 C 4,8 km/h (1 Bft) 100,00 %
06.06.2016 23:35 13,7 C 91 % 1018,8 hPa 0,0 l/m 4,0 km/h (1 Bft) S-SO 147 0 min 0,000 mm 0,0 UV-I 0 W/m 12,3 C 13,7 C 4,8 km/h (1 Bft) 100,00 %
06.06.2016 23:36 13,6 C 91 % 1018,8 hPa 0,0 l/m 4,1 km/h (1 Bft) S-SO 147 0 min 0,000 mm 0,0 UV-I 0 W/m 12,2 C 13,6 C 4,8 km/h (1 Bft) 100,00 %
06.06.2016 23:37 13,5 C 91 % 1018,8 hPa 0,0 l/m 3,4 km/h (1 Bft) S-SO 147 0 min 0,000 mm 0,0 UV-I 0 W/m 12,1 C 13,5 C 4,8 km/h (1 Bft) 95,65 %
06.06.2016 23:38 13,4 C 92 % 1018,8 hPa 0,0 l/m 3,0 km/h (1 Bft) S-SO 147 0 min 0,000 mm 0,0 UV-I 0 W/m 12,1 C 13,4 C 4,8 km/h (1 Bft) 100,00 %
06.06.2016 23:39 13,4 C 92 % 1018,8 hPa 0,0 l/m 2,7 km/h (1 Bft) S-SO 147 0 min 0,000 mm 0,0 UV-I 0 W/m 12,1 C 13,4 C 3,2 km/h (1 Bft) 100,00 %
06.06.2016 23:40 13,4 C 92 % 1018,8 hPa 0,0 l/m 2,9 km/h (1 Bft) S-SO 147 0 min 0,000 mm 0,0 UV-I 0 W/m 12,1 C 13,4 C 3,2 km/h (1 Bft) 100,00 %
06.06.2016 23:41 13,4 C 92 % 1018,8 hPa 0,0 l/m 2,3 km/h (1 Bft) S-SO 147 0 min 0,000 mm 0,0 UV-I 0 W/m 12,1 C 13,4 C 3,2 km/h (1 Bft) 100,00 %
06.06.2016 23:42 13,5 C 93 % 1018,8 hPa 0,0 l/m 1,9 km/h (1 Bft) S-SO 147 0 min 0,000 mm 0,0 UV-I 0 W/m 12,4 C 13,5 C 3,2 km/h (1 Bft) 100,00 %
06.06.2016 23:43 13,5 C 93 % 1018,8 hPa 0,0 l/m 0,6 km/h (0 Bft) S-SO 147 0 min 0,000 mm 0,0 UV-I 0 W/m 12,4 C 13,5 C 1,6 km/h (1 Bft) 95,65 %
06.06.2016 23:44 13,6 C 93 % 1018,8 hPa 0,0 l/m 0,0 km/h (0 Bft) S-SO 147 0 min 0,000 mm 0,0 UV-I 0 W/m 12,5 C 13,6 C 0,0 km/h (0 Bft) 100,00 %
06.06.2016 23:45 13,6 C 93 % 1018,8 hPa 0,0 l/m 1,1 km/h (1 Bft) S-SO 147 0 min 0,000 mm 0,0 UV-I 0 W/m 12,5 C 13,6 C 3,2 km/h (1 Bft) 100,00 %
06.06.2016 23:46 13,4 C 92 % 1018,9 hPa 0,0 l/m 2,7 km/h (1 Bft) O-SO 113 0 min 0,000 mm 0,0 UV-I 0 W/m 12,1 C 13,4 C 3,2 km/h (1 Bft) 100,00 %
06.06.2016 23:47 13,4 C 92 % 1018,9 hPa 0,0 l/m 1,8 km/h (1 Bft) O 98 0 min 0,000 mm 0,0 UV-I 0 W/m 12,1 C 13,4 C 3,2 km/h (1 Bft) 100,00 %
06.06.2016 23:48 13,3 C 92 % 1018,9 hPa 0,0 l/m 3,8 km/h (1 Bft) O-NO 67 0 min 0,000 mm 0,0 UV-I 0 W/m 12,0 C 13,3 C 4,8 km/h (1 Bft) 100,00 %
06.06.2016 23:49 13,3 C 92 % 1018,9 hPa 0,0 l/m 4,3 km/h (1 Bft) O-NO 63 0 min 0,000 mm 0,0 UV-I 0 W/m 12,0 C 13,3 C 6,4 km/h (2 Bft) 100,00 %
06.06.2016 23:50 13,3 C 93 % 1018,9 hPa 0,0 l/m 3,7 km/h (1 Bft) O-NO 63 0 min 0,000 mm 0,0 UV-I 0 W/m 12,2 C 13,3 C 4,8 km/h (1 Bft) 100,00 %
06.06.2016 23:51 13,3 C 93 % 1018,9 hPa 0,0 l/m 4,5 km/h (1 Bft) NO 53 0 min 0,000 mm 0,0 UV-I 0 W/m 12,2 C 13,3 C 4,8 km/h (1 Bft) 100,00 %
06.06.2016 23:52 13,3 C 93 % 1018,9 hPa 0,0 l/m 4,0 km/h (1 Bft) NO 53 0 min 0,000 mm 0,0 UV-I 0 W/m 12,2 C 13,3 C 4,8 km/h (1 Bft) 100,00 %
06.06.2016 23:53 13,4 C 93 % 1018,9 hPa 0,0 l/m 3,1 km/h (1 Bft) NO 53 0 min 0,000 mm 0,0 UV-I 0 W/m 12,3 C 13,4 C 4,8 km/h (1 Bft) 100,00 %
06.06.2016 23:54 13,4 C 93 % 1018,9 hPa 0,0 l/m 2,9 km/h (1 Bft) NO 53 0 min 0,000 mm 0,0 UV-I 0 W/m 12,3 C 13,4 C 4,8 km/h (1 Bft) 100,00 %
06.06.2016 23:55 13,4 C 93 % 1018,9 hPa 0,0 l/m 3,1 km/h (1 Bft) NO 53 0 min 0,000 mm 0,0 UV-I 0 W/m 12,3 C 13,4 C 4,8 km/h (1 Bft) 100,00 %
06.06.2016 23:56 13,4 C 93 % 1019,0 hPa 0,0 l/m 1,0 km/h (0 Bft) NO 51 0 min 0,000 mm 0,0 UV-I 0 W/m 12,3 C 13,4 C 3,2 km/h (1 Bft) 100,00 %
06.06.2016 23:57 13,4 C 93 % 1019,0 hPa 0,0 l/m 0,2 km/h (0 Bft) NO 51 0 min 0,000 mm 0,0 UV-I 0 W/m 12,3 C 13,4 C 1,6 km/h (1 Bft) 100,00 %
06.06.2016 23:58 13,3 C 93 % 1019,0 hPa 0,0 l/m 0,1 km/h (0 Bft) NO 51 0 min 0,000 mm 0,0 UV-I 0 W/m 12,2 C 13,3 C 1,6 km/h (1 Bft) 100,00 %
06.06.2016 23:59 13,3 C 93 % 1018,9 hPa 0,0 l/m 0,1 km/h (0 Bft) NO 51 0 min 0,000 mm 0,0 UV-I 0 W/m 12,2 C 13,3 C 1,6 km/h (1 Bft) 100,00 %
_ Min-Zeit 05:02 16:10 00:00 - 00:09 - - - - - - 16:10 05:02 00:09 11:23
Minimum _ 12,0 C 38 % 1016,5 hPa - 0,0 km/h (0 Bft) - - - - - - 10,0 C 12,0 C 0,0 km/h (0 Bft) 83,33 %
_ Max-Zeit 16:07 04:01 23:56 00:03 16:38 - - 14:29 13:01 12:49 12:33 12:16 16:32 16:38 00:00
Maximum _ 25,5 C 97 % 1019,0 hPa 0,2 l/m 37,0 km/h
N (5 Bft)
- - 4 min 0,534 mm 6,7 UV-I 945 W/m 17,6 C 25,5 C 53,1 km/h
N-NO (7 Bft)
100,00 %
Durchschnitt _ 17,6 C 80 % 1017,6 hPa #0,6 l/m 3,7 km/h (1 Bft) SW - #9:48 h #4,394 mm 4,0 UV-I 439 W/m 13,8 C 17,5 C 5,8 km/h (2 Bft) 98,69 %